GFSCGP_925_thetae_000.txt.gz
Theta_e
318 318 318 317 317 318 319 319 319 320 318 316 316 315 316 315 314 314 312 312 313 314 314 318 320 321 321 321 319 318 322 323 323 323 324 325 325 326 325 324 324 322 323 324
318 319 318 317 318 318 317 318 318 317 317 315 317 316 315 315 315 314 312 312 313 313 314 317 320 321 321 319 321 317 320 322 323 324 324 325 326 325 325 324 324 324 325 323
319 320 319 319 319 319 318 319 318 318 318 315 315 315 315 315 315 316 312 312 312 313 314 315 317 319 320 318 318 320 315 316 317 325 325 325 326 326 326 321 325 327 324 325
319 319 320 319 320 319 320 318 319 318 318 318 315 317 315 316 316 318 312 311 312 312 313 314 315 315 321 321 318 317 317 317 317 325 326 326 326 326 326 326 326 326 327 327
322 319 320 320 320 318 320 319 318 318 317 316 317 315 315 319 320 317 315 312 311 311 313 314 314 316 321 322 320 320 320 319 319 326 325 325 325 326 327 326 326 325 326 326
321 318 318 320 319 318 319 318 315 315 314 316 315 316 315 316 319 318 317 312 312 311 312 314 316 316 318 323 321 320 324 319 322 325 323 320 321 321 325 327 326 323 324 325
319 319 319 319 320 316 316 314 317 317 317 320 317 317 316 317 317 318 319 314 312 312 312 314 313 314 316 322 321 321 324 320 321 324 325 322 321 322 324 326 328 327 328 327
321 322 319 318 319 319 314 314 316 318 316 315 318 321 320 318 320 320 319 315 312 312 313 314 313 315 317 319 324 323 322 321 318 322 325 320 320 321 321 325 329 329 328 328
320 321 319 318 318 318 317 315 314 315 317 319 318 320 322 325 324 321 316 314 313 313 312 314 314 315 317 318 322 324 324 321 319 319 321 320 319 319 319 319 325 328 327 328
318 321 319 319 317 316 317 315 317 313 319 320 318 322 325 322 325 323 319 314 313 312 312 313 314 315 317 319 319 322 324 320 319 319 319 319 319 318 318 319 320 325 324 323
316 319 320 319 321 319 318 319 318 313 314 317 318 321 320 325 327 327 321 314 313 313 313 313 314 316 317 317 319 320 324 320 320 318 319 319 318 317 318 320 319 321 321 321
316 317 319 325 322 322 318 318 320 319 319 319 318 321 321 326 327 327 323 315 312 313 314 313 314 315 316 316 318 320 324 319 317 317 318 318 319 317 316 320 319 320 320 319
316 316 318 318 329 326 326 325 320 321 321 327 327 322 322 326 326 325 322 314 313 313 313 312 312 313 315 316 319 320 323 318 315 314 316 316 318 318 316 319 319 320 320 319
319 315 318 321 319 327 328 330 326 323 325 324 327 326 325 327 328 325 319 314 313 313 314 313 313 312 315 317 319 321 322 318 317 317 318 317 315 317 317 317 319 319 320 319
315 317 317 317 317 324 322 326 328 325 323 325 324 327 325 325 327 325 318 313 313 313 314 314 314 313 314 317 318 321 322 320 318 318 318 318 315 315 316 317 318 319 319 319
317 318 316 318 318 319 321 322 327 326 324 327 324 325 324 326 328 327 319 315 314 314 315 315 315 314 314 316 318 320 321 319 319 319 318 318 315 315 315 316 317 318 318 319
317 322 321 321 325 324 324 321 327 326 325 324 327 324 324 329 329 327 324 316 315 315 315 315 315 315 316 317 318 319 320 319 320 319 319 318 314 315 315 315 315 317 317 318
318 322 324 331 330 330 325 324 325 327 326 323 324 323 324 323 323 325 322 317 316 315 315 315 315 316 316 317 319 320 319 319 319 319 319 318 313 314 315 315 313 314 316 316
319 323 327 331 325 328 329 327 326 327 327 324 324 323 323 323 325 324 324 321 319 316 315 315 316 316 316 317 319 319 318 318 316 317 319 319 314 314 315 315 314 312 313 313
322 322 325 321 330 333 326 326 325 324 328 324 324 322 323 323 327 326 323 322 320 319 316 315 316 316 316 317 318 318 317 316 316 317 320 319 317 312 314 315 314 313 311 311
324 323 328 321 321 324 322 325 323 330 327 323 324 323 322 325 325 323 322 323 321 320 317 315 316 316 316 317 318 317 315 315 317 316 319 319 319 314 312 315 314 314 313 312
326 324 324 319 324 328 322 325 329 325 322 323 323 322 323 324 322 322 321 322 322 320 318 315 315 316 316 317 317 316 314 318 317 316 318 319 319 316 313 313 314 314 313 312
326 323 325 323 324 320 324 324 322 319 322 323 321 320 322 323 322 321 321 321 320 319 317 315 315 316 316 316 317 317 316 317 317 316 317 319 319 318 315 313 313 314 313 312
323 320 323 323 322 322 323 322 321 320 322 324 322 322 321 322 322 323 322 321 320 319 318 316 315 316 316 316 317 317 317 317 317 317 318 318 319 319 318 316 312 313 313 313
321 321 321 321 321 320 321 322 321 322 322 324 323 322 323 323 324 323 323 322 321 319 321 317 315 316 316 316 316 317 317 317 316 317 318 319 319 320 319 318 316 312 312 314
320 321 324 323 318 321 321 321 320 322 324 324 324 325 324 323 323 324 322 321 321 321 320 319 317 316 316 316 317 317 317 317 317 317 318 318 319 320 320 319 319 317 314 315

GFSCGP_925_thetae_003.txt.gz
Theta_e
322 324 325 325 323 323 323 324 324 322 321 321 322 322 322 321 319 320 319 318 319 319 319 321 323 322 322 322 322 319 322 322 321 325 325 325 327 325 325 323 321 322 323 324
322 326 325 323 322 321 322 323 323 322 321 321 323 322 322 321 321 321 321 319 319 320 320 321 322 323 323 321 319 322 318 318 316 324 325 324 325 325 324 323 324 323 323 324
326 325 321 322 322 322 322 324 324 324 321 320 320 322 322 322 319 319 320 320 319 320 321 323 323 323 322 321 320 322 317 316 316 324 326 326 327 326 325 325 325 326 325 326
324 321 322 322 323 323 325 322 323 323 323 324 321 325 323 323 323 321 321 319 319 319 321 322 322 322 323 322 319 318 319 318 320 325 327 328 328 328 326 325 326 327 326 326
325 322 323 323 324 322 324 322 323 323 324 322 322 322 321 321 324 324 325 321 319 319 320 322 322 320 322 323 323 321 323 319 324 325 324 326 326 327 326 327 326 327 327 327
325 321 323 323 323 322 323 322 320 320 321 324 323 322 321 322 324 324 325 323 319 319 320 322 320 319 321 323 323 322 325 319 324 325 323 323 323 325 328 328 327 326 324 325
323 323 321 322 324 321 322 324 326 327 327 324 321 322 323 324 324 323 324 324 320 319 320 322 321 319 320 322 323 324 326 322 321 324 326 323 321 324 326 328 328 327 326 325
325 325 322 321 324 324 324 325 325 327 324 324 321 323 322 325 324 326 325 324 320 319 320 322 321 319 320 321 324 324 325 323 319 322 325 320 320 322 324 328 328 328 327 326
325 323 320 321 322 323 321 323 323 324 322 323 323 324 325 327 328 328 325 321 320 319 320 322 321 320 320 321 324 325 325 323 319 319 321 320 319 319 319 325 327 327 327 328
323 324 322 322 321 320 323 321 323 321 325 327 323 325 325 325 325 329 326 323 321 320 320 321 321 320 320 322 322 325 326 323 321 318 319 320 318 318 318 319 325 324 323 322
323 323 323 321 323 323 321 323 322 322 322 325 327 325 327 329 331 335 330 325 321 320 320 321 321 320 320 321 321 323 327 322 321 319 318 318 317 317 319 318 320 320 319 320
322 325 326 323 322 323 323 323 324 324 326 324 325 325 325 330 333 334 331 324 321 321 320 321 321 320 320 320 321 322 326 323 321 320 319 318 318 316 319 318 320 318 318 320
323 328 327 324 330 328 323 323 324 326 326 327 326 326 327 331 332 331 330 324 320 321 320 320 321 320 320 320 320 322 325 323 318 318 319 317 318 316 318 318 319 319 317 316
324 327 326 326 324 326 329 326 324 326 326 325 325 325 328 331 332 330 330 324 322 321 321 321 321 320 320 319 320 322 324 321 317 317 319 317 317 316 316 318 318 319 318 317
325 326 324 323 323 325 325 326 328 327 325 326 326 328 327 330 332 332 329 324 321 321 321 321 321 321 320 320 321 322 324 321 318 318 320 319 315 316 317 317 318 319 319 318
321 327 324 323 322 322 323 323 325 327 326 327 325 328 329 329 332 331 326 322 322 322 321 321 321 321 320 320 320 322 323 322 319 319 320 320 315 315 316 317 317 318 318 319
325 327 325 325 322 322 325 323 323 326 326 326 327 327 329 332 333 333 328 324 324 323 322 321 321 321 320 320 321 322 323 322 320 320 320 319 316 316 316 316 316 317 318 319
329 331 328 329 327 330 327 324 322 324 326 327 326 327 330 330 332 333 330 327 326 324 322 322 321 321 320 320 321 321 322 321 321 321 320 319 316 316 317 315 315 316 317 318
318 327 339 340 334 327 330 329 324 325 327 329 328 328 328 328 330 330 329 329 328 325 324 323 320 320 320 320 320 321 321 321 321 321 320 319 316 316 317 317 314 314 315 316
323 325 326 337 336 331 327 331 327 327 330 330 329 330 329 329 330 329 331 329 328 326 323 322 320 320 320 320 320 321 321 321 321 320 320 319 316 316 317 317 314 313 313 314
323 327 325 326 335 332 328 330 327 333 330 332 330 331 330 330 332 332 330 330 330 328 322 322 320 320 321 320 320 321 321 321 321 319 320 320 317 316 317 315 315 313 312 312
319 323 324 329 327 327 325 329 332 335 331 331 331 331 331 333 331 329 329 329 329 328 324 321 320 321 320 320 320 321 321 321 321 320 320 321 319 315 315 315 314 314 313 313
323 319 322 323 322 329 329 332 333 333 332 328 331 330 329 330 329 328 329 327 327 329 326 321 320 321 320 320 320 321 321 321 320 321 321 321 321 318 315 316 316 316 315 315
314 322 325 324 323 326 327 328 329 325 327 327 328 328 328 329 328 328 328 327 328 328 326 322 321 321 321 320 320 321 320 320 319 321 322 322 322 320 317 315 316 316 316 315
312 318 324 325 325 325 325 328 327 325 326 327 326 327 328 328 328 328 329 329 328 328 326 322 321 321 321 320 320 320 320 319 320 321 322 322 321 320 320 317 315 315 316 316
319 317 322 325 324 327 328 327 326 327 327 327 328 328 328 328 329 330 330 329 329 328 326 324 321 321 321 320 320 320 320 319 320 321 322 322 321 321 320 319 317 314 313 312

GFSCGP_925_thetae_006.txt.gz
Theta_e
326 326 328 327 328 328 326 326 327 327 326 325 327 327 325 325 324 325 326 326 324 324 323 323 324 323 321 323 325 326 325 326 325 328 329 329 329 328 328 323 323 324 326 327
327 327 327 327 327 327 327 328 328 327 326 325 326 325 325 325 324 325 326 327 325 325 324 324 324 323 322 321 323 326 325 324 324 328 330 329 329 328 323 325 325 324 323 327
327 326 327 327 327 328 327 328 328 328 327 325 325 325 326 325 324 325 326 326 326 325 325 325 325 324 321 321 323 324 325 325 327 331 331 331 331 328 330 327 326 326 326 326
326 326 327 327 328 327 328 326 326 326 327 326 326 328 325 325 324 325 327 326 326 325 325 326 325 324 321 321 322 324 326 328 329 330 328 330 331 330 329 331 329 326 326 325
326 327 327 327 326 325 326 325 326 326 326 327 326 327 325 323 324 323 323 328 327 326 325 326 326 323 320 321 323 325 327 327 330 330 328 328 330 332 331 330 330 329 330 329
325 325 326 326 324 324 324 325 326 326 326 328 326 325 323 322 323 323 324 328 328 325 325 325 324 322 320 322 322 324 327 325 329 330 329 328 328 329 328 329 328 328 329 330
325 326 326 325 324 324 325 326 329 330 329 328 326 323 323 323 323 324 325 326 328 325 325 325 325 323 320 322 323 325 325 324 324 327 328 327 328 329 329 329 327 328 326 329
325 326 326 325 323 325 325 327 327 329 329 328 325 325 323 323 325 328 329 330 329 326 325 325 325 323 320 322 324 325 324 323 323 325 326 326 326 326 327 331 327 324 328 326
326 326 325 325 324 324 326 327 326 327 327 327 325 325 325 324 326 328 330 329 328 326 325 325 325 323 320 321 324 325 325 322 322 323 325 325 325 325 327 331 331 330 328 328
325 327 324 325 324 324 325 325 326 327 329 330 326 326 324 324 326 333 332 331 328 326 325 326 326 323 320 321 324 326 326 321 323 322 323 322 323 324 326 328 328 328 327 326
324 326 326 324 326 325 325 326 326 326 326 328 329 327 326 325 329 331 334 331 329 327 326 326 326 323 320 322 323 326 327 323 321 321 322 323 322 323 324 325 326 327 325 327
324 325 328 325 324 324 325 325 327 328 329 327 327 327 325 327 330 334 336 332 329 327 326 326 326 322 321 322 323 325 326 323 319 319 321 322 321 323 323 324 326 327 328 327
324 324 326 324 327 326 324 324 325 327 328 328 328 327 327 329 332 335 336 332 328 328 326 326 326 323 321 322 322 323 326 323 318 318 319 321 321 322 323 323 325 323 325 327
326 325 326 327 327 325 327 324 325 327 330 328 328 327 326 327 330 334 335 332 329 328 327 327 327 323 321 321 321 323 324 322 317 318 317 319 322 321 323 324 324 323 321 323
327 328 324 323 323 325 325 324 325 326 327 328 326 326 326 327 328 330 335 332 329 327 327 327 327 324 321 321 321 322 323 321 318 318 318 318 321 320 321 322 324 324 322 321
328 326 324 325 322 322 324 324 325 325 326 326 326 326 327 326 327 332 334 332 330 328 327 327 327 324 322 322 322 322 323 321 319 319 320 318 317 319 320 322 324 323 323 321
326 326 326 326 322 322 326 324 325 326 326 326 327 326 326 326 329 332 334 332 331 330 328 328 327 326 322 321 322 322 323 322 320 320 320 318 316 318 320 320 321 324 324 324
329 328 327 326 324 326 324 323 323 324 324 325 325 325 325 326 329 330 332 333 332 331 329 328 328 325 322 321 322 322 323 322 320 320 320 319 316 316 319 320 321 324 326 325
327 330 326 329 331 324 326 326 324 324 325 324 325 325 325 326 328 329 331 332 333 333 331 329 326 326 323 321 322 322 322 322 320 320 320 320 316 316 318 319 321 323 324 325
322 329 328 329 335 329 326 326 326 326 326 325 326 327 326 327 331 328 333 333 332 333 331 330 327 326 325 322 322 323 323 322 321 320 320 319 317 316 317 318 321 322 322 321
322 325 330 331 335 328 328 327 329 330 327 328 328 329 329 330 331 328 330 333 332 333 331 330 328 327 327 324 322 323 323 322 321 320 319 320 318 316 318 320 320 320 320 318
323 325 325 329 330 329 329 331 329 328 336 330 332 332 332 333 332 332 333 333 333 334 331 329 329 328 327 325 323 323 323 322 322 320 319 320 320 316 318 321 321 320 318 318
321 322 324 324 326 332 331 329 332 330 329 330 333 333 333 334 333 332 332 333 333 332 332 328 329 328 327 326 324 324 323 322 322 321 319 321 321 318 318 321 320 319 319 316
318 319 322 323 324 326 326 329 331 332 331 330 332 333 333 334 333 332 332 332 332 331 333 329 329 329 328 327 326 325 324 322 321 322 321 321 322 319 317 319 320 318 318 317
316 316 318 320 322 322 322 323 327 331 332 330 330 331 331 331 331 331 331 331 331 331 330 330 329 329 328 327 327 326 324 323 322 322 323 322 322 321 319 317 318 317 318 317
318 317 316 318 319 322 322 323 322 330 330 330 329 330 330 330 330 330 331 331 332 331 330 331 329 329 328 327 327 326 325 323 324 325 324 324 322 322 320 318 317 317 317 317

GFSCGP_925_thetae_009.txt.gz
Theta_e
322 326 327 327 328 328 329 330 329 329 329 329 329 329 329 329 328 327 326 326 328 328 326 325 326 326 324 323 328 329 328 329 328 330 331 331 331 329 329 329 325 327 327 328
326 328 326 327 327 328 329 330 329 329 329 330 330 330 329 327 326 327 326 326 328 329 327 326 327 326 324 324 326 328 328 329 330 332 333 332 331 330 329 330 329 329 328 328
326 327 326 326 327 329 329 329 329 329 329 330 329 329 327 327 327 326 326 327 328 329 328 328 328 327 325 323 326 327 328 331 333 333 333 333 333 332 333 331 330 330 329 329
325 326 327 326 328 328 330 328 328 328 329 330 328 329 328 327 326 326 326 327 328 329 329 328 329 328 325 323 326 327 329 332 333 332 331 333 334 334 333 333 331 330 330 330
323 325 327 327 327 328 328 327 327 328 329 329 328 329 328 327 326 325 325 326 328 330 329 329 329 327 324 322 326 328 329 331 333 332 331 331 333 333 334 332 330 330 330 330
322 325 326 327 327 328 327 327 326 327 328 330 328 329 328 326 325 324 325 326 330 330 329 329 327 326 324 322 326 327 329 329 332 332 331 332 332 332 331 328 328 329 329 330
322 324 326 327 328 327 325 326 328 331 332 331 328 328 328 325 324 324 326 327 331 330 329 329 329 327 324 323 325 328 327 327 328 331 330 331 331 332 332 332 328 329 329 329
324 325 326 327 328 327 325 326 328 331 332 331 329 329 328 325 324 325 326 330 332 330 329 329 329 326 324 324 324 326 326 326 327 328 330 329 330 332 331 327 326 327 329 331
325 326 325 327 327 326 326 327 326 329 328 329 329 329 327 324 325 327 329 332 333 331 329 329 328 326 323 323 324 326 326 325 326 326 329 328 329 331 334 333 328 329 331 330
326 327 326 326 326 326 326 326 328 328 331 333 330 329 327 326 326 332 333 334 332 330 329 329 328 327 322 323 325 326 326 324 324 325 326 326 327 330 330 329 330 331 328 331
324 328 327 327 328 326 325 326 328 329 328 330 332 329 328 327 327 330 334 334 331 330 329 328 328 326 322 322 325 326 326 322 323 324 325 324 325 328 328 329 330 329 330 328
325 328 330 328 327 327 326 325 328 329 331 329 330 330 327 326 326 330 333 334 330 329 328 328 328 326 322 323 324 326 326 322 321 322 323 323 324 326 328 329 330 331 331 328
327 328 332 330 328 327 327 325 326 329 331 331 330 330 327 328 328 329 332 333 330 329 329 329 328 326 322 323 324 325 326 323 320 320 323 323 323 325 326 327 326 331 331 331
329 330 330 331 331 327 327 325 326 328 332 330 330 329 329 328 328 331 331 333 331 329 329 329 328 326 322 323 323 324 325 323 320 319 320 323 322 323 326 326 324 326 328 330
331 333 328 327 326 326 327 326 325 327 328 330 330 329 329 328 328 329 332 333 332 330 329 329 329 326 322 324 323 323 325 323 318 319 319 322 322 322 326 326 325 323 322 324
332 333 328 327 325 326 327 327 326 325 326 327 328 329 328 327 327 329 333 333 333 331 329 329 329 326 323 323 323 323 324 322 319 319 319 320 321 321 322 325 325 324 323 321
328 330 331 328 325 324 327 327 326 326 324 326 328 328 328 327 327 328 331 332 333 332 330 330 330 328 323 323 323 323 324 322 320 320 320 318 321 321 321 322 322 323 323 323
333 334 328 330 327 329 325 325 325 326 326 326 327 327 328 327 327 328 328 332 332 332 330 330 330 328 323 322 323 324 324 322 321 321 321 318 318 321 321 321 322 324 326 323
331 335 328 331 331 326 325 324 325 325 326 327 327 327 327 327 327 328 327 332 332 333 332 330 329 328 324 323 323 324 324 323 321 321 321 319 316 319 321 322 324 326 327 326
326 333 334 329 331 328 326 325 325 326 327 327 326 327 327 327 327 328 329 330 332 332 332 330 329 329 326 324 323 324 324 323 322 321 321 320 317 318 320 322 325 326 327 327
328 331 332 327 331 326 325 327 326 328 328 330 327 327 328 328 327 328 329 330 332 332 333 331 329 331 329 326 325 324 324 324 322 321 321 321 318 318 319 322 324 324 324 323
324 331 330 329 327 328 327 327 328 329 329 329 327 327 328 328 328 328 331 333 333 332 333 332 330 330 330 327 325 325 325 324 323 321 321 321 320 318 320 321 323 323 322 322
326 325 328 328 327 329 328 328 332 330 330 330 331 329 328 329 330 329 331 332 333 333 333 332 332 331 331 329 326 327 326 324 323 322 321 321 321 319 320 323 323 322 321 320
323 324 327 329 331 330 329 329 330 329 329 329 329 331 331 331 331 331 333 333 333 333 334 332 332 332 332 331 328 327 326 324 323 323 321 322 322 319 321 322 323 320 320 319
322 322 324 326 325 327 327 328 330 329 329 332 332 331 330 331 332 332 332 332 333 334 333 332 332 333 332 332 330 328 327 325 324 325 323 323 323 320 321 321 321 319 319 319
317 321 322 326 325 325 325 325 325 329 330 330 330 329 330 330 330 331 331 332 333 333 332 333 332 331 332 332 331 329 328 326 326 327 325 323 323 322 320 321 320 319 319 318

GFSCGP_925_thetae_012.txt.gz
Theta_e
319 325 326 327 328 325 327 327 329 331 330 330 331 333 330 330 330 331 331 331 332 332 331 328 327 328 326 325 326 331 329 330 330 331 331 332 329 330 330 329 329 327 327 328
319 325 323 325 326 325 326 328 329 329 329 328 329 330 330 330 331 330 329 330 332 333 331 330 329 329 326 326 326 330 329 330 332 333 333 334 333 332 330 331 329 329 328 328
319 319 322 324 327 326 327 329 330 329 329 328 329 331 331 330 330 329 329 328 329 333 331 331 331 330 327 326 325 329 329 332 334 334 332 333 334 331 332 331 330 329 328 328
318 319 321 326 326 326 329 328 328 329 329 329 328 333 333 330 330 328 326 329 330 333 332 331 332 331 329 326 326 328 331 333 334 332 333 331 332 334 332 329 330 329 330 329
318 320 320 327 327 327 328 328 328 329 330 330 328 330 329 330 331 328 326 326 331 333 332 331 332 331 329 325 327 328 331 333 334 333 333 333 332 331 330 327 330 329 327 330
319 320 323 324 327 327 327 328 328 328 328 332 329 330 330 330 327 326 325 327 331 332 332 332 331 330 328 324 328 329 330 331 333 333 332 331 332 332 331 327 329 329 330 329
320 320 322 324 326 327 327 332 330 333 330 331 328 330 331 331 327 325 325 328 333 333 332 332 332 331 327 324 328 329 329 329 330 332 331 332 331 331 331 326 327 330 330 330
323 321 321 324 326 327 329 331 331 331 332 330 331 331 329 327 326 325 325 329 334 333 332 332 331 330 327 325 327 328 328 328 329 330 331 331 331 331 328 327 328 330 329 330
324 322 323 323 326 327 329 330 328 329 328 330 330 332 330 328 325 325 327 333 336 334 333 332 331 329 327 326 325 327 327 327 328 329 330 330 331 331 332 329 329 330 331 330
325 327 324 323 326 327 330 328 328 328 332 334 329 330 329 329 326 329 334 335 337 334 332 332 331 329 326 326 326 327 327 326 326 327 328 328 331 331 329 331 332 329 331 330
326 330 327 326 328 328 328 329 328 330 328 332 334 331 335 332 331 337 335 336 336 333 331 331 330 329 325 325 326 327 327 325 325 325 326 326 329 329 330 331 330 329 330 331
325 328 331 327 326 327 328 329 330 331 334 330 332 331 332 332 330 330 336 336 333 332 331 330 330 329 324 325 327 327 327 323 324 324 325 325 328 329 330 331 331 330 326 330
326 329 334 331 330 329 329 329 329 334 335 336 330 331 332 330 328 330 335 335 332 332 330 330 329 329 324 325 326 327 328 324 322 323 324 324 327 328 329 327 332 331 328 328
329 329 330 334 332 331 332 329 327 329 335 330 330 330 332 330 328 329 333 335 332 332 331 330 330 329 324 324 325 326 327 324 321 321 324 323 326 327 327 326 330 330 331 330
332 329 331 329 328 328 328 328 327 329 330 331 331 330 331 332 330 330 334 335 333 331 331 331 331 329 324 326 325 325 326 324 321 321 323 323 324 327 327 326 325 328 330 330
334 330 329 327 326 328 328 328 327 327 326 327 329 331 330 331 331 331 334 334 333 332 331 331 331 329 325 326 325 325 326 323 320 320 322 324 323 325 327 327 324 322 323 325
334 332 332 331 328 327 331 329 329 328 327 329 329 331 330 330 329 330 336 335 334 333 332 331 332 330 325 326 325 326 326 322 320 321 321 323 322 323 326 327 325 325 324 324
332 336 332 330 332 333 328 328 327 329 328 328 328 329 330 331 330 328 332 334 334 334 333 332 332 331 326 325 325 325 326 323 321 322 320 321 322 322 323 324 325 324 325 325
331 336 332 333 332 329 326 327 328 330 331 330 327 327 327 329 329 331 329 331 335 335 334 333 331 331 326 325 325 326 326 324 321 322 321 319 321 323 322 324 325 326 326 326
328 333 330 333 333 333 330 326 326 327 331 330 330 330 330 330 329 329 332 329 335 335 335 333 332 331 327 326 325 326 326 325 323 322 322 319 318 323 323 324 327 328 329 327
329 332 331 333 336 329 328 326 327 330 329 331 331 332 333 333 331 338 335 332 336 335 335 332 332 331 328 326 326 327 326 326 324 322 322 321 318 320 323 326 328 328 329 328
328 331 333 332 334 330 326 326 329 335 338 335 333 333 333 334 334 334 333 334 335 335 334 333 333 333 329 327 327 328 327 326 324 323 322 322 319 320 322 326 328 328 327 328
327 329 330 330 332 336 334 335 337 336 336 331 334 332 332 332 331 330 334 336 335 335 335 333 334 334 331 328 327 327 328 327 325 323 323 323 320 319 322 326 327 327 325 326
324 324 328 332 332 329 329 331 333 332 333 332 333 332 331 331 331 331 331 336 336 335 336 334 333 335 334 330 328 327 327 327 325 325 324 324 322 320 323 324 326 325 325 324
320 324 326 327 330 331 328 330 330 331 332 332 331 331 332 332 332 332 332 334 333 334 335 334 335 335 335 332 330 328 328 326 326 325 325 325 324 320 325 324 326 324 323 321
316 320 324 329 324 331 330 330 328 332 333 332 333 332 333 333 333 333 334 334 334 335 335 335 335 336 335 334 332 330 329 327 327 327 326 326 325 321 324 324 324 323 323 320

GFSCGP_925_thetae_015.txt.gz
Theta_e
318 316 317 321 320 323 322 324 325 327 327 327 330 330 329 328 327 327 325 325 327 326 325 327 328 327 325 325 326 329 330 329 330 332 331 333 332 330 330 330 329 328 327 326
314 314 315 321 322 322 326 324 324 325 326 330 329 330 328 329 327 326 326 325 325 327 326 327 328 326 325 325 325 330 330 330 332 334 332 334 331 331 331 330 330 329 328 327
314 315 316 321 323 324 325 326 325 325 326 327 327 327 328 329 327 327 326 325 326 327 327 327 328 326 325 325 325 329 330 331 334 331 332 331 330 330 330 329 328 329 328 327
314 314 317 318 322 323 324 326 325 326 327 328 328 327 328 327 326 326 326 324 327 326 327 327 328 327 326 327 324 329 330 332 333 331 333 332 331 331 330 328 329 329 329 329
316 314 316 317 320 321 323 326 325 326 327 327 327 326 326 327 327 326 325 323 327 327 327 328 328 328 326 325 325 328 331 333 333 332 332 331 331 331 328 327 329 328 327 329
317 317 316 316 318 321 324 325 326 326 327 328 328 327 327 327 328 324 325 327 328 327 326 328 329 329 328 326 327 329 330 333 333 332 332 331 329 329 328 328 329 329 329 329
318 317 317 317 318 319 325 324 326 328 327 327 326 326 325 326 327 323 327 329 327 327 327 328 328 326 326 327 327 329 330 330 330 331 331 330 329 327 326 327 329 330 330 330
318 319 318 318 318 321 321 325 326 330 331 328 327 327 327 327 326 324 328 328 328 327 327 327 327 325 324 326 328 329 329 328 329 331 331 331 329 329 327 328 331 329 330 330
317 318 320 319 319 319 323 326 324 326 328 326 326 330 328 325 323 323 330 330 327 327 327 327 326 325 325 327 327 327 329 327 329 330 329 331 331 330 330 330 330 330 329 330
319 320 320 319 319 320 321 325 327 325 327 328 328 329 332 327 324 329 333 330 329 327 327 327 326 324 325 325 325 328 328 327 327 329 329 329 330 330 331 330 329 329 328 329
318 322 324 320 319 319 320 324 325 322 322 326 328 329 327 324 328 331 332 331 329 327 327 326 324 325 325 325 325 328 326 326 326 327 327 329 329 330 330 329 327 330 330 329
317 322 322 325 321 320 322 324 324 325 328 325 326 330 326 329 331 331 333 331 328 325 325 325 324 323 325 326 326 327 326 326 324 326 325 328 329 330 330 330 328 326 330 330
318 319 324 326 323 322 323 325 325 325 325 328 330 329 327 327 329 333 331 330 328 325 324 324 325 321 322 326 326 326 327 325 324 325 324 327 329 329 328 330 327 327 330 331
322 318 319 326 326 324 324 327 325 326 327 327 330 327 330 327 328 330 331 329 327 326 326 324 325 320 322 324 326 327 327 322 323 324 323 327 326 327 327 330 330 328 327 329
322 319 323 321 324 325 326 327 326 326 328 328 327 328 327 326 326 329 330 328 327 326 326 325 324 320 321 323 326 327 327 323 322 324 323 325 325 327 327 329 330 329 329 329
317 322 320 322 324 323 326 327 326 326 325 327 326 326 326 328 325 328 330 329 328 327 327 327 325 321 321 323 325 326 326 321 321 323 323 324 324 328 328 323 327 328 329 329
317 329 322 322 322 324 324 327 326 326 325 324 325 325 327 329 326 326 330 329 328 327 327 327 326 322 322 323 325 326 326 321 321 323 323 322 323 327 326 324 322 325 325 323
316 321 327 323 322 324 325 325 327 326 326 324 324 324 326 326 327 327 330 329 328 328 327 327 326 322 323 324 324 325 325 320 320 322 323 322 322 326 326 326 325 328 324 323
316 320 330 326 324 326 327 327 327 327 326 325 323 325 325 324 326 328 330 330 329 328 327 327 327 324 324 324 324 326 322 320 319 321 322 322 321 323 325 326 324 326 326 323
320 322 328 328 325 324 325 326 325 326 327 325 325 324 324 324 326 323 325 329 329 328 327 327 328 325 324 324 325 325 323 320 320 321 320 321 321 321 322 325 324 324 326 325
325 327 330 329 328 325 324 327 325 325 324 326 324 324 325 324 324 324 325 329 330 329 328 329 328 324 324 324 325 324 325 321 321 321 320 319 321 322 321 325 324 325 325 327
328 330 330 325 331 326 325 324 324 323 329 326 326 326 326 326 327 328 330 330 330 330 329 330 328 325 325 325 325 324 325 324 322 321 322 319 319 322 322 326 327 326 329 327
330 327 329 329 325 327 327 327 329 327 325 327 327 328 327 329 328 327 326 330 330 330 329 330 328 326 326 325 324 325 325 326 323 322 322 319 318 322 323 326 327 327 328 329
320 317 326 326 326 324 326 326 328 327 327 328 329 328 326 326 325 326 329 330 330 330 330 330 329 327 326 326 325 325 326 326 324 324 323 321 319 322 324 325 326 327 326 326
317 316 325 326 322 322 322 323 326 330 328 329 328 328 327 326 325 325 330 331 330 331 330 330 331 329 327 326 326 326 326 326 325 324 324 321 319 320 324 325 326 326 324 323
316 318 321 324 317 320 318 316 328 329 328 329 327 328 327 326 326 325 326 330 329 330 331 331 332 331 329 327 327 326 326 326 326 325 324 321 319 322 323 325 326 325 324 324

GFSCGP_925_thetae_018.txt.gz
Theta_e
314 319 318 321 318 319 321 321 321 322 323 324 324 325 326 326 324 322 321 322 323 323 324 326 324 324 326 327 327 327 329 328 329 330 331 332 332 331 330 330 329 328 327 324
313 315 316 315 316 317 318 320 322 322 322 322 323 326 326 325 325 323 323 323 323 325 326 326 324 324 326 326 327 330 329 329 331 334 331 332 332 331 331 330 329 329 328 327
313 315 318 317 316 320 320 320 321 325 324 323 323 325 326 326 326 325 324 322 324 326 326 326 324 323 325 326 327 330 329 330 333 331 331 331 330 330 330 329 328 328 329 327
313 314 316 317 315 315 321 322 322 324 326 326 324 327 323 324 324 324 322 322 324 324 325 326 323 322 323 324 328 328 329 331 333 331 331 331 330 330 330 328 328 328 328 327
313 313 314 314 314 315 320 322 323 324 326 323 324 324 323 323 325 324 323 324 324 323 325 325 323 323 325 326 327 329 331 333 332 331 331 329 329 329 327 327 329 328 327 328
314 314 313 313 315 315 318 321 321 322 323 325 324 325 327 324 325 325 322 325 324 324 324 325 324 324 325 324 328 329 330 333 333 331 331 329 327 326 325 326 328 329 329 328
315 315 315 314 313 316 317 318 322 323 326 328 324 326 327 323 324 324 325 326 325 325 326 326 325 323 324 327 328 330 330 332 331 331 330 329 327 325 326 329 330 329 329 329
315 317 316 316 315 314 314 317 322 327 327 326 324 325 325 323 323 323 327 326 326 325 326 326 325 323 324 326 328 330 329 329 330 330 330 330 329 329 329 329 330 329 329 329
314 316 318 317 317 315 315 315 318 322 325 324 324 325 325 325 325 327 326 327 326 325 326 326 323 321 323 326 328 329 328 328 330 330 329 330 330 329 330 330 329 329 329 329
315 316 317 317 316 316 315 319 322 320 326 327 325 326 328 323 327 328 328 326 325 325 325 325 323 320 323 327 327 328 328 327 329 329 328 330 330 330 329 329 329 328 329 330
316 316 320 316 317 316 315 316 321 321 322 325 325 325 322 324 322 329 327 326 326 325 326 325 322 322 323 326 325 328 327 328 327 329 328 330 330 330 328 327 329 328 328 330
316 314 317 318 317 317 316 316 320 324 324 322 323 323 323 321 328 328 327 327 325 325 325 324 322 321 322 324 326 327 326 326 326 326 327 329 329 329 329 327 328 330 328 330
319 316 317 321 319 319 316 317 320 319 321 324 323 323 323 327 328 329 328 327 326 325 324 323 320 321 322 323 326 326 326 325 325 325 325 329 329 329 330 327 328 330 329 330
315 318 316 319 321 320 320 318 323 322 323 323 324 325 326 327 331 329 328 327 325 326 325 324 321 320 322 323 325 326 326 324 324 324 326 327 326 327 329 329 327 329 330 330
311 319 316 316 318 321 322 320 321 325 323 325 323 324 324 324 331 330 328 326 325 326 325 324 321 319 319 323 324 325 326 324 324 323 326 325 325 326 328 330 328 328 329 330
310 316 319 316 317 317 319 321 322 324 324 323 323 325 323 323 330 330 328 327 326 326 325 325 323 319 318 323 324 325 325 322 324 323 324 324 326 327 327 329 329 329 329 330
311 316 320 318 318 317 318 319 323 324 324 324 324 321 321 324 327 330 327 327 326 326 325 325 323 320 320 321 324 325 325 322 323 322 323 324 326 328 323 327 327 328 327 327
311 313 315 320 318 321 320 320 322 324 323 324 321 321 323 324 323 328 327 326 326 325 325 325 324 320 320 321 323 325 325 321 323 322 323 323 325 326 324 324 326 324 323 324
311 312 317 323 320 320 319 323 322 323 323 321 322 320 321 322 321 326 327 326 326 325 325 324 324 321 320 321 323 324 321 320 322 322 322 321 322 326 326 326 326 323 322 324
311 312 320 325 321 322 319 324 322 322 325 321 321 321 320 320 324 322 327 326 325 325 324 324 324 320 321 321 323 323 318 319 321 321 322 321 322 325 326 324 326 323 321 322
318 318 320 322 326 322 320 322 323 326 326 322 321 321 320 321 322 319 326 326 325 324 324 325 323 321 321 321 323 321 318 317 320 320 321 321 321 322 324 324 324 326 323 321
324 328 325 325 326 324 324 324 325 326 320 322 321 319 320 320 320 319 327 327 326 325 324 325 323 321 321 322 323 321 318 318 319 320 320 321 320 321 323 324 323 324 326 323
321 321 321 325 325 320 319 321 318 326 326 324 321 320 321 320 322 324 324 327 327 325 325 326 324 321 321 322 322 322 320 320 319 320 319 320 320 321 321 324 323 324 325 326
315 315 317 321 319 315 317 315 316 319 328 328 326 322 320 322 321 322 325 327 327 326 326 326 323 321 322 322 322 323 323 321 320 319 319 318 320 321 321 324 323 324 325 326
314 314 316 319 316 315 315 314 315 315 318 326 328 325 323 322 321 321 326 327 328 327 327 326 324 323 322 322 322 322 323 323 321 320 319 317 319 322 323 324 325 325 325 325
315 314 317 319 315 313 314 314 315 314 314 325 328 330 324 322 321 323 327 327 328 328 327 327 325 324 323 323 322 323 323 324 322 320 320 318 318 322 324 324 325 325 323 323

GFSCGP_925_thetae_021.txt.gz
Theta_e
311 313 320 318 319 319 319 320 321 321 321 321 321 321 322 322 321 322 321 320 321 320 319 321 321 322 326 327 328 328 327 328 328 329 330 331 331 331 330 330 330 329 328 327
312 313 316 321 320 320 318 318 319 320 321 320 320 321 321 321 321 322 323 321 322 325 324 322 321 324 326 327 327 327 328 328 330 332 330 331 331 329 329 330 330 329 329 328
311 313 315 320 320 320 319 317 318 319 320 322 322 324 323 323 322 322 322 321 321 323 325 322 322 324 326 326 327 328 328 329 332 330 330 330 329 329 329 329 327 328 329 328
309 311 314 315 319 315 316 317 318 319 320 321 322 325 322 322 322 322 320 319 319 323 324 323 322 321 324 326 328 328 329 331 331 330 331 329 328 328 329 327 328 327 328 328
311 311 312 315 315 315 317 318 320 321 323 323 324 323 322 321 323 322 320 320 321 322 324 323 321 321 324 326 328 328 330 332 331 331 330 327 327 327 326 327 328 328 327 328
311 312 312 313 316 317 315 317 319 319 320 324 322 323 323 322 323 323 322 324 322 322 323 320 321 322 323 326 328 329 331 332 331 331 330 327 325 325 325 327 328 328 329 328
313 312 312 313 313 313 313 312 316 319 321 325 321 323 324 322 322 322 322 323 322 323 323 322 322 321 322 325 328 329 330 332 331 330 329 329 326 326 327 329 329 328 329 328
314 314 314 313 312 312 313 315 319 323 325 325 322 326 325 322 322 321 321 322 323 324 323 323 322 321 321 326 328 329 330 330 330 330 329 329 329 329 329 329 329 329 329 328
314 314 315 315 314 313 312 315 315 319 322 323 323 323 323 323 324 323 325 325 324 325 324 323 321 321 322 325 328 329 328 328 329 330 329 329 329 329 329 329 328 329 329 329
314 313 315 315 315 313 312 312 315 315 323 325 324 324 325 324 325 327 327 325 324 324 324 323 322 320 323 325 327 328 328 327 329 329 328 329 329 330 328 327 328 327 329 329
314 314 317 315 315 315 312 314 314 313 317 323 324 324 320 322 324 326 325 324 324 325 325 324 322 320 323 325 326 328 327 326 329 328 328 329 329 328 327 326 329 327 329 329
313 312 315 315 315 315 314 313 313 319 320 319 321 323 321 320 320 325 324 324 323 323 324 323 320 318 322 324 324 326 327 327 327 328 327 329 329 328 327 326 329 328 329 329
314 316 316 314 317 315 315 314 314 313 318 321 324 324 319 322 321 325 323 324 324 323 322 320 318 318 320 322 323 326 326 327 326 325 327 329 329 329 327 327 329 329 329 329
311 316 318 316 317 317 316 315 315 315 316 319 322 322 325 326 326 327 325 324 324 324 324 322 320 319 320 321 324 325 325 325 325 324 327 328 327 327 329 327 328 329 329 329
309 312 318 319 316 315 319 316 316 318 318 320 321 321 322 325 325 327 325 323 324 324 324 323 321 319 319 320 323 324 325 324 324 323 326 325 326 328 329 327 328 329 329 330
308 310 315 321 318 316 316 318 316 317 318 320 321 321 320 322 326 327 326 325 326 325 325 324 321 319 319 320 322 324 324 323 324 323 325 324 325 326 329 328 329 329 329 330
310 311 310 319 318 316 316 316 317 318 320 321 322 321 319 323 328 328 326 326 326 326 325 324 322 320 320 321 322 323 325 323 323 323 324 324 326 327 327 328 328 328 328 328
310 310 311 314 318 317 316 315 316 318 320 320 320 319 321 322 327 327 326 326 325 325 325 324 322 319 319 322 322 323 324 322 323 322 324 324 326 326 325 327 326 325 324 327
309 309 311 319 319 317 318 320 316 317 319 321 321 319 321 321 323 326 326 325 325 324 324 323 323 320 318 321 322 323 322 322 322 321 323 323 326 323 323 324 324 322 323 327
313 308 311 320 321 318 319 320 319 319 321 319 319 319 320 321 325 323 324 325 324 323 323 323 323 320 318 319 322 322 320 321 321 321 322 322 326 324 325 325 324 322 324 326
313 312 314 316 320 323 320 319 322 322 323 326 320 318 317 322 323 321 324 325 323 322 321 323 322 319 319 319 321 320 318 320 321 321 321 321 324 326 325 325 323 321 323 323
316 320 316 317 324 325 319 320 323 320 320 325 323 317 317 319 317 318 324 324 323 321 321 322 321 319 319 320 321 319 318 321 320 321 321 320 321 325 325 325 323 321 320 322
316 315 317 320 326 316 315 314 314 314 315 323 326 326 316 318 317 318 324 324 323 322 323 323 321 319 319 320 321 319 319 319 319 320 320 320 320 322 324 323 325 324 321 320
313 314 317 316 322 318 314 313 312 314 313 314 323 327 322 317 317 319 324 324 324 323 323 323 321 319 319 320 321 321 319 318 318 319 319 320 320 321 322 323 323 325 324 322
311 313 314 315 317 315 314 312 312 314 313 313 318 327 326 317 318 320 323 325 324 323 323 323 321 320 320 320 321 321 320 318 317 318 318 318 319 320 320 322 323 323 324 324
313 313 315 316 316 314 314 312 312 313 313 313 315 327 326 322 318 320 323 325 325 324 324 323 322 321 320 321 321 321 321 319 317 317 316 316 318 319 321 322 323 323 323 322

GFSCGP_925_thetae_024.txt.gz
Theta_e
308 310 316 314 314 314 314 314 315 316 318 319 318 318 319 320 318 318 319 319 319 318 317 317 319 320 322 324 327 327 328 327 328 327 329 329 330 330 330 330 329 329 329 328
309 311 312 314 315 316 316 317 318 318 319 319 319 319 319 319 319 318 320 320 319 320 322 319 319 322 324 325 327 327 327 328 327 329 330 330 330 329 329 329 329 329 328 328
308 310 312 317 316 318 318 318 318 318 318 317 317 318 318 319 320 319 319 320 319 319 322 320 321 322 324 325 327 327 327 327 329 330 329 329 327 327 328 328 328 327 328 328
307 309 311 315 318 318 318 319 320 321 319 318 318 322 319 320 321 320 320 317 317 321 322 320 322 322 324 326 326 327 327 329 330 329 330 328 326 326 327 327 326 327 326 327
308 309 309 313 317 319 318 319 320 319 317 319 320 322 322 320 321 321 320 319 317 321 321 321 322 323 325 326 327 327 328 331 330 330 330 327 325 325 325 326 326 328 328 327
309 311 310 312 314 317 316 316 315 316 316 319 317 321 320 321 322 321 320 321 322 322 320 320 321 322 324 326 327 328 329 331 330 330 329 326 324 325 326 327 328 327 328 328
310 309 311 311 313 314 313 312 313 315 316 319 319 320 319 320 320 320 320 319 321 322 320 321 321 320 322 325 327 328 330 331 331 330 329 328 326 326 327 328 328 328 328 327
313 313 311 311 311 314 314 312 314 316 321 322 319 323 322 320 321 320 319 319 322 321 320 321 320 320 322 325 327 329 329 331 331 329 328 328 328 328 328 328 328 328 328 328
314 314 313 312 312 313 312 315 312 315 319 321 321 321 321 320 321 320 320 323 323 322 320 320 320 320 322 325 327 328 329 329 330 329 328 329 329 329 329 328 328 328 328 328
312 314 313 313 312 312 312 312 314 313 319 323 322 323 323 323 322 325 325 323 322 322 321 321 320 319 322 326 327 327 328 328 328 329 328 329 329 329 327 327 327 328 328 328
313 312 315 312 313 311 309 312 311 311 315 319 322 322 319 321 321 324 323 322 322 323 322 322 320 320 322 325 326 327 327 326 328 328 327 328 329 328 326 327 327 328 329 328
312 312 315 314 312 313 312 311 311 314 314 315 319 320 319 319 319 321 322 322 321 322 322 321 320 319 321 323 325 326 326 326 328 327 327 328 329 328 326 327 328 328 329 329
312 314 315 314 314 313 313 312 312 313 313 316 317 317 318 319 321 319 321 322 322 323 321 320 318 318 320 321 323 325 326 326 327 326 326 328 328 328 327 328 328 329 329 329
311 312 317 316 315 313 314 313 312 310 311 318 318 319 321 323 322 323 322 321 322 323 323 322 320 318 319 321 323 324 326 325 325 324 327 328 327 328 327 327 329 329 328 329
310 310 313 313 316 317 315 314 313 313 313 315 317 319 320 320 321 323 321 321 323 323 323 322 321 318 317 320 322 323 325 325 324 323 326 326 326 328 327 328 328 329 328 328
310 309 311 311 315 317 319 315 314 314 313 313 316 317 316 319 324 324 323 324 324 324 324 323 321 319 318 320 322 323 324 324 323 323 325 325 327 328 327 328 328 329 329 329
310 309 309 310 311 315 317 317 315 314 315 315 317 317 318 323 325 324 323 324 325 325 324 324 322 320 319 319 322 323 324 323 323 323 324 324 326 327 328 328 328 329 329 329
310 309 308 310 315 319 317 315 315 314 315 314 316 317 318 320 324 324 324 324 324 324 324 324 322 320 320 320 321 324 324 323 322 322 324 324 326 325 328 327 325 324 326 328
309 310 309 314 320 318 316 320 318 314 314 316 317 317 317 319 324 326 324 323 324 324 324 323 322 320 319 320 321 323 323 322 322 322 323 324 326 323 327 325 323 322 327 327
310 310 311 314 321 320 321 319 318 318 314 319 324 318 318 321 327 325 323 323 322 322 322 322 321 319 319 320 321 322 321 321 321 321 322 323 326 322 324 324 322 322 327 327
313 313 313 312 314 317 318 316 316 316 317 316 318 325 322 321 323 324 322 324 323 322 322 322 320 318 318 320 321 320 320 320 322 322 321 322 325 322 322 323 322 323 326 327
318 318 314 313 318 324 315 315 318 315 313 314 314 316 321 322 318 319 323 324 322 321 321 321 320 318 317 320 321 320 319 323 322 321 321 321 324 324 324 323 321 322 324 325
316 315 317 318 322 317 314 315 314 311 312 313 313 313 315 325 324 316 321 322 322 322 322 322 321 318 317 319 321 320 320 321 322 321 321 321 322 325 324 323 322 320 322 323
313 312 316 316 319 315 315 315 313 311 312 312 312 313 314 325 324 315 319 322 322 321 322 322 320 318 317 319 320 321 320 321 321 320 320 320 320 323 324 324 323 321 319 320
311 312 314 314 315 314 315 313 312 311 312 311 312 314 323 325 323 315 319 321 322 321 321 321 320 319 318 319 320 320 319 320 320 319 319 319 319 321 322 323 324 323 322 320
311 312 315 316 313 314 313 312 312 312 312 311 312 315 323 323 321 316 318 322 321 321 321 321 320 320 319 319 320 319 319 319 319 317 318 318 318 319 320 322 322 323 323 323

GFSCGP_925_thetae_027.txt.gz
Theta_e
310 311 316 315 314 316 319 319 321 318 318 318 321 322 323 323 323 323 324 325 326 328 327 322 322 323 325 325 327 327 328 329 328 329 330 330 331 332 332 331 330 330 331 330
310 312 314 316 315 314 314 316 317 318 318 320 322 322 322 322 322 322 324 325 326 328 327 325 323 325 326 327 328 329 330 328 328 327 330 331 332 332 330 330 329 330 330 330
312 313 312 313 316 316 316 316 317 319 321 320 321 322 322 322 323 322 323 326 327 327 328 327 325 326 327 328 328 330 330 327 327 327 330 329 328 328 330 330 330 329 327 329
311 312 312 312 315 317 318 317 317 318 319 324 321 326 323 322 321 323 325 327 327 326 327 327 327 327 327 328 329 330 329 328 330 330 330 331 330 330 329 329 328 329 327 328
310 310 311 313 314 316 317 317 318 318 321 322 322 323 322 323 322 323 322 326 327 325 328 328 328 327 328 328 329 329 329 331 331 330 331 330 329 329 328 328 329 329 329 327
312 311 311 312 313 316 317 319 320 321 322 325 324 323 323 321 321 321 323 326 328 328 327 327 327 327 328 328 328 329 331 332 331 331 329 328 328 328 329 330 331 330 328 328
312 311 311 311 312 316 319 320 322 323 324 328 321 321 322 321 321 323 325 328 329 329 328 328 328 329 329 328 329 330 332 332 332 332 330 329 328 328 330 330 330 330 330 329
315 314 312 312 312 316 319 321 323 325 323 322 320 320 319 322 323 322 325 326 328 329 328 328 329 329 328 329 329 330 331 332 332 331 331 330 329 330 330 330 330 330 330 330
316 316 314 312 313 314 318 319 319 320 322 322 321 323 324 325 326 326 325 326 329 330 328 328 328 328 328 329 330 331 331 332 332 331 331 330 330 331 331 330 330 331 330 330
314 317 315 313 313 315 317 318 317 319 318 318 322 326 323 327 328 328 328 329 330 329 328 328 328 327 328 329 330 330 331 331 332 331 330 331 331 330 329 330 329 331 330 330
313 316 316 314 313 314 315 318 318 318 318 317 319 322 329 328 329 330 331 330 330 329 328 328 327 326 328 328 329 329 330 329 330 330 330 330 331 330 328 330 329 331 331 330
313 318 318 316 314 314 314 317 318 317 319 318 321 321 324 328 327 329 330 329 329 329 328 327 327 326 327 328 328 329 329 328 329 330 329 331 331 329 329 330 330 331 331 330
314 318 319 318 316 316 315 315 317 318 320 318 318 321 323 324 326 326 330 329 329 329 328 328 327 327 327 327 327 328 328 328 329 328 329 331 330 329 330 331 331 331 331 330
312 314 319 318 317 318 316 315 315 317 318 317 317 317 322 323 326 328 328 329 330 330 329 328 328 328 327 327 326 327 328 328 328 327 329 330 330 330 329 331 331 331 330 330
312 314 313 314 314 316 319 316 315 316 317 318 317 317 321 321 325 329 328 329 330 330 329 328 328 328 328 327 326 327 327 327 327 327 329 329 329 330 330 330 331 331 330 330
312 315 313 316 315 316 318 319 316 315 316 317 318 321 319 322 326 328 329 329 330 330 330 329 328 328 328 327 326 326 327 327 326 327 328 327 329 330 330 330 331 331 330 328
312 313 315 317 314 317 319 319 319 317 316 317 318 319 319 322 325 329 330 330 331 331 330 329 329 328 327 326 326 326 327 326 326 326 327 327 329 329 329 329 330 331 330 330
312 312 313 315 319 320 319 321 319 319 317 317 317 318 319 320 321 326 329 330 331 331 330 330 329 328 327 326 326 326 326 326 325 325 325 326 328 329 329 329 327 327 329 329
311 312 315 316 321 320 323 323 322 321 321 322 325 318 319 321 324 325 328 329 331 332 331 330 328 328 327 325 325 326 326 326 325 325 325 326 327 329 328 327 325 326 329 330
311 311 315 316 319 320 324 321 318 321 324 319 320 323 328 329 321 322 327 330 329 330 330 330 328 327 326 326 325 326 325 326 325 325 325 325 327 327 327 326 324 327 329 329
313 314 315 317 318 319 320 319 318 325 323 317 318 319 322 328 324 329 326 331 330 330 330 328 327 327 327 326 325 326 325 326 325 325 324 324 327 326 327 325 324 328 328 328
316 317 315 316 318 323 317 320 321 317 316 316 317 318 319 320 321 323 326 326 330 330 329 327 327 326 326 325 325 326 325 325 325 324 324 324 327 324 325 325 324 327 328 329
318 318 319 318 319 318 316 317 317 315 315 316 316 317 318 321 323 324 328 327 329 329 330 327 327 326 325 325 325 326 326 325 325 324 324 324 326 325 326 325 324 326 327 328
314 313 317 317 317 316 314 314 313 314 315 315 315 316 318 322 328 330 331 329 327 329 329 327 327 326 325 325 325 326 325 324 324 325 325 324 325 326 326 325 324 323 325 325
311 312 315 315 315 315 315 313 313 313 313 314 315 317 320 324 327 328 328 328 326 328 328 327 328 328 326 325 325 326 325 324 324 325 324 323 323 325 326 326 324 323 323 323
312 314 316 316 313 313 313 312 311 314 315 315 315 317 320 324 328 328 328 325 325 328 327 327 327 327 325 324 325 325 324 324 325 325 324 323 322 324 325 325 324 323 323 320

GFSCGP_925_thetae_030.txt.gz
Theta_e
314 313 316 318 320 323 325 327 328 326 326 325 325 326 326 327 327 328 328 328 327 327 330 329 330 329 330 330 331 331 332 334 333 333 332 331 330 331 333 333 334 334 333 333
315 314 317 317 319 319 321 324 326 326 326 326 324 326 327 328 328 328 328 327 327 328 331 331 331 331 331 331 332 332 333 335 333 332 331 330 331 333 333 333 333 333 333 332
316 316 315 316 318 319 320 321 323 324 325 324 325 325 327 328 328 328 327 326 326 326 332 333 332 332 332 332 333 333 334 335 333 333 332 334 334 332 332 333 333 333 333 332
314 316 316 316 316 319 321 320 320 321 322 323 323 330 329 329 330 329 328 327 326 329 331 333 334 334 333 333 333 334 334 334 334 333 333 333 331 331 331 331 332 332 332 331
315 314 316 317 317 317 319 320 320 320 322 324 324 327 329 329 330 329 328 327 326 331 331 334 334 333 332 332 333 334 334 333 334 334 333 333 331 332 332 331 332 333 333 331
314 315 315 317 316 317 317 319 321 322 323 327 325 327 330 331 331 330 329 325 325 334 333 334 333 332 332 332 333 333 333 334 334 335 335 333 333 332 332 332 333 333 332 332
315 314 314 315 316 317 317 320 324 326 327 328 326 329 330 329 327 329 326 325 332 334 335 335 334 334 332 332 332 332 334 334 335 334 334 333 333 333 334 333 332 333 333 332
315 318 315 315 316 317 319 322 324 326 330 330 328 330 330 325 327 327 325 325 333 334 335 335 334 334 332 332 332 332 333 333 333 333 333 333 334 333 332 333 333 332 332 331
315 318 316 315 315 318 320 323 322 327 328 327 329 328 325 324 324 324 324 324 332 334 335 335 334 333 332 332 332 332 332 331 332 333 333 334 334 334 333 333 333 333 332 330
316 321 318 315 315 317 320 321 324 325 331 331 327 325 326 325 326 326 330 329 331 335 335 334 334 333 332 332 333 332 330 331 332 333 332 333 334 333 332 333 332 332 332 330
316 318 320 317 316 317 319 322 323 325 325 329 327 325 324 325 326 330 331 332 335 335 335 334 334 332 332 332 332 330 330 332 332 332 332 333 333 332 332 333 332 333 332 331
315 319 322 319 317 318 318 320 323 324 326 323 323 322 327 328 331 329 331 335 335 334 334 333 333 332 332 332 330 329 330 330 331 331 331 332 333 332 332 332 332 332 332 331
315 319 323 322 319 317 319 320 322 323 325 325 323 321 324 328 330 331 334 334 334 334 334 333 333 333 333 332 329 328 329 328 329 328 330 332 333 332 333 333 333 332 333 331
313 318 322 322 319 318 319 319 321 322 323 323 322 320 325 328 330 332 334 334 334 334 334 333 333 332 332 330 328 327 328 328 328 327 329 331 332 332 332 332 332 332 332 331
315 317 319 319 318 318 322 318 318 321 321 321 320 320 320 327 326 331 333 334 335 335 334 334 333 333 333 330 327 327 327 328 327 327 328 331 332 332 332 333 332 332 331 331
314 320 318 319 317 318 320 320 318 318 320 320 319 320 320 321 321 327 332 334 335 335 334 333 333 333 333 330 327 326 327 327 327 327 328 330 332 332 333 333 332 332 331 331
316 317 319 319 318 318 321 320 320 319 319 319 320 320 320 323 322 326 330 333 335 335 334 334 333 333 333 329 326 327 326 327 327 326 327 330 332 332 333 333 333 332 331 329
314 317 318 320 319 322 324 323 320 320 319 319 319 320 321 322 323 324 326 332 334 335 335 334 333 334 332 329 326 326 326 326 326 326 325 330 331 330 333 333 333 333 331 327
311 315 322 321 322 319 323 326 325 322 323 325 325 321 320 321 322 323 325 327 332 335 335 334 333 332 332 329 326 326 326 325 325 326 325 328 330 330 331 330 331 334 334 332
311 313 318 321 322 321 329 324 322 324 329 323 324 326 327 328 327 328 332 333 331 333 335 335 333 332 332 329 326 326 326 325 325 325 325 326 328 329 329 329 331 334 333 332
313 314 316 319 323 325 323 323 322 328 328 323 323 325 326 328 329 331 329 329 332 333 335 334 333 333 332 329 327 327 326 326 324 325 324 324 328 328 329 328 332 333 333 332
316 316 316 316 322 327 321 323 328 324 322 322 323 325 326 326 327 328 328 328 330 334 334 334 334 333 332 329 328 326 326 325 324 325 325 324 329 327 328 328 333 333 333 332
322 319 321 319 324 319 318 321 319 319 321 321 322 323 324 326 328 329 332 331 331 333 334 333 333 333 332 330 328 327 326 326 325 325 325 324 326 328 327 327 331 333 333 331
316 316 319 320 320 319 316 316 316 317 319 320 320 322 324 328 329 331 332 333 333 330 333 333 333 334 333 330 328 326 326 325 325 325 326 325 326 328 328 326 326 330 331 330
312 313 317 318 318 319 316 315 315 316 317 319 320 321 323 327 331 332 333 332 332 331 332 333 333 334 333 331 329 328 326 325 326 326 327 326 325 326 329 328 324 323 327 326
314 316 317 319 314 316 316 314 314 316 315 316 319 320 322 324 329 332 334 334 332 331 331 333 333 333 332 331 330 329 328 325 326 327 327 327 324 326 326 328 327 324 322 324

GFSCGP_925_thetae_033.txt.gz
Theta_e
317 316 316 317 319 323 325 326 328 329 329 329 330 331 331 328 327 328 328 329 330 331 331 328 330 335 334 336 337 337 336 338 341 339 336 334 334 334 332 333 334 336 336 335
318 318 318 317 318 320 321 323 326 328 329 330 330 330 329 329 328 328 329 331 331 331 331 328 335 336 335 337 337 336 336 338 339 337 335 333 333 332 334 334 335 336 335 334
316 319 317 317 318 319 321 323 325 327 328 328 329 330 330 329 329 328 327 328 330 331 330 329 337 337 337 337 337 337 338 339 337 335 334 336 336 336 334 333 334 335 335 335
316 315 318 318 318 318 321 321 323 325 326 329 328 331 329 327 327 328 329 331 331 330 330 329 339 339 337 337 337 338 339 338 336 336 335 335 333 332 332 333 331 334 333 333
314 316 316 318 319 318 320 321 323 324 324 326 325 326 326 325 327 329 330 331 331 331 328 333 338 338 337 337 337 338 338 337 337 336 335 336 333 330 332 332 334 335 335 335
313 315 317 317 318 319 319 320 322 324 325 327 326 326 328 327 328 329 331 332 331 330 329 335 337 337 336 336 337 338 337 337 337 335 336 336 334 334 333 334 334 336 336 336
310 313 316 317 317 319 320 321 323 326 328 330 325 327 328 327 328 330 330 331 329 328 336 338 338 338 337 336 337 337 336 338 336 336 335 334 335 335 334 334 335 335 336 335
310 311 315 317 317 319 320 321 323 326 328 326 325 329 328 330 330 330 331 329 327 335 337 338 338 338 336 336 336 335 337 337 336 335 334 334 334 333 334 335 336 335 335 333
315 310 314 316 317 318 320 323 322 324 326 326 328 330 331 330 330 329 329 330 328 336 338 338 338 337 336 336 335 336 336 335 334 333 333 333 333 335 335 335 336 335 334 332
319 318 312 316 317 318 319 321 322 325 327 329 330 331 332 328 327 327 326 326 329 336 338 338 338 337 335 335 335 336 335 334 333 332 332 332 334 334 333 335 335 335 333 330
316 321 321 315 319 319 319 321 322 324 325 328 331 333 330 328 328 329 327 328 329 337 338 338 337 336 335 335 335 335 333 332 332 332 332 333 333 333 333 334 334 334 333 330
315 320 325 320 319 318 319 321 323 327 328 327 330 331 325 327 328 330 332 331 332 338 337 337 337 336 336 335 335 332 332 332 332 331 331 332 333 332 334 333 334 334 333 330
316 321 322 327 323 319 319 320 323 326 328 329 329 331 325 329 331 330 333 335 338 337 337 336 336 336 337 335 333 331 331 330 331 330 330 332 333 334 333 333 333 334 333 330
313 318 322 329 325 319 320 320 323 326 328 330 329 325 326 330 333 334 336 337 337 337 336 336 336 336 336 334 331 329 329 329 330 328 330 332 334 334 333 333 333 333 332 332
315 319 316 319 324 324 319 320 321 325 326 329 328 326 326 331 333 333 336 336 337 336 336 336 336 336 336 333 329 329 329 329 328 328 330 332 335 334 333 333 333 333 333 332
315 322 318 317 319 323 321 320 321 322 325 326 325 325 324 326 326 330 334 336 336 336 336 336 336 336 336 332 328 328 329 328 327 329 330 332 333 333 333 333 333 333 333 332
315 320 319 322 320 323 322 322 321 322 324 324 324 322 323 323 324 326 333 335 336 336 336 336 336 336 336 331 327 328 328 328 327 328 331 332 332 333 333 334 333 332 333 332
315 317 320 319 321 332 322 322 321 321 321 322 322 322 323 323 326 328 331 334 335 336 336 336 336 336 334 330 327 328 328 327 327 328 330 332 332 333 333 333 334 333 330 331
312 315 322 324 327 325 326 325 322 322 321 322 322 322 322 323 324 327 334 334 334 336 336 336 335 335 334 330 327 328 328 326 327 327 329 331 331 333 333 334 335 335 333 332
312 314 321 322 331 328 332 326 325 327 331 327 327 328 329 329 325 335 333 334 336 334 336 337 335 335 334 330 327 328 327 326 327 327 327 330 330 331 332 332 335 335 334 334
314 317 319 322 326 329 325 325 324 327 332 327 327 328 328 330 330 331 330 331 332 336 336 336 335 335 335 330 328 328 328 326 326 327 326 328 329 330 331 331 334 334 334 333
315 317 319 320 325 335 323 326 329 327 325 325 326 327 328 329 329 329 330 331 331 334 335 336 336 336 335 330 328 328 328 326 325 327 326 327 329 329 331 332 334 334 333 332
320 320 324 324 326 322 320 322 321 322 324 325 326 326 327 329 331 331 332 333 333 333 335 336 336 336 335 331 328 328 328 326 325 326 326 327 330 328 329 331 334 334 334 331
315 317 321 322 320 320 320 319 319 320 322 322 324 325 326 328 330 333 334 334 335 333 336 336 336 337 337 332 329 327 327 326 325 326 327 327 330 328 328 328 332 332 331 327
314 316 319 320 316 319 319 319 318 318 320 319 322 324 325 326 329 332 334 335 334 334 334 335 337 337 337 333 330 327 327 326 326 326 327 327 328 329 328 326 327 329 330 327
315 316 318 318 316 316 316 317 317 318 319 318 320 323 324 325 327 331 334 336 336 334 333 335 336 336 336 334 330 328 327 326 327 328 327 327 327 328 331 328 325 322 327 326

GFSCGP_925_thetae_036.txt.gz
Theta_e
313 316 317 317 318 320 325 327 327 328 328 330 330 331 331 332 332 332 333 332 331 332 332 332 331 335 336 337 340 342 341 340 347 348 346 343 340 337 335 334 334 335 336 336
314 317 318 317 317 317 319 323 325 326 326 328 329 330 332 332 332 332 333 331 332 332 334 336 336 339 337 338 340 341 340 341 345 345 343 339 337 337 335 334 335 335 336 335
314 316 316 318 317 317 319 320 323 324 324 326 327 329 332 331 332 332 331 332 332 332 331 331 338 342 339 340 340 340 341 345 343 341 339 338 335 337 336 336 335 336 336 335
314 315 314 317 318 318 321 319 319 321 323 326 324 330 333 332 332 333 332 332 331 331 332 334 340 344 342 340 340 340 342 343 340 339 338 337 337 336 334 333 335 337 336 335
309 314 315 315 318 319 320 318 320 321 323 325 324 328 329 330 331 329 330 330 331 332 334 335 343 343 340 340 340 341 342 341 340 336 337 338 337 335 333 332 334 334 335 335
308 310 312 316 315 317 319 319 320 321 323 327 328 328 328 329 330 329 330 330 330 333 333 335 342 341 340 340 341 342 341 341 339 336 339 336 335 335 335 334 336 335 337 336
312 310 310 311 315 316 317 323 324 325 325 327 326 327 328 329 328 328 329 330 331 333 333 341 343 341 340 340 341 341 341 341 339 338 337 336 336 336 335 335 334 336 336 336
318 318 310 311 313 317 318 322 324 324 325 325 323 327 328 329 328 329 332 331 333 333 340 342 342 341 340 341 340 340 340 340 339 338 336 335 335 335 335 335 336 334 334 334
317 317 315 311 313 316 318 319 321 325 323 324 325 327 328 328 330 331 330 333 334 340 342 342 341 340 340 340 340 339 340 339 338 336 335 334 334 335 336 334 337 334 335 334
312 316 315 317 312 314 318 319 321 324 326 328 326 328 330 333 333 332 333 332 334 341 341 340 340 340 340 339 339 339 339 338 337 335 334 334 331 333 333 332 336 335 331 332
312 315 318 318 314 314 318 319 320 325 324 327 329 328 331 335 333 330 332 331 334 341 341 340 339 340 339 338 338 339 338 336 334 334 333 332 332 333 333 333 335 334 331 331
313 318 320 318 318 315 319 319 321 324 328 326 326 328 331 329 328 329 331 330 337 340 340 339 339 339 338 338 338 338 336 334 333 333 332 333 332 333 334 333 335 335 333 331
315 319 320 319 320 321 320 319 322 325 329 328 326 329 330 328 328 331 333 331 338 340 339 339 338 339 339 338 337 334 334 333 332 332 332 331 334 334 333 333 334 333 333 331
313 316 318 323 324 325 325 321 321 324 327 326 328 328 328 328 332 334 337 338 340 339 339 339 339 339 339 337 334 333 332 332 331 330 332 334 335 334 333 333 333 333 333 332
314 318 316 315 317 321 323 325 321 323 326 327 328 328 328 332 334 338 340 341 340 339 339 340 339 339 339 337 333 331 330 331 330 330 335 333 336 333 333 333 332 332 333 332
313 319 319 318 314 318 321 322 323 321 324 327 329 329 332 334 333 337 338 339 339 339 338 339 339 339 339 335 331 331 330 330 328 331 335 333 335 333 333 333 334 333 332 331
314 319 320 320 316 317 321 323 325 324 324 327 330 331 330 329 327 335 338 338 338 338 338 338 338 339 338 333 330 331 331 329 329 330 334 333 333 334 333 333 333 333 332 331
314 315 319 321 320 321 322 324 324 323 324 327 326 325 327 328 328 334 335 337 338 338 338 338 338 339 337 332 330 330 330 328 329 330 333 333 334 334 334 334 334 332 333 331
313 313 321 323 324 320 323 328 327 323 327 329 327 324 323 326 335 336 334 336 338 339 339 338 337 338 336 331 330 330 330 328 329 330 332 334 334 333 335 334 335 332 332 331
311 313 319 322 326 329 332 328 328 327 335 329 330 330 331 331 329 336 332 333 335 338 339 338 337 338 336 331 330 330 330 328 329 329 332 331 334 333 333 334 333 334 332 332
312 317 320 321 325 322 325 326 327 331 333 329 329 330 331 333 332 333 331 333 334 336 339 337 337 338 337 331 330 331 329 328 328 328 331 331 331 334 334 334 332 334 333 331
321 320 321 319 323 326 319 325 332 329 330 329 328 328 330 329 329 331 331 333 334 335 339 338 339 340 336 332 331 331 330 327 328 327 328 331 331 332 333 334 334 334 334 332
322 319 322 325 325 321 321 322 323 323 325 325 326 327 328 330 331 332 333 334 334 334 336 338 338 340 337 332 330 331 330 327 328 327 328 331 331 333 332 334 334 335 332 333
316 316 320 322 316 319 321 320 319 321 321 322 323 326 326 328 330 333 333 334 334 334 334 338 339 341 339 333 331 331 330 327 327 329 330 332 330 332 331 336 334 334 335 334
315 317 318 318 316 316 315 317 318 319 320 320 321 322 326 326 328 331 334 335 335 335 333 337 339 340 339 334 331 330 329 328 327 330 330 332 331 331 329 332 333 333 329 334
314 316 318 317 315 315 315 315 316 318 320 319 319 321 324 325 327 328 332 335 337 335 334 337 340 340 339 335 332 330 329 328 329 331 331 330 331 331 329 327 324 326 326 324

GFSCGP_925_thetae_039.txt.gz
Theta_e
308 309 312 312 313 316 319 324 325 325 324 324 324 325 326 326 325 325 326 326 327 327 325 326 328 330 336 336 337 341 343 348 347 347 347 345 341 338 335 335 333 334 335 336
311 309 311 314 314 315 317 317 318 321 324 324 324 325 326 326 326 326 326 327 327 326 327 328 331 336 336 339 341 343 347 348 347 347 346 345 341 338 336 335 334 333 335 336
312 312 312 313 315 316 315 316 316 317 318 319 320 321 322 323 324 326 327 326 326 326 325 325 332 336 339 341 341 340 341 347 347 346 344 341 339 337 336 336 334 336 335 336
306 309 314 313 314 316 316 316 316 317 318 319 319 321 320 321 322 324 325 325 325 325 327 325 334 337 339 340 340 339 344 345 344 343 341 339 338 337 337 336 335 336 336 335
305 307 309 313 313 314 316 318 317 318 317 317 318 319 320 323 325 326 326 325 325 324 324 325 336 339 340 339 340 342 344 342 341 338 338 337 335 335 334 334 334 335 335 335
307 307 307 307 309 314 314 316 317 316 316 317 318 319 320 320 321 324 324 324 324 322 323 335 338 339 339 340 342 342 341 340 340 338 336 336 336 336 335 335 335 335 335 333
310 309 308 308 307 309 311 312 314 318 318 319 318 320 321 321 322 324 324 323 324 324 329 339 339 338 338 340 342 341 339 341 336 339 337 337 336 334 334 334 334 334 335 333
316 318 315 313 308 307 309 313 314 318 320 319 319 321 320 322 323 323 323 323 325 324 337 338 338 337 339 340 341 340 341 338 337 338 335 335 335 331 334 336 334 335 333 332
316 313 312 310 310 309 308 309 314 315 317 319 319 319 319 319 320 322 323 326 326 336 339 338 337 336 339 340 339 340 339 338 338 336 335 334 334 336 334 333 335 334 333 333
311 313 310 308 310 315 315 311 315 315 317 320 321 320 320 320 322 324 326 325 335 338 338 338 336 337 339 339 339 339 339 338 338 335 334 333 333 333 333 332 334 333 333 332
309 312 312 311 312 316 315 310 310 314 315 319 322 321 320 322 329 325 326 325 338 338 338 337 337 337 338 339 339 339 339 338 337 334 333 332 332 332 332 333 335 331 331 331
313 316 318 316 314 314 316 312 310 314 317 318 320 321 320 323 329 326 326 327 337 336 337 336 337 337 337 337 339 339 338 336 335 333 332 330 333 334 333 334 334 331 331 330
312 314 318 316 315 315 318 320 315 315 316 318 318 322 319 321 325 327 324 335 337 337 336 337 336 336 335 337 338 338 336 334 333 333 332 330 333 333 334 334 334 333 331 331
313 312 315 317 317 317 321 320 320 320 319 318 321 320 320 324 327 328 330 337 337 337 336 337 336 336 335 336 336 336 334 333 332 331 332 332 333 333 332 332 333 333 332 332
313 314 314 314 316 316 316 316 317 318 321 320 319 321 319 324 334 332 334 336 336 337 336 336 336 335 334 334 332 333 333 332 332 331 332 334 333 332 333 332 332 332 331 331
314 314 315 319 318 316 316 315 316 316 318 321 320 321 323 333 337 337 336 336 337 337 337 336 336 335 335 332 331 332 332 332 330 334 334 334 333 333 333 332 332 332 331 331
314 315 319 320 317 317 317 315 314 316 317 320 321 323 329 331 336 335 335 336 336 336 336 336 336 335 333 330 330 330 330 329 331 333 334 335 333 332 333 333 332 332 331 330
310 311 317 323 319 319 314 314 319 323 320 323 324 327 329 332 333 334 332 334 335 336 336 335 335 334 331 330 329 330 329 328 331 333 334 333 333 332 333 333 332 331 330 329
310 311 319 322 325 322 319 325 327 329 332 331 328 327 331 333 331 331 332 331 333 334 334 333 334 334 330 329 329 330 329 328 330 333 333 334 334 333 333 333 331 331 331 331
311 312 317 320 323 327 324 319 318 324 334 331 330 333 333 331 334 332 331 331 330 333 333 334 335 333 329 329 330 329 328 328 329 333 333 333 334 334 334 334 332 332 330 330
315 317 317 320 325 323 315 318 320 334 334 332 329 330 330 331 330 329 330 331 332 332 333 336 335 332 329 329 329 328 328 327 329 331 333 334 333 334 334 333 333 332 332 329
317 321 322 322 323 323 317 319 329 327 326 326 327 327 329 329 330 330 330 332 333 333 334 335 335 333 330 329 329 329 327 327 329 329 333 334 333 334 332 333 333 332 331 329
320 317 316 314 317 317 316 318 318 319 323 321 322 324 326 327 328 331 332 331 333 331 329 331 336 332 330 329 329 329 327 326 328 330 333 333 333 334 332 332 333 333 329 325
315 316 319 317 312 315 317 316 317 317 320 319 319 320 322 325 326 328 331 332 332 332 332 333 336 332 330 329 328 329 327 326 327 331 331 333 332 333 333 333 334 333 331 327
315 316 316 317 316 315 315 315 315 316 316 318 318 318 320 322 324 326 327 329 333 332 332 335 336 334 331 329 329 330 327 327 328 331 330 332 331 334 334 334 334 333 332 329
314 315 315 316 313 313 313 312 313 316 315 316 318 318 318 320 323 324 325 326 329 332 333 334 337 336 332 330 329 330 327 327 329 331 330 331 330 330 334 331 328 327 330 333

GFSCGP_925_thetae_042.txt.gz
Theta_e
307 305 309 309 312 315 317 320 322 323 323 323 323 324 323 323 322 322 323 323 323 324 324 325 325 325 327 330 335 332 336 341 342 343 345 344 342 338 337 336 335 335 336 333
306 307 307 310 312 312 313 315 316 316 316 320 323 323 323 323 323 323 323 324 323 321 323 324 324 329 333 336 337 338 341 344 345 345 344 342 340 337 336 335 334 333 334 334
310 309 310 309 310 313 313 313 315 316 316 315 315 316 317 318 318 319 320 322 322 322 322 323 324 332 335 338 339 342 345 346 347 346 344 343 339 336 335 335 334 334 335 336
304 305 307 310 309 311 313 314 314 314 314 315 315 316 316 317 318 318 318 320 318 320 322 322 323 332 336 339 342 345 346 347 347 345 344 343 339 336 336 335 335 334 335 336
305 305 306 308 309 312 311 314 315 315 315 314 315 314 316 317 318 318 318 319 320 321 320 322 326 334 337 339 340 344 347 346 345 344 342 339 338 337 336 335 335 336 336 335
306 305 305 305 306 307 308 312 313 314 313 316 315 315 316 316 316 317 320 321 320 319 319 325 332 336 337 339 341 344 344 342 343 340 338 337 336 335 334 335 335 335 334 334
307 307 306 307 306 306 306 306 311 313 316 317 315 315 317 316 317 316 317 319 319 319 328 336 337 336 337 339 341 342 340 340 339 337 336 335 334 334 334 334 334 334 334 333
314 315 314 312 309 306 304 305 310 313 317 317 316 317 316 316 316 317 317 319 320 318 333 336 337 337 338 339 339 339 339 337 338 336 336 335 334 333 334 333 334 334 334 332
314 314 310 309 308 308 309 306 306 310 312 313 316 316 317 317 317 317 317 319 319 323 335 336 335 337 338 338 338 339 337 337 336 335 335 334 333 333 334 333 332 334 332 331
310 311 310 309 309 307 310 311 308 308 314 315 316 318 318 317 317 317 317 317 325 335 336 336 337 337 338 337 338 339 337 337 335 334 333 332 333 334 334 332 333 332 332 331
309 310 310 311 310 307 313 313 310 308 310 315 315 316 316 317 316 317 320 320 336 337 337 336 337 337 337 337 338 337 337 337 335 334 333 333 332 333 332 332 333 332 332 331
312 312 314 310 309 311 313 314 313 309 309 313 315 315 316 315 315 318 320 336 337 337 336 337 337 336 336 336 337 337 337 337 335 333 332 333 333 332 332 334 333 330 331 330
311 310 311 310 312 313 315 317 318 315 308 310 314 316 315 316 316 318 324 336 337 336 336 337 337 336 336 336 336 336 337 336 334 333 332 332 333 333 332 333 333 330 331 330
311 312 312 310 312 313 315 317 316 317 319 312 312 313 315 316 316 316 328 335 337 336 338 337 337 336 336 336 336 335 336 335 334 332 331 332 332 332 333 333 332 331 331 331
314 315 313 312 313 314 315 316 315 316 317 319 319 319 317 317 315 316 328 335 337 337 337 337 336 335 335 335 335 334 334 333 333 332 332 332 332 332 332 332 332 333 331 331
310 314 314 315 313 315 317 317 316 314 315 316 316 318 318 318 328 330 335 337 337 337 337 336 335 335 335 333 333 332 332 332 332 331 332 332 332 332 331 332 332 331 330 330
312 314 314 314 316 318 318 316 315 314 315 318 319 318 319 329 334 334 336 337 337 337 336 336 335 335 334 333 332 330 332 331 332 332 333 333 332 332 332 331 332 331 330 330
309 309 312 314 316 318 316 322 325 326 321 318 317 317 319 329 335 333 333 335 336 336 335 335 335 334 332 331 330 331 330 330 332 333 334 333 332 332 332 332 332 331 330 329
309 309 313 317 322 320 320 321 321 323 326 329 332 330 329 333 333 333 332 332 332 335 334 334 334 332 329 328 329 329 327 331 332 333 334 333 332 332 333 332 331 330 329 328
310 310 314 315 321 322 320 318 316 318 327 329 329 331 331 332 337 333 331 332 332 333 333 333 333 330 328 327 328 327 325 331 332 332 332 332 332 332 332 332 331 330 330 330
316 314 315 316 319 322 316 313 315 330 331 324 327 327 331 334 333 329 330 332 332 331 332 333 331 329 327 327 327 326 325 326 332 332 332 333 333 333 333 332 331 330 330 329
315 319 320 318 323 322 312 314 320 319 320 324 324 323 328 328 329 329 332 332 333 331 333 333 330 327 327 327 327 325 324 327 329 332 332 333 333 333 333 333 332 331 329 328
318 316 315 312 315 312 313 314 314 316 320 320 321 319 323 324 328 328 331 333 331 334 333 332 329 327 327 327 327 325 326 326 327 331 332 333 333 334 332 332 332 331 329 326
315 315 317 314 315 315 314 314 314 315 317 318 318 318 321 321 326 328 327 330 332 331 333 333 329 327 326 327 327 327 327 326 328 332 333 332 333 332 332 332 332 330 328 326
313 313 314 316 314 313 315 313 313 314 314 315 315 315 318 320 323 324 325 327 330 331 332 334 331 328 326 326 327 327 327 325 330 332 332 332 333 332 332 332 332 331 328 326
312 313 313 313 311 311 311 312 313 314 314 314 314 314 316 318 321 322 322 326 330 330 332 334 333 330 328 327 327 327 327 325 329 329 330 331 331 332 332 333 332 332 331 328

GFSCGP_925_thetae_045.txt.gz
Theta_e
305 305 308 310 312 314 315 317 319 320 320 323 323 323 323 322 320 321 321 321 321 320 320 321 322 324 324 325 324 326 327 328 335 338 339 340 341 341 341 341 341 340 341 339
305 307 309 309 309 310 311 312 313 315 316 316 317 320 318 319 321 321 321 321 321 321 319 320 321 322 325 325 326 327 329 332 338 340 340 341 341 341 342 342 342 342 340 339
305 307 308 308 308 310 311 312 313 315 315 314 314 316 315 315 315 316 317 317 318 319 319 319 318 321 325 328 330 334 334 338 342 342 343 340 337 336 335 336 337 335 334 339
303 304 305 307 307 307 309 311 313 313 313 315 314 317 314 314 314 314 315 316 314 316 318 317 318 319 328 330 334 339 341 344 344 343 342 339 336 334 334 334 334 334 333 334
304 304 305 306 307 308 307 308 310 312 313 312 313 312 314 314 314 315 315 315 314 316 315 315 316 319 327 334 338 342 344 345 345 343 342 340 338 336 335 334 334 334 334 336
303 304 304 304 305 305 307 308 310 310 311 313 313 313 313 313 313 314 314 314 316 315 315 315 318 328 334 337 343 344 345 344 344 344 342 341 339 336 335 334 335 335 335 335
305 305 305 305 304 305 305 304 309 311 312 315 313 313 314 313 315 314 313 313 314 314 313 322 331 332 334 337 341 343 344 341 342 341 340 338 336 335 335 334 334 335 334 333
314 313 307 310 305 305 302 303 307 313 316 313 314 316 315 314 315 315 315 313 313 313 313 322 331 332 335 337 338 339 341 339 338 336 335 334 334 333 333 333 333 333 333 332
314 315 310 309 307 307 308 304 304 305 308 310 313 314 315 315 314 315 313 313 312 313 315 329 332 333 336 337 337 337 337 336 336 334 333 333 333 333 333 333 333 333 333 331
310 309 310 310 309 307 306 308 305 303 309 313 313 314 316 315 314 314 313 313 313 313 325 333 335 336 336 336 337 337 337 335 334 334 333 332 331 333 333 332 333 333 331 330
309 309 309 310 309 306 308 312 312 305 306 311 313 314 312 314 314 315 314 314 317 321 333 335 336 336 335 336 335 335 334 334 333 333 332 332 334 333 332 331 332 331 330 330
310 310 313 310 307 307 308 312 311 310 310 309 311 312 312 313 311 312 313 314 330 334 333 336 337 335 335 335 334 334 334 334 333 332 331 332 332 332 331 332 332 331 331 331
312 309 310 308 311 312 312 312 312 315 312 313 310 311 311 310 311 312 311 319 334 334 335 336 336 335 335 335 334 334 334 334 333 332 331 332 331 331 332 333 332 329 330 330
311 312 309 309 310 311 313 313 316 315 315 316 314 312 310 310 313 315 315 331 334 334 336 337 336 335 335 336 334 334 335 334 333 332 332 332 332 332 332 332 332 330 330 330
312 315 312 311 312 312 313 313 313 315 315 318 315 315 314 315 315 317 317 319 334 336 337 337 336 335 335 335 335 334 335 334 333 331 331 331 332 332 332 332 332 331 330 331
309 309 312 312 313 313 314 314 313 315 316 315 315 315 313 314 315 321 331 329 334 337 338 337 335 335 335 334 334 333 333 333 332 331 331 331 331 332 331 332 332 331 330 330
311 312 310 310 312 313 316 317 315 315 315 313 314 314 316 317 318 321 332 330 335 337 337 336 335 335 334 334 334 332 332 332 332 332 331 332 331 331 331 331 331 330 330 330
309 308 310 311 312 315 314 319 316 316 314 312 313 312 313 315 317 330 330 330 335 336 336 335 334 334 334 333 332 333 332 330 331 332 332 332 331 331 330 331 330 329 329 329
307 309 311 314 317 317 315 319 319 320 321 323 326 326 328 328 331 331 330 330 332 335 334 333 333 333 332 330 331 331 329 330 331 332 332 331 331 331 331 331 330 329 329 328
309 309 311 313 317 319 317 315 312 313 320 321 322 325 325 329 334 330 329 330 330 332 333 333 333 333 331 329 329 328 329 330 331 332 332 332 332 331 332 331 330 329 328 328
315 313 313 314 316 318 310 309 310 323 322 316 321 323 322 328 329 328 329 330 332 333 332 332 332 329 329 328 328 325 329 330 331 332 333 332 332 331 332 331 330 329 329 329
314 316 319 316 318 319 310 308 318 316 317 317 319 320 321 324 329 327 330 332 333 333 332 332 330 329 327 327 327 324 327 329 331 331 332 331 331 331 332 331 330 330 329 328
316 315 315 312 314 312 311 309 313 315 317 316 318 318 318 322 327 327 329 331 332 332 332 332 329 326 325 326 326 324 325 328 331 331 331 332 332 332 332 331 330 328 328 327
313 314 316 314 314 311 313 311 313 314 315 315 316 316 317 322 326 326 326 329 333 333 332 329 326 325 325 326 325 326 325 326 330 331 331 332 332 333 332 331 330 328 326 325
311 312 313 314 313 312 314 311 312 313 313 314 315 315 316 322 325 326 326 330 331 332 332 327 327 326 326 325 325 325 326 325 328 330 331 332 332 333 331 331 330 329 328 327
311 311 314 314 312 311 311 310 311 312 312 313 314 315 315 322 323 325 326 327 331 332 332 330 327 326 325 325 326 325 326 325 328 330 330 331 331 332 331 330 329 330 329 327

GFSCGP_925_thetae_048.txt.gz
Theta_e
304 305 308 310 311 312 313 315 317 318 317 321 320 320 320 319 319 320 321 321 321 321 320 320 322 322 323 322 322 323 323 323 324 335 338 338 338 338 339 339 339 339 337 335
304 305 307 309 309 311 311 312 312 313 314 315 315 314 313 315 316 318 320 320 319 319 317 318 320 321 320 320 322 324 325 323 326 329 335 338 338 339 340 340 340 339 338 337
303 306 307 307 309 310 309 311 312 314 313 313 313 315 315 315 313 313 314 314 316 318 317 318 317 316 319 319 321 323 327 326 329 335 336 338 338 339 339 339 340 340 339 340
301 302 305 306 307 307 308 310 312 313 313 314 313 316 314 314 314 313 313 313 313 313 314 315 315 315 317 319 321 325 332 334 336 339 339 339 339 335 337 340 340 340 340 338
302 303 303 305 305 306 307 309 310 311 311 312 312 311 312 311 312 312 312 313 312 310 312 312 312 313 316 318 324 332 338 339 340 341 341 339 337 335 336 335 337 334 333 333
302 303 303 303 305 306 307 307 307 309 310 312 311 311 312 311 311 311 311 311 311 311 310 311 311 314 319 328 334 339 341 342 341 341 339 339 336 334 333 333 333 333 333 334
305 304 304 304 304 304 304 303 307 310 311 311 311 311 312 311 311 312 312 311 310 310 310 310 312 323 328 333 338 341 341 340 340 340 338 338 336 336 335 333 333 334 334 334
310 312 305 305 304 304 302 301 307 312 313 309 312 314 313 312 312 312 312 311 310 310 308 309 310 321 329 335 338 340 339 338 339 339 338 338 337 335 334 334 334 334 334 333
315 313 311 308 307 305 306 302 302 303 306 306 310 311 311 312 312 312 312 311 310 309 310 310 313 327 332 335 337 339 338 337 338 337 336 335 334 334 333 333 333 332 332 332
309 310 310 310 308 306 305 304 305 301 307 310 310 311 313 312 312 311 312 311 311 311 312 312 327 332 334 335 337 338 338 336 334 333 333 333 333 333 332 332 332 331 331 330
309 309 309 308 308 305 307 307 308 303 304 310 311 311 309 311 312 313 311 310 310 321 328 330 333 333 334 334 334 335 335 333 332 332 332 332 332 332 332 331 331 331 330 329
310 310 312 310 307 307 306 308 310 310 310 306 307 308 309 310 309 309 309 312 314 331 331 333 333 334 334 333 333 332 333 332 332 332 332 332 332 332 331 331 331 331 329 329
310 308 310 308 311 310 311 311 308 311 313 314 309 308 308 308 310 309 311 315 317 333 334 335 334 334 334 333 333 331 332 332 331 330 330 332 332 330 330 332 331 330 330 330
311 309 308 307 309 310 310 310 310 313 315 313 313 312 311 311 311 311 312 314 316 331 335 335 335 335 334 333 333 332 332 331 330 330 330 330 330 330 331 332 329 329 329 329
310 313 312 311 311 311 311 312 311 312 313 316 314 313 313 312 312 312 312 314 325 330 335 335 335 334 334 333 333 332 332 331 330 330 331 330 330 331 331 331 331 330 329 329
310 312 310 311 309 309 312 312 313 312 312 312 313 314 312 312 312 312 313 316 329 329 335 336 335 334 334 334 333 332 332 331 331 331 330 330 331 331 331 331 330 330 329 330
312 311 311 309 309 311 309 311 310 312 311 312 313 312 311 311 312 314 314 320 328 330 334 336 336 335 334 334 333 332 332 332 331 330 330 330 330 331 331 331 331 330 329 330
311 309 311 310 307 311 307 316 318 317 312 312 312 311 311 312 314 316 316 317 329 330 335 335 335 334 334 334 332 333 333 332 331 330 330 330 330 330 330 331 330 329 328 329
308 309 311 311 310 312 313 316 317 318 316 315 318 321 322 324 323 326 324 327 328 331 334 334 334 333 333 332 333 332 330 331 330 330 330 331 330 330 330 330 329 328 328 328
309 308 309 312 313 316 315 310 310 312 320 318 320 321 322 322 327 328 325 328 329 331 332 332 332 332 331 331 332 330 328 329 330 331 331 331 330 330 330 330 329 328 327 328
313 312 311 312 314 315 311 311 308 320 319 316 318 319 321 321 323 320 323 326 329 330 332 331 332 331 330 330 330 328 328 329 330 331 331 331 331 330 330 330 329 328 327 327
314 315 317 315 316 317 311 308 312 310 309 314 316 317 318 318 317 319 325 327 330 331 331 332 331 329 328 328 329 326 328 330 330 331 331 332 331 331 331 330 329 328 328 327
313 313 315 312 314 311 312 307 305 308 311 315 314 316 316 317 317 320 325 327 330 332 331 331 330 326 326 327 328 326 328 329 330 330 331 331 331 330 331 330 328 327 327 325
311 312 314 314 313 313 313 312 310 310 311 313 313 314 316 317 318 322 325 329 331 332 332 330 326 325 324 326 327 328 328 329 330 330 331 330 330 330 330 330 328 326 326 325
309 310 312 313 312 312 312 311 312 311 312 313 312 314 316 317 319 323 325 327 332 332 332 328 327 326 325 325 326 326 326 328 329 330 330 330 331 331 330 329 327 326 327 327
308 310 314 314 311 312 312 311 311 312 313 313 313 315 315 318 321 323 327 330 331 332 329 328 326 326 325 325 324 325 326 327 329 329 329 330 330 330 330 328 326 327 328 327

GFSCGP_925_thetae_051.txt.gz
Theta_e
308 307 309 310 313 314 315 316 317 317 319 320 322 324 323 322 323 323 324 325 326 327 327 324 323 323 322 322 322 322 320 322 324 336 338 339 340 339 339 339 339 339 339 338
308 307 307 309 310 313 314 315 317 317 317 319 321 323 323 320 321 323 324 324 325 326 325 326 323 323 323 322 320 320 320 322 325 336 339 340 340 337 339 340 340 340 339 338
308 308 307 308 310 312 313 315 316 317 316 317 317 320 320 320 320 320 320 320 321 322 322 325 324 324 323 323 320 320 319 323 326 333 337 338 339 339 339 340 341 339 339 339
307 307 306 307 309 311 314 313 313 314 316 319 317 321 321 321 320 320 319 320 320 319 319 321 323 325 323 323 322 318 321 328 332 334 338 339 340 341 341 341 341 341 340 340
307 306 305 307 308 310 311 312 314 314 316 316 317 316 318 318 318 318 320 319 319 319 320 320 321 321 320 320 320 329 337 339 339 338 339 340 342 341 340 341 341 341 340 340
306 307 305 306 308 308 310 310 310 311 313 315 316 316 317 317 317 317 317 317 317 317 317 317 318 317 318 319 330 338 341 342 340 340 340 341 341 339 340 340 340 338 337 337
307 306 306 305 305 306 307 311 313 313 314 315 314 315 316 317 316 315 316 317 317 318 318 319 319 320 320 326 336 341 342 342 341 340 340 340 339 339 339 338 337 336 336 336
311 308 307 306 306 306 308 310 311 311 313 312 312 314 314 315 316 316 315 317 317 319 320 320 321 321 321 329 339 342 343 342 341 340 339 338 338 338 338 337 336 337 337 337
315 311 311 309 308 307 307 307 309 309 310 312 312 313 313 314 314 315 315 318 320 321 323 329 331 323 323 334 340 343 343 342 341 340 338 338 337 337 336 335 336 336 335 335
312 312 311 311 311 308 308 308 308 308 310 310 312 313 313 317 316 316 315 317 319 326 331 336 334 330 333 338 342 342 342 341 339 338 337 336 336 336 335 335 335 334 333 333
312 312 310 310 310 309 309 309 309 309 309 311 312 314 316 317 316 316 315 316 317 323 333 337 335 334 337 340 342 341 340 338 337 336 336 335 335 335 335 335 334 334 333 332
311 314 313 310 309 309 310 309 310 311 310 310 311 312 315 314 314 315 316 316 316 321 332 336 334 334 338 340 341 340 338 337 335 335 335 335 334 334 335 334 334 333 332 331
311 311 312 309 314 312 311 311 309 311 314 313 311 311 313 313 314 315 316 316 316 319 327 336 334 335 336 340 340 339 337 335 334 334 334 334 334 334 334 334 333 332 331 331
311 312 311 311 310 311 312 311 311 312 313 313 313 313 313 313 314 315 316 316 316 317 325 336 336 336 337 339 338 337 335 334 334 333 333 333 333 333 334 334 333 332 332 331
311 312 311 310 311 311 311 312 312 312 312 314 312 313 313 314 315 315 315 315 315 315 319 329 338 336 340 339 337 336 335 333 332 331 331 333 333 333 334 333 331 332 331 332
310 312 312 311 309 309 310 310 310 310 311 312 312 313 312 313 313 314 313 314 316 318 319 326 338 340 340 339 337 336 334 333 331 331 332 332 332 333 333 333 332 332 332 332
311 312 311 309 308 308 310 310 311 311 312 312 313 312 312 312 313 314 314 316 318 318 319 329 337 340 340 338 337 336 334 332 331 332 332 332 333 333 333 333 332 332 332 330
310 311 311 310 309 311 308 315 315 317 317 316 317 316 313 312 313 313 316 319 320 320 320 329 337 339 339 338 337 336 334 332 331 332 332 332 332 332 332 332 332 332 331 331
309 310 312 310 311 310 310 314 314 315 315 315 318 315 313 313 314 318 319 318 323 323 323 333 337 338 339 337 337 335 333 331 332 332 332 332 332 332 332 332 332 331 331 330
309 310 311 311 313 315 316 313 311 310 316 316 314 319 318 319 325 319 319 326 326 330 332 335 337 338 338 337 335 335 333 331 333 333 333 332 332 332 332 332 331 330 331 330
315 313 313 313 315 315 313 313 309 317 317 310 311 311 318 322 321 321 322 323 325 329 332 336 337 338 337 336 335 334 332 332 333 333 333 332 332 332 333 332 331 330 330 327
316 317 316 316 316 318 312 312 312 314 310 309 310 316 317 319 320 320 322 324 328 331 334 336 337 337 337 336 335 333 333 332 333 333 333 333 333 332 332 332 331 331 329 327
315 314 316 313 315 313 313 312 310 311 310 310 310 314 315 316 318 321 324 326 330 333 336 336 337 336 334 335 336 334 333 333 332 333 333 333 333 333 332 332 330 329 329 327
312 312 315 314 313 312 312 312 311 312 311 311 312 314 313 317 318 321 324 329 332 334 337 336 336 335 334 335 335 334 334 332 332 333 334 333 333 332 332 331 329 329 326 327
313 312 314 314 312 312 313 312 312 310 311 313 312 313 316 318 319 322 325 330 332 336 336 335 335 335 334 334 333 334 332 332 333 333 333 333 333 332 331 329 329 328 327 328
312 313 315 314 313 312 313 313 313 312 311 311 314 316 317 317 319 322 327 335 335 336 335 334 334 335 333 333 332 330 331 331 333 333 333 333 333 332 330 325 325 327 328 327

GFSCGP_925_thetae_054.txt.gz
Theta_e
310 311 311 310 310 310 314 317 318 319 320 323 323 325 325 326 326 328 328 329 330 330 329 327 327 327 327 328 331 334 334 337 337 337 339 341 342 342 342 343 343 344 344 343
311 311 311 310 309 309 312 315 318 318 319 320 323 324 324 325 326 327 328 328 328 329 329 329 327 327 327 328 329 332 334 336 338 337 340 341 343 344 344 344 344 345 344 344
311 311 310 310 309 309 312 314 317 318 319 320 321 323 324 324 325 326 326 326 326 326 326 326 326 325 326 327 328 330 332 335 337 338 342 344 345 344 344 344 345 345 345 345
311 311 310 310 309 309 310 311 314 317 319 322 321 324 324 323 324 325 325 325 325 325 325 325 325 326 325 325 325 326 330 332 337 341 341 343 343 343 343 345 345 345 345 344
312 309 309 309 309 308 309 310 313 315 318 320 321 323 322 322 323 324 324 324 324 323 323 323 323 323 322 322 323 324 328 335 341 343 341 343 342 344 346 345 347 346 346 345
312 312 309 308 308 309 310 310 313 316 317 320 319 321 321 321 322 322 322 322 321 321 321 322 322 321 321 321 322 324 335 342 345 344 343 344 344 345 346 347 347 347 346 346
314 312 310 308 309 309 311 311 318 320 320 320 318 319 320 321 320 320 321 319 320 321 322 323 323 324 324 324 323 329 340 346 346 345 346 347 348 348 349 348 346 344 343 342
314 316 311 309 309 309 311 312 314 317 316 317 316 318 319 319 320 320 319 319 320 324 325 327 329 331 330 325 328 334 342 347 347 347 347 348 348 347 346 344 343 341 338 338
316 313 310 311 309 309 309 310 311 313 314 315 316 317 317 318 318 319 319 319 322 326 331 334 337 337 333 327 333 340 345 347 347 347 346 346 345 344 343 343 341 339 339 340
312 317 312 311 312 311 309 310 310 312 314 315 316 317 318 318 318 318 318 319 321 324 328 335 340 338 334 333 340 344 347 347 347 346 345 345 344 343 342 341 339 339 339 337
310 313 313 311 313 314 309 310 311 311 311 313 314 316 317 320 320 320 320 320 320 321 325 334 340 337 339 340 343 346 347 346 346 345 343 342 340 340 340 340 339 339 338 337
311 312 314 312 310 310 311 313 313 310 313 312 315 319 318 320 320 319 319 320 320 320 321 333 340 337 341 343 345 346 345 345 344 341 340 340 339 339 339 338 338 337 336 335
312 312 313 311 312 312 310 310 312 313 315 316 313 316 317 317 317 317 318 319 319 319 319 325 338 338 341 344 344 344 343 342 340 339 339 339 339 338 337 337 336 336 335 333
310 313 313 314 312 312 311 312 311 314 315 313 314 314 317 317 316 316 317 319 319 318 319 321 334 339 339 343 343 342 341 339 338 338 337 337 336 334 335 336 336 334 333 333
310 313 312 311 311 310 311 310 311 312 313 314 314 313 314 315 316 316 317 317 316 317 318 320 325 340 341 341 342 341 339 338 337 337 335 333 334 336 336 336 334 334 332 331
311 315 312 312 310 311 310 310 311 311 311 312 312 312 313 313 313 314 314 315 316 317 318 319 322 340 342 341 341 339 338 337 336 332 331 333 335 336 336 335 334 333 332 333
313 313 314 314 310 310 311 310 310 310 311 311 312 312 313 314 314 314 315 315 315 316 319 321 322 339 342 341 340 339 337 336 332 330 332 334 335 335 335 335 334 332 333 333
313 312 312 313 312 313 313 316 315 316 316 315 316 316 317 317 317 316 315 315 316 319 321 322 323 339 341 340 340 338 337 334 330 330 332 334 334 334 334 334 333 333 333 333
311 312 313 314 313 311 311 313 314 315 316 314 315 315 316 318 317 317 316 315 316 320 325 328 326 338 340 340 339 338 335 331 329 332 333 334 334 334 334 334 334 334 333 333
311 309 315 314 316 316 322 315 313 312 318 313 313 316 319 320 322 316 318 319 323 325 326 330 333 338 340 341 339 337 334 329 330 332 332 333 334 334 334 334 334 333 333 333
317 314 314 314 318 316 315 313 311 319 320 314 313 313 316 319 320 322 322 322 323 323 327 330 335 339 341 340 339 336 332 330 331 332 332 333 334 334 334 334 334 334 333 333
318 318 317 319 319 322 313 314 315 316 313 312 312 312 313 315 318 318 322 322 324 327 329 332 337 339 341 339 337 336 331 329 332 332 332 333 334 335 334 335 334 333 332 332
315 315 318 319 316 314 313 314 312 312 312 311 312 311 311 312 316 318 321 323 327 329 333 335 339 340 340 339 336 333 329 331 332 332 332 333 335 334 334 334 334 333 332 331
314 313 315 315 313 312 312 313 312 311 312 312 311 312 313 315 316 319 322 325 328 332 335 337 339 342 341 338 335 332 329 332 332 332 332 333 334 334 334 334 333 332 331 330
315 314 315 315 312 311 312 312 313 314 312 310 311 313 315 317 319 320 324 326 329 334 335 338 340 342 340 338 337 329 330 332 333 332 332 333 333 333 334 333 331 331 329 330
314 314 317 316 312 313 313 313 314 313 311 311 311 313 315 317 320 322 324 328 331 337 336 340 340 340 338 337 333 329 331 332 333 332 332 333 333 334 333 332 330 329 329 327

GFSCGP_925_thetae_057.txt.gz
Theta_e
314 313 314 314 313 313 313 312 312 316 318 319 321 323 324 326 328 330 330 332 332 332 331 330 331 331 331 332 333 334 334 339 340 339 337 337 341 343 344 343 344 346 347 346
312 313 313 313 312 312 312 312 313 313 315 319 321 321 324 324 326 328 329 330 330 331 332 332 331 331 331 332 333 335 338 339 341 340 338 338 340 342 345 345 346 347 347 347
313 314 313 312 312 312 313 313 312 313 314 317 320 321 322 323 325 326 327 329 330 330 331 332 332 332 331 332 333 334 336 338 341 339 338 343 346 347 347 347 348 348 348 347
313 313 312 312 313 312 312 312 311 311 314 318 320 323 323 323 324 326 326 327 328 329 329 330 330 333 331 329 329 333 334 337 338 340 337 342 345 347 346 347 348 348 348 346
314 314 313 313 311 311 312 311 311 311 313 316 319 322 323 323 324 324 326 326 327 328 329 328 328 329 327 327 328 329 331 334 336 339 340 342 347 344 345 346 350 348 347 346
312 314 313 313 312 310 310 310 311 311 312 316 317 321 323 324 324 324 325 326 326 327 327 327 327 325 324 324 324 327 330 333 335 342 347 347 347 347 347 349 350 349 347 346
313 313 312 313 312 311 310 312 313 314 314 316 318 322 323 324 324 323 324 325 325 325 324 324 324 325 325 325 325 325 329 333 342 346 348 347 349 350 352 352 349 348 348 347
314 315 315 313 314 310 311 314 316 319 315 316 318 321 322 322 322 321 322 323 323 322 324 325 325 327 327 327 327 326 330 340 347 348 348 348 350 350 351 351 349 347 346 345
314 314 312 314 312 313 312 312 314 317 317 320 319 319 319 321 321 322 322 322 324 326 328 331 333 334 336 334 328 329 332 342 348 349 350 352 352 351 349 349 346 343 341 343
312 313 312 313 313 313 314 311 315 313 315 318 318 318 321 320 321 321 322 322 323 324 326 331 337 340 339 334 330 335 339 347 349 350 351 351 349 348 348 347 343 340 340 339
310 313 313 313 314 315 313 313 313 315 315 317 319 320 321 321 321 322 322 323 322 323 324 332 340 340 340 335 338 342 347 349 349 349 349 348 347 347 345 342 342 341 340 338
311 315 313 312 313 314 313 314 316 319 315 315 316 317 322 322 322 322 323 322 322 322 322 327 341 339 342 341 344 347 347 348 348 348 347 346 344 343 342 341 340 340 338 337
313 313 315 311 314 313 312 313 316 316 318 322 318 317 322 323 323 322 322 322 321 321 322 324 339 340 344 344 345 347 347 346 346 345 344 343 342 341 340 339 338 337 336 336
311 313 314 316 312 314 316 315 312 315 319 319 315 318 321 321 321 320 319 320 321 320 320 323 330 342 345 344 344 344 345 344 343 342 342 342 341 340 338 337 336 335 335 334
313 317 313 313 311 311 311 311 311 311 313 314 315 315 317 319 318 318 318 318 319 318 320 322 325 343 344 343 343 343 343 342 341 341 340 340 338 336 335 335 336 335 335 333
314 316 314 314 312 311 311 311 311 311 311 311 313 314 314 315 316 316 316 316 317 318 318 321 324 342 343 342 343 341 341 340 339 338 337 335 334 335 336 336 336 335 333 333
314 315 316 316 313 314 312 311 311 311 311 311 312 313 314 314 314 315 317 317 317 318 318 321 324 331 344 342 342 341 340 339 338 335 333 334 335 336 336 335 335 334 334 332
316 314 315 315 314 316 311 313 314 315 314 316 317 317 316 317 317 317 318 319 318 317 319 322 327 329 343 342 340 340 339 337 334 333 333 334 334 336 336 334 334 334 336 335
313 314 317 317 318 313 312 313 315 317 317 316 316 316 316 316 317 320 319 319 319 318 319 325 328 331 342 342 340 340 338 335 332 332 333 333 335 335 335 335 334 336 336 336
315 312 316 315 321 319 320 317 316 314 317 316 316 316 316 317 322 323 325 323 320 322 325 326 329 336 342 341 341 339 337 333 331 332 333 333 333 334 334 335 336 336 335 335
317 315 316 316 320 317 317 314 314 320 319 316 316 316 316 317 319 320 321 323 324 323 324 324 328 335 342 341 341 339 335 332 331 332 332 333 334 334 334 335 336 336 335 334
318 318 319 318 319 319 315 314 318 316 315 314 314 314 315 316 315 317 319 320 321 323 325 327 331 342 342 341 340 338 334 330 331 332 332 334 333 335 336 335 335 334 334 334
318 317 320 321 318 316 315 314 314 314 313 313 313 315 314 314 314 316 318 320 321 324 328 329 334 343 341 341 340 337 332 331 331 332 332 334 335 335 335 335 334 334 334 333
315 315 318 317 316 315 314 314 313 312 312 312 312 313 313 314 313 317 318 320 322 325 329 331 338 343 341 340 339 336 331 331 331 332 332 335 335 335 335 335 334 333 333 332
316 315 317 317 315 314 312 313 314 312 312 312 313 312 312 312 317 317 319 320 323 327 331 335 340 342 342 340 338 334 330 331 332 332 331 332 335 335 335 334 333 333 333 332
316 318 318 317 315 314 315 314 313 313 310 311 311 312 313 314 315 317 319 321 324 328 330 339 340 341 341 339 336 332 330 332 332 332 331 331 331 332 333 333 331 331 330 329

GFSCGP_925_thetae_060.txt.gz
Theta_e
314 313 315 315 315 315 314 314 314 315 314 314 316 318 322 323 324 325 330 330 330 333 335 332 334 334 334 334 337 337 335 336 335 340 341 342 341 339 344 345 345 344 348 347
313 313 313 314 314 314 314 314 314 315 314 314 316 316 318 322 324 325 328 331 331 332 332 336 335 336 338 337 334 334 337 335 331 342 339 342 341 341 342 345 345 346 348 348
312 312 313 314 314 314 314 314 314 314 314 314 314 316 317 319 322 324 327 329 330 331 334 333 336 338 337 336 336 336 334 333 336 341 343 338 339 341 348 347 347 347 348 348
311 312 312 314 314 313 314 313 313 313 313 313 313 315 319 318 322 324 325 328 330 330 331 334 336 340 340 337 334 332 331 330 334 337 339 342 344 347 347 348 349 349 348 349
310 312 312 315 314 315 314 312 312 312 313 313 312 314 315 319 321 324 325 327 329 329 329 331 334 336 333 332 331 330 331 336 335 339 343 339 347 346 348 348 350 350 348 349
312 312 314 314 314 315 313 312 311 311 311 312 312 313 314 317 322 324 325 325 327 329 328 328 331 331 331 331 332 331 329 339 335 339 340 341 345 345 349 348 353 351 349 347
313 311 313 314 315 315 313 312 313 311 312 315 313 312 314 316 318 322 325 326 327 327 328 329 330 330 332 331 329 330 335 338 340 341 342 344 349 344 354 353 352 350 347 346
312 313 313 312 312 314 314 313 314 316 317 320 318 319 315 317 317 321 324 325 327 327 328 328 329 330 328 327 328 327 328 340 339 338 346 349 352 349 357 352 352 349 346 345
313 311 311 311 312 314 315 313 313 313 314 318 318 319 317 318 319 320 323 323 324 325 326 326 327 331 333 331 334 333 330 334 338 348 351 351 351 353 354 350 352 350 348 349
311 312 309 310 312 313 314 314 316 317 319 319 317 317 318 320 321 322 323 325 326 326 327 329 331 336 339 338 337 334 330 338 349 350 352 352 354 352 352 353 350 346 347 347
311 312 314 312 312 312 314 313 313 313 314 315 316 316 319 320 322 323 322 324 326 324 324 326 332 338 340 340 340 336 333 348 351 352 354 354 354 352 350 348 345 344 343 342
312 314 314 312 311 315 314 316 317 319 316 318 320 321 318 322 323 323 323 324 324 323 323 323 341 342 340 339 339 340 345 350 352 353 353 352 350 349 347 345 344 341 341 338
315 312 315 312 311 315 314 313 314 317 319 317 317 318 320 321 318 317 324 323 322 322 321 324 339 338 343 341 343 347 350 350 351 351 350 349 347 346 345 343 342 340 339 337
313 314 314 316 314 316 315 315 314 317 319 316 314 315 318 317 315 319 319 322 322 321 321 323 328 339 346 345 346 349 349 349 349 348 347 346 345 344 343 341 340 339 336 336
314 317 315 313 313 313 313 314 315 314 312 311 312 313 315 317 316 319 320 320 319 319 320 322 326 340 345 346 346 346 347 347 346 345 345 344 344 342 340 339 337 336 336 335
314 316 315 315 313 312 314 315 312 311 312 310 311 311 313 318 316 318 318 316 317 318 319 320 324 340 346 345 343 346 345 344 344 343 344 343 341 339 337 337 337 336 336 335
316 316 316 315 312 313 314 315 315 316 316 315 317 317 317 315 315 317 319 318 318 319 318 319 324 329 343 342 342 343 343 342 343 341 340 338 337 338 338 337 335 336 335 333
316 317 316 317 315 316 311 314 315 315 315 315 316 316 316 315 317 317 317 318 320 320 319 319 324 343 339 342 341 341 340 340 340 337 336 335 337 338 337 335 334 334 334 331
314 316 318 319 317 315 313 316 319 320 319 316 316 317 317 317 318 319 322 324 325 322 321 320 324 339 341 341 340 340 340 339 336 334 334 335 338 337 337 335 334 335 335 334
315 314 316 316 320 319 320 316 314 314 319 318 317 316 316 316 319 318 320 319 322 325 323 323 326 333 340 341 340 340 339 336 335 333 334 334 336 337 335 336 336 336 336 337
319 316 317 317 319 317 318 315 314 320 318 317 316 315 315 317 316 317 318 317 319 320 324 324 325 333 338 340 340 341 338 335 333 333 333 335 336 335 335 334 335 335 336 336
318 319 322 320 319 320 316 316 316 317 315 314 313 314 314 314 315 315 315 316 317 320 321 322 327 331 338 339 342 341 339 334 333 333 335 337 334 336 335 336 335 336 335 334
319 318 321 319 321 318 318 317 314 315 315 313 312 313 313 314 314 314 314 315 317 319 322 323 328 336 342 340 341 341 337 333 333 334 336 336 336 336 336 336 337 335 334 333
316 315 319 319 318 317 317 316 314 315 314 313 313 312 312 314 314 314 314 315 317 320 322 325 328 340 341 340 340 340 334 332 332 337 337 336 336 335 335 336 335 334 333 333
316 317 317 319 318 316 314 315 315 314 313 312 310 310 312 314 314 313 314 315 318 321 323 328 334 342 341 340 340 339 333 333 334 338 337 337 335 335 335 334 333 333 332 332
317 318 318 320 316 317 315 314 313 312 311 309 310 310 311 312 314 313 314 318 320 321 323 329 333 338 340 342 340 338 332 334 335 336 337 336 335 337 335 332 327 330 329 330

GFSCGP_925_thetae_063.txt.gz
Theta_e
311 310 309 310 311 312 312 313 313 313 313 312 312 313 313 313 313 316 320 323 324 325 325 326 327 330 331 336 336 335 336 340 340 343 344 346 344 343 342 341 341 346 346 348
309 309 311 311 312 312 313 313 313 313 313 312 312 312 313 313 313 313 314 319 323 325 324 325 326 327 332 337 336 334 334 336 337 336 334 332 335 337 336 334 343 344 345 347
310 310 311 312 311 312 312 312 313 313 313 312 312 313 313 313 312 313 314 315 319 325 325 326 327 327 330 339 338 335 334 334 334 334 333 334 341 340 341 343 343 344 345 348
308 308 310 312 312 312 313 314 315 314 311 311 311 312 311 312 312 313 314 314 316 320 325 324 325 326 339 339 338 335 334 334 333 331 331 334 342 341 339 342 345 347 348 347
308 308 312 312 313 314 315 314 313 313 311 308 309 309 310 311 312 312 312 314 316 319 324 325 325 325 335 336 335 333 333 333 332 331 330 337 342 340 341 344 348 347 348 348
309 310 310 314 313 313 314 315 314 312 308 309 309 309 309 309 310 312 312 313 316 319 322 324 323 325 331 336 335 334 333 333 332 331 332 336 337 337 343 350 349 348 348 348
311 310 310 313 313 311 311 315 317 313 310 311 310 313 313 314 313 311 312 313 313 314 317 323 321 322 326 330 333 332 332 333 332 332 333 333 335 337 344 349 351 350 349 349
310 310 309 312 310 309 310 313 316 318 314 313 311 313 311 313 314 314 313 313 312 313 317 323 323 321 321 327 328 332 332 331 332 334 338 337 340 340 344 351 351 349 348 348
311 313 311 311 309 308 308 312 310 314 315 318 315 313 313 313 315 317 318 316 314 315 321 321 320 321 320 325 328 329 329 333 333 337 341 343 342 341 347 351 350 349 348 345
312 314 311 311 311 311 312 311 312 317 317 319 315 315 315 322 321 318 317 318 318 317 323 324 324 327 333 336 338 338 332 333 337 342 342 341 346 347 352 352 350 349 347 345
311 312 313 311 311 313 314 315 316 317 318 319 317 314 321 319 318 317 315 316 318 319 322 320 325 334 336 338 338 339 334 336 338 340 347 350 349 350 354 351 352 349 347 346
313 314 313 312 310 313 313 313 316 319 317 315 317 317 317 316 316 316 315 317 320 321 319 326 338 338 338 338 339 338 335 341 348 350 350 349 352 354 352 350 348 349 349 347
314 313 313 311 310 314 314 312 312 316 317 318 319 316 315 315 314 315 316 319 319 319 317 317 337 336 336 335 336 338 345 350 350 350 351 353 350 350 346 343 343 343 343 341
314 313 313 315 313 312 313 313 313 312 314 316 315 314 317 317 315 315 315 316 317 319 316 315 324 335 337 340 339 348 349 350 349 349 349 348 346 345 343 341 340 339 337 337
313 316 315 314 314 313 313 313 314 313 312 316 317 317 317 317 316 315 317 318 317 316 317 316 318 335 338 340 345 348 348 348 348 347 346 345 345 343 341 340 339 338 336 336
314 316 315 316 314 313 312 313 315 314 313 314 315 318 317 316 316 317 316 316 316 317 317 315 318 324 340 339 341 346 346 346 346 345 344 344 343 341 340 338 338 335 336 335
316 316 317 317 313 314 314 312 314 315 315 314 318 317 316 317 317 316 316 316 320 324 322 318 319 332 335 339 340 344 344 344 344 343 343 342 341 339 337 336 336 336 335 335
316 314 315 316 315 316 312 312 314 315 315 313 316 317 315 315 315 315 316 320 319 320 320 321 316 325 336 336 339 343 343 343 343 342 340 338 337 337 337 336 335 336 334 332
314 315 314 314 314 315 314 318 318 317 315 317 317 316 315 314 314 315 320 315 315 316 317 319 321 329 337 338 340 341 341 340 339 337 336 337 337 337 336 334 333 335 333 332
315 315 315 313 314 312 318 318 314 314 315 316 314 314 314 314 316 314 313 313 314 314 315 317 320 321 337 335 331 338 338 337 335 335 335 337 337 336 334 333 335 334 332 332
318 316 315 314 315 315 317 316 313 317 313 315 313 313 312 313 313 312 311 313 313 314 314 317 318 320 326 334 324 338 336 334 333 334 334 337 336 335 334 334 336 334 334 334
311 315 316 317 319 315 317 315 316 313 313 312 313 312 311 312 312 311 312 313 313 313 314 316 317 319 322 330 336 339 339 334 333 334 336 337 336 335 336 335 335 335 335 334
314 316 317 317 316 315 316 316 313 313 313 312 312 311 311 312 312 311 311 312 313 313 313 315 316 319 321 332 336 339 339 333 335 336 336 336 336 334 335 334 335 335 334 333
315 313 314 315 316 317 316 315 315 314 314 312 311 311 311 312 311 311 311 311 312 312 313 315 317 319 327 335 338 340 339 335 336 335 335 335 335 335 334 335 335 334 333 332
311 312 314 316 316 316 315 315 314 314 312 311 310 310 310 310 310 311 313 312 313 312 313 315 318 327 332 337 339 340 339 336 335 335 335 335 335 335 335 334 333 333 332 332
312 316 318 318 316 315 314 314 314 313 312 311 309 308 307 308 309 311 312 313 312 312 313 317 320 328 333 339 338 339 338 336 335 335 335 335 335 332 331 330 328 329 331 331

GFSCGP_925_thetae_066.txt.gz
Theta_e
308 307 307 307 308 310 310 311 311 312 311 311 311 311 311 312 311 311 311 312 312 315 319 322 326 327 327 327 332 338 342 339 341 341 342 344 343 338 339 342 342 345 346 345
307 308 309 309 310 310 310 310 310 312 312 312 311 311 311 311 311 310 311 312 312 312 313 319 323 324 325 325 327 335 344 341 342 343 344 345 341 341 341 340 340 340 341 344
308 308 309 308 311 312 311 311 313 314 314 312 310 311 311 311 311 310 310 310 311 312 313 315 319 323 324 324 327 332 343 344 344 343 345 344 342 338 338 337 338 337 340 345
307 307 308 311 311 313 313 313 313 314 314 312 310 311 309 309 309 310 310 309 309 309 311 313 317 322 323 326 327 331 336 342 346 345 343 338 335 337 334 333 336 340 342 345
307 307 308 311 313 314 314 312 312 314 314 311 311 307 309 308 309 309 308 309 309 310 311 311 314 318 323 324 329 332 334 336 340 339 336 335 334 331 330 334 335 336 343 346
307 309 310 313 313 312 311 312 312 310 309 311 310 307 308 308 308 308 309 311 311 309 309 311 311 313 316 323 328 332 336 336 336 336 334 333 331 331 338 340 340 346 347 348
310 310 309 312 312 309 308 312 312 314 310 311 309 310 309 310 311 312 313 315 315 315 314 312 311 312 315 324 332 334 335 335 335 334 333 332 330 329 333 340 341 348 348 348
310 310 310 310 309 306 306 309 312 317 316 313 312 313 310 309 316 317 316 314 314 313 314 315 314 311 312 318 330 333 334 334 334 334 333 332 331 332 335 336 341 348 348 347
310 313 310 310 310 309 310 307 309 314 313 312 312 312 311 319 318 316 315 314 313 313 313 316 317 314 316 319 327 331 332 332 332 332 332 333 334 336 335 337 342 348 348 347
311 313 311 311 310 309 311 310 312 312 314 316 315 313 312 319 318 316 314 312 312 312 314 318 317 318 320 320 325 328 330 329 330 331 332 334 335 337 337 338 345 349 348 348
311 310 312 310 310 309 311 312 315 313 316 318 318 314 317 318 317 316 314 314 314 315 317 319 316 321 323 324 327 326 326 328 330 330 333 337 339 340 342 343 345 349 348 347
312 312 313 312 310 309 310 312 312 310 314 315 314 314 315 315 314 314 315 314 314 315 317 317 318 316 331 332 335 335 332 331 331 333 337 341 344 345 346 349 348 348 347 345
313 311 314 310 308 309 312 311 310 312 314 315 316 313 315 316 316 314 316 316 316 318 319 317 317 317 331 333 334 335 334 337 340 342 343 345 346 348 351 350 349 348 347 345
313 312 312 313 312 309 312 313 313 313 318 315 314 315 316 317 317 316 316 316 317 319 319 317 316 317 328 338 337 335 340 342 344 346 348 348 349 350 348 350 349 348 346 346
310 314 313 313 314 314 314 314 312 312 313 316 314 317 316 316 317 316 317 317 319 319 318 318 321 318 334 337 338 341 346 348 348 348 347 346 344 344 346 346 346 346 344 343
310 313 315 315 314 315 316 314 313 311 313 313 313 315 316 315 316 317 318 318 319 321 320 318 318 319 327 333 332 339 346 347 347 345 343 342 341 340 340 341 339 338 337 337
311 313 317 315 314 314 315 312 311 314 315 314 315 315 315 316 316 314 315 317 319 317 316 315 316 317 323 331 330 333 343 345 344 343 342 341 340 339 339 338 337 336 336 335
314 316 315 314 310 314 311 315 315 316 315 312 314 317 315 314 313 312 312 316 314 313 313 313 314 315 320 333 331 334 340 342 342 342 341 340 338 337 337 336 335 335 334 333
311 314 315 315 310 313 313 317 316 315 314 316 316 314 313 313 311 310 312 312 311 310 311 312 313 315 321 330 331 331 336 341 341 341 339 338 337 336 336 335 335 334 334 332
313 314 314 313 315 314 308 316 313 312 315 316 313 313 312 312 313 311 309 310 310 310 312 312 313 314 327 326 327 327 330 339 340 338 337 337 336 335 336 335 335 333 332 332
318 316 316 316 315 314 313 315 313 311 314 315 312 312 311 312 311 310 310 310 310 310 311 312 312 313 319 325 326 327 327 334 337 336 336 336 336 335 334 333 333 332 332 333
310 315 314 314 317 313 315 314 313 310 311 313 311 311 311 311 311 310 310 310 310 310 311 312 312 312 315 323 327 326 328 331 334 336 336 335 335 334 333 334 333 332 333 333
312 312 314 315 311 310 313 314 313 313 314 312 312 311 310 311 311 310 311 311 310 309 310 311 312 312 315 325 331 335 331 333 332 336 336 335 335 334 333 334 334 333 333 332
312 311 312 311 312 312 313 314 313 313 313 313 310 310 309 310 310 311 310 309 310 310 310 311 311 312 315 325 326 331 330 332 335 336 336 335 334 334 334 334 334 333 332 330
308 307 310 311 313 314 314 314 313 313 311 311 310 309 310 311 310 308 308 308 309 310 311 311 311 312 316 324 324 330 331 334 335 335 334 333 332 333 333 333 333 333 333 332
309 311 312 314 314 315 314 313 312 313 312 311 310 311 310 309 308 307 307 307 308 310 311 311 312 315 319 323 323 324 333 334 334 334 334 333 330 330 329 328 327 331 332 332

GFSCGP_925_thetae_069.txt.gz
Theta_e
306 306 306 307 306 308 309 310 309 309 310 309 309 311 311 310 310 310 310 311 311 311 312 312 313 314 319 325 329 330 334 339 344 344 343 343 343 342 344 344 343 344 345 342
306 307 307 308 308 309 309 310 310 311 312 312 311 312 312 310 309 309 310 310 310 309 310 311 312 312 314 318 323 327 330 334 341 344 343 342 343 343 345 344 345 345 339 339
307 307 307 307 309 311 311 311 311 313 312 311 311 311 310 309 309 309 309 308 308 308 308 309 310 310 312 314 318 323 326 328 331 338 343 343 343 343 342 343 338 337 339 340
307 306 308 307 310 312 313 311 312 311 312 313 311 313 310 309 308 308 307 306 306 306 307 307 308 309 310 311 313 319 324 327 332 338 344 343 341 342 341 339 335 340 336 336
307 307 307 309 310 312 311 311 310 311 313 313 312 308 310 309 309 307 306 306 307 312 313 314 314 312 310 310 312 312 319 327 329 340 344 343 342 340 339 339 337 336 337 340
306 307 308 309 312 311 310 309 309 310 307 311 311 309 311 308 308 307 308 314 314 314 313 312 313 314 314 314 311 312 319 327 330 339 342 342 341 337 336 334 334 335 338 340
308 309 308 312 312 307 305 306 307 310 311 311 308 309 309 309 309 311 316 316 314 312 311 311 311 312 314 315 314 311 317 324 330 334 339 341 339 336 336 333 332 336 341 345
309 309 310 310 309 308 307 305 306 311 313 310 310 312 310 308 315 317 316 314 313 312 310 310 311 312 314 316 316 313 313 323 331 333 336 338 337 335 334 331 333 335 336 341
309 312 310 310 310 309 308 307 306 310 311 311 310 310 310 310 317 316 314 313 311 311 312 311 312 314 316 316 317 317 313 323 330 333 334 335 336 335 332 331 333 336 337 343
309 312 310 310 309 308 308 308 311 304 308 313 313 313 312 310 310 315 314 312 312 312 312 312 312 314 317 317 317 320 320 320 329 332 333 334 335 333 333 333 335 335 340 346
310 309 311 310 310 308 307 309 312 308 314 315 316 313 309 313 315 314 313 312 312 313 313 313 314 315 316 317 315 323 319 323 329 330 331 333 333 334 334 334 334 337 343 346
311 310 313 312 310 308 308 309 309 308 312 312 313 313 310 313 313 313 312 313 313 311 313 314 315 316 317 317 317 325 320 326 327 329 330 332 334 334 336 336 337 341 345 347
311 310 314 310 308 308 310 311 310 310 312 314 316 313 311 313 313 314 313 314 313 312 314 317 317 318 318 319 318 327 328 323 327 329 329 332 335 336 338 341 342 344 345 346
312 312 314 314 311 308 312 313 311 310 316 313 314 313 312 312 313 314 314 315 317 314 320 319 319 318 318 319 332 336 333 332 331 333 336 338 339 342 343 343 344 344 345 345
308 310 311 313 313 313 314 314 315 315 313 313 312 312 312 312 313 314 316 317 318 315 320 318 316 316 316 318 329 331 334 339 341 341 341 342 344 344 345 347 346 346 345 344
307 312 314 313 312 313 315 313 313 314 314 313 311 312 311 314 314 316 316 315 317 318 317 314 314 314 316 318 328 330 336 344 344 344 343 344 345 345 346 345 345 344 343 343
307 308 311 313 313 313 314 313 312 311 311 313 314 313 314 315 314 312 312 312 315 315 314 312 312 313 313 318 329 331 333 343 344 343 342 341 342 341 340 342 341 340 342 343
308 312 316 316 310 314 310 314 315 315 313 312 311 313 314 313 312 311 311 313 310 312 311 311 312 312 312 321 328 330 334 340 341 341 340 340 339 338 338 339 339 340 339 338
308 311 316 316 312 311 311 315 316 314 313 312 315 313 312 312 311 312 310 309 310 310 310 310 310 311 312 318 324 328 330 331 340 340 339 339 338 336 335 334 334 334 335 334
308 311 316 314 315 309 308 315 313 311 316 312 313 312 312 311 314 313 310 311 310 309 310 309 310 311 311 313 320 326 329 329 328 339 338 337 337 335 334 334 333 333 333 332
317 315 314 314 315 312 311 314 313 318 312 314 313 312 311 313 312 311 310 310 309 309 309 309 309 310 311 312 319 326 328 329 328 337 337 336 335 335 334 333 333 333 332 331
309 314 313 315 316 315 314 314 314 311 309 313 314 313 312 312 311 310 310 309 309 309 309 309 309 310 311 312 323 327 327 326 327 327 335 333 333 333 333 334 332 332 331 329
309 309 313 313 310 309 311 312 311 310 314 314 312 311 311 311 311 310 309 309 309 308 309 309 309 310 311 313 322 327 325 326 327 332 333 332 333 333 333 331 330 330 331 329
309 308 308 308 308 309 309 310 312 312 313 313 311 310 310 311 310 309 308 308 308 307 307 308 310 311 311 314 322 326 327 326 328 333 333 333 332 331 331 331 331 330 329 329
307 306 307 307 309 310 311 311 313 313 312 311 311 310 310 309 310 309 309 309 308 307 307 307 310 311 312 314 323 327 327 330 331 334 333 332 331 331 331 330 330 331 331 331
306 307 310 310 309 310 309 311 311 311 312 310 309 308 307 307 309 310 309 308 307 307 306 308 310 311 313 318 321 325 325 327 332 334 332 332 329 326 325 326 326 331 331 331

GFSCGP_925_thetae_072.txt.gz
Theta_e
305 306 306 306 306 307 308 309 309 308 308 310 309 310 310 310 309 309 309 310 311 311 311 311 311 311 311 311 311 313 318 330 344 343 341 339 338 338 336 333 332 334 337 339
305 306 306 306 306 307 308 309 308 309 310 310 309 311 310 310 309 308 309 309 309 309 310 310 309 309 310 310 310 311 312 316 326 340 342 342 341 340 339 339 339 340 341 341
306 307 307 307 308 310 309 310 309 311 311 310 310 310 309 308 308 308 307 307 307 307 307 308 310 311 311 312 312 310 311 312 316 328 341 343 342 342 342 342 342 341 343 343
306 306 307 307 309 310 311 309 311 311 310 310 311 313 310 308 308 308 306 305 304 304 311 312 313 313 313 313 314 313 313 312 312 314 336 342 342 342 342 341 341 343 344 345
306 307 306 307 308 311 308 310 310 309 310 312 311 310 308 308 308 307 306 304 306 311 312 312 312 312 312 312 313 314 315 314 314 313 322 338 340 340 340 340 340 340 341 338
305 305 306 306 309 311 309 308 305 306 306 309 308 310 308 307 307 307 306 308 312 313 312 310 310 310 310 311 312 313 314 315 314 313 317 332 340 340 339 339 339 339 337 338
307 308 307 311 310 306 305 304 306 305 307 309 308 309 308 307 308 308 308 312 313 311 310 309 309 309 310 310 311 313 315 317 316 315 317 326 339 341 339 338 339 337 336 334
309 310 308 309 308 309 307 306 306 309 312 307 306 309 307 307 307 311 315 313 312 311 307 309 310 311 311 311 312 314 316 316 317 313 316 321 333 340 339 337 337 335 333 331
309 312 309 309 309 308 308 306 304 306 308 308 308 308 307 308 309 314 313 312 311 309 310 311 310 311 312 312 312 314 316 316 316 317 316 322 328 336 338 337 336 338 333 332
309 311 310 309 309 308 308 306 309 302 307 306 308 310 310 309 309 310 312 310 310 310 310 310 310 311 312 313 314 314 315 315 315 319 318 324 327 333 336 335 336 337 332 334
308 309 310 310 310 308 306 307 310 305 305 309 313 309 308 309 308 309 310 310 310 310 310 311 310 315 314 314 314 315 316 317 317 321 319 324 329 332 334 334 335 333 331 333
309 307 311 311 308 307 305 307 307 307 311 311 311 312 309 309 309 311 311 311 310 310 311 311 313 317 315 316 316 316 318 321 319 320 319 326 329 332 333 334 334 331 332 338
309 309 312 309 306 307 310 309 309 309 310 313 314 311 308 310 311 310 310 312 312 313 313 314 316 314 312 311 313 315 319 328 329 321 324 328 330 333 334 334 333 333 337 339
311 309 311 311 308 305 310 311 310 313 315 312 312 311 310 310 310 310 312 313 313 315 317 316 314 313 312 310 313 316 320 328 330 323 326 330 332 334 334 333 334 337 339 341
307 310 310 311 312 312 313 313 313 314 313 316 313 312 311 310 310 313 313 315 314 313 316 316 313 313 311 311 312 313 323 330 331 326 329 332 334 335 335 338 339 339 340 343
308 310 310 313 312 312 311 310 311 313 313 313 314 314 312 311 312 313 312 312 312 314 313 313 313 312 311 312 311 313 324 330 339 335 334 336 337 339 340 341 341 342 342 342
307 308 310 310 309 311 313 312 311 311 311 312 314 312 310 312 313 311 311 312 312 312 311 311 312 312 312 311 311 312 326 332 341 340 339 340 340 341 342 342 341 341 341 341
306 309 311 313 312 315 309 309 313 314 313 311 311 311 311 312 312 310 311 311 311 311 311 310 310 310 310 310 312 313 324 329 339 340 340 340 340 340 340 341 340 340 339 338
307 310 314 316 312 309 310 311 315 314 313 312 312 311 313 311 311 312 311 309 310 310 310 309 309 309 309 309 311 312 323 328 336 340 340 340 340 339 339 339 337 336 336 337
309 309 313 314 313 310 308 312 312 311 314 311 312 312 311 311 316 314 311 311 311 310 309 309 309 309 309 309 310 312 323 328 329 337 338 338 337 337 336 335 334 334 336 335
313 312 313 314 314 312 310 313 312 315 311 309 312 311 311 313 313 312 310 310 309 309 309 309 309 308 309 309 311 317 327 328 328 336 337 336 335 333 333 332 337 335 332 331
314 315 312 314 315 313 313 314 314 309 309 310 311 311 313 313 311 311 310 310 309 309 308 308 308 308 308 309 311 318 325 327 328 329 332 335 333 331 331 331 331 331 330 327
308 307 307 311 308 309 310 311 309 307 309 312 311 313 313 311 311 310 310 309 308 307 307 307 306 307 307 310 311 320 324 326 328 328 333 332 332 331 331 330 329 328 327 324
307 306 307 307 308 307 306 308 309 310 311 310 311 311 310 310 310 310 309 309 308 308 308 308 307 306 307 310 312 319 327 326 326 325 326 331 330 329 330 330 329 327 326 326
307 305 306 306 306 307 308 309 310 308 309 311 309 309 309 309 309 308 308 308 307 308 308 308 307 306 307 310 312 320 326 326 326 326 329 328 329 329 327 327 328 328 328 328
305 306 309 311 308 308 309 308 309 310 311 308 308 308 305 305 304 303 304 306 307 308 306 306 306 306 307 310 315 319 326 325 324 331 330 330 328 325 323 322 323 327 329 329

GFSCGP_925_thetae_075.txt.gz
Theta_e
309 312 313 311 310 309 310 311 311 311 311 312 312 312 312 312 312 312 312 314 315 314 315 313 313 312 313 312 312 312 312 313 316 340 343 341 340 338 335 330 326 325 329 331
309 310 310 309 309 309 310 311 311 311 312 311 311 312 313 313 313 313 312 313 315 314 312 311 313 315 316 316 315 314 313 313 312 313 340 342 343 342 341 339 333 334 335 334
310 309 309 309 309 311 311 312 311 311 311 311 312 311 312 312 312 312 313 313 312 311 310 313 315 316 316 316 316 315 313 314 313 315 330 341 343 343 344 343 343 339 336 333
309 308 308 309 310 311 311 311 311 311 311 310 311 310 311 311 312 312 312 312 312 310 313 315 316 315 314 314 314 315 313 312 315 316 322 331 335 340 341 344 344 342 337 335
309 309 309 309 310 311 310 311 311 311 311 312 311 312 311 312 311 311 312 312 312 312 316 317 315 313 312 312 313 314 314 314 313 315 317 322 333 336 340 342 344 342 339 334
309 307 308 309 309 312 311 311 310 310 310 311 310 310 310 311 312 312 311 312 312 315 316 315 313 313 313 313 313 314 314 315 314 317 319 321 327 332 335 341 342 342 344 345
309 310 309 311 312 309 310 311 312 311 310 309 311 310 310 311 311 311 310 311 314 316 315 314 315 314 313 313 314 314 314 315 316 319 320 321 322 329 335 339 340 341 342 344
312 312 310 310 311 311 311 312 312 313 309 309 309 310 309 310 310 310 311 315 316 315 314 315 315 314 314 316 316 316 315 316 317 318 320 320 320 325 331 336 338 340 340 342
315 313 311 310 311 311 310 312 309 312 311 312 310 309 309 310 311 312 313 315 314 314 315 315 315 314 314 318 318 317 317 317 318 319 319 319 318 322 328 333 336 338 339 341
312 313 311 311 311 310 311 310 313 315 314 313 309 309 310 310 310 312 312 313 313 314 314 315 315 315 316 317 316 315 316 318 318 319 320 319 321 321 325 330 336 337 338 339
311 313 312 312 312 311 311 312 313 313 312 312 311 311 311 311 311 312 312 314 312 313 315 315 316 315 314 313 313 315 314 315 318 320 322 322 323 324 327 331 334 336 338 337
312 314 314 312 310 310 310 312 312 314 312 313 313 314 311 311 311 314 313 312 312 316 316 315 315 315 314 313 313 314 313 314 318 321 325 327 325 326 329 333 334 337 339 341
314 314 314 311 311 311 312 311 311 312 313 315 316 314 311 312 312 312 312 313 315 315 315 315 317 316 314 312 312 312 313 314 315 315 325 332 328 326 330 333 335 337 340 342
312 314 313 313 310 312 312 312 312 313 317 315 314 314 313 313 313 313 313 314 316 315 315 314 314 313 312 312 312 312 312 313 314 314 322 333 332 328 332 334 336 339 341 343
311 314 313 312 312 311 311 311 311 313 314 316 315 315 314 314 314 315 314 315 314 314 314 314 313 313 312 312 313 313 312 313 313 313 317 333 332 331 333 335 338 340 341 343
311 312 312 313 312 313 314 313 313 313 313 312 314 315 314 314 314 314 314 315 314 314 314 313 313 313 313 312 312 312 311 311 312 313 316 329 331 331 335 338 340 342 342 343
311 313 313 311 309 310 312 311 312 311 312 314 316 314 313 314 314 314 315 314 314 314 314 313 314 313 314 312 311 311 310 311 311 314 316 329 331 334 338 340 341 342 343 344
309 310 312 312 311 315 310 311 313 313 313 313 313 313 313 313 314 314 314 314 314 314 313 313 314 312 311 310 310 309 310 311 313 315 319 332 333 337 340 341 341 341 341 344
308 310 313 314 315 312 311 312 315 315 314 313 313 313 312 312 314 314 313 313 314 314 314 313 312 311 310 310 310 310 311 312 314 331 337 336 338 340 339 340 340 340 341 342
309 309 313 316 317 318 314 313 314 314 316 314 312 312 313 313 316 314 314 314 314 314 314 313 311 310 310 310 309 310 313 318 331 339 338 339 339 340 340 340 339 339 340 339
314 312 313 313 313 314 313 312 314 317 315 313 312 312 313 315 315 314 314 314 313 313 312 312 311 310 309 309 309 312 313 321 329 330 338 341 343 342 339 337 338 337 335 334
311 314 316 315 316 315 313 314 315 313 313 311 312 312 314 314 314 314 314 313 312 312 312 311 310 309 309 309 309 312 313 317 328 329 337 338 339 338 337 337 336 334 333 331
313 313 313 314 314 313 312 312 310 310 311 312 312 312 311 312 313 313 312 311 311 311 311 310 309 309 309 309 309 311 312 315 327 333 335 336 336 335 335 335 335 333 332 332
309 309 310 310 309 309 310 310 310 311 312 312 311 311 311 311 312 311 310 309 309 308 309 309 309 310 310 310 309 309 312 322 327 329 332 333 333 333 333 332 333 332 332 331
308 308 309 310 310 310 309 310 311 311 311 311 310 308 307 307 308 309 308 307 306 306 306 307 308 310 310 309 309 310 313 323 327 327 330 330 331 330 327 327 331 332 332 331
308 308 309 310 308 308 309 310 312 312 310 309 308 307 305 306 306 305 305 305 304 303 304 306 309 309 308 308 309 310 314 322 328 330 329 330 326 324 323 325 323 328 329 328

GFSCGP_925_thetae_078.txt.gz
Theta_e
313 314 315 315 313 312 313 314 314 314 314 313 314 314 315 315 315 315 315 315 316 316 316 315 315 316 318 320 323 323 320 327 326 328 333 338 343 343 342 342 338 337 338 338
312 313 313 312 312 312 312 313 314 314 313 313 314 314 314 314 315 315 315 316 316 316 316 315 314 317 319 320 321 321 323 319 319 321 327 330 335 337 345 343 343 340 339 338
312 312 311 311 311 312 313 313 313 313 312 313 313 314 314 314 315 315 314 315 315 315 314 314 316 318 318 319 319 319 321 322 321 315 318 322 331 335 339 341 345 345 341 341
312 312 311 311 312 312 313 312 312 312 313 314 313 314 314 314 314 314 315 315 315 315 314 316 318 317 317 317 317 318 319 321 321 322 321 320 322 333 336 337 341 346 347 344
312 311 311 312 312 312 313 312 312 313 314 314 313 315 314 314 314 315 315 314 314 314 315 317 317 316 316 317 317 317 319 320 321 323 325 323 326 326 330 334 338 346 349 348
313 313 312 312 312 312 312 313 313 314 314 315 314 314 312 313 314 315 314 312 313 316 317 318 317 316 316 317 317 318 319 320 321 321 322 325 327 329 329 333 339 342 346 349
314 313 312 312 312 313 313 314 315 314 315 315 314 313 313 314 313 313 312 312 313 314 317 317 317 317 317 317 318 320 320 321 321 321 322 323 325 328 332 334 330 337 342 344
314 315 313 313 313 314 314 314 315 315 314 313 313 313 314 313 312 312 313 314 315 316 316 316 317 317 317 317 319 321 320 320 321 322 322 322 324 325 325 328 330 332 338 342
316 315 314 312 313 313 314 315 314 314 314 315 315 314 313 313 312 312 313 315 314 315 315 316 316 317 318 318 319 318 318 319 319 321 322 323 324 325 326 326 331 333 336 340
315 317 314 313 313 313 313 313 314 315 317 317 314 313 313 313 313 313 313 314 314 316 314 315 317 317 318 318 317 316 316 316 318 318 320 322 323 324 325 326 330 332 336 340
314 315 314 314 314 313 314 313 313 315 317 318 315 313 315 314 314 314 314 314 315 314 314 316 317 316 316 316 316 316 315 316 318 318 319 322 324 325 326 327 328 331 336 339
313 315 316 314 313 313 313 313 314 318 316 316 316 315 315 314 313 314 315 315 315 315 315 317 316 316 316 317 314 314 314 315 317 317 319 322 324 326 329 329 331 332 335 337
314 315 316 314 313 314 314 314 313 315 316 318 318 316 314 315 315 315 316 315 315 316 317 317 316 316 316 315 314 313 313 315 316 316 318 320 322 325 330 333 332 333 336 338
313 316 315 317 313 314 315 313 313 314 319 317 315 315 315 315 315 316 316 316 317 317 317 317 317 316 315 315 315 314 313 314 317 316 317 319 321 323 329 334 333 334 334 336
314 316 314 313 312 312 312 312 312 314 315 316 313 314 316 316 316 316 316 316 316 317 317 316 317 317 317 316 315 314 312 314 315 316 316 318 320 322 327 335 334 334 335 336
310 312 312 313 311 310 312 313 313 313 313 313 313 314 314 314 315 315 316 316 316 316 316 316 316 316 316 316 315 313 312 313 314 314 316 317 320 322 327 336 335 336 336 340
310 313 314 315 311 311 314 312 312 313 312 313 315 314 314 315 315 316 316 316 316 316 316 316 316 316 316 315 314 313 312 312 313 314 315 316 319 323 327 336 335 337 341 345
310 311 313 315 312 316 312 312 313 314 315 314 315 315 314 315 315 315 314 315 316 316 316 316 317 316 314 314 314 313 311 311 312 310 312 316 320 325 330 336 336 341 347 349
309 310 313 315 315 313 313 314 314 316 315 314 314 314 315 315 314 315 314 315 315 316 316 316 315 314 314 313 313 311 311 311 311 311 314 318 322 325 334 336 340 347 349 349
312 310 312 316 319 318 316 314 314 314 317 317 316 315 315 314 314 313 315 315 314 314 316 316 314 313 312 313 311 312 312 311 313 316 320 321 322 328 336 339 346 348 348 348
314 313 315 314 318 315 314 314 314 318 317 315 314 314 313 316 315 315 315 313 315 315 314 313 312 312 312 312 312 312 312 312 312 314 317 320 331 335 340 344 343 344 344 346
315 316 317 318 319 317 314 313 316 315 315 315 315 314 313 313 314 313 313 313 313 313 312 311 311 311 311 312 312 313 314 312 312 330 335 337 339 340 341 340 341 342 343 343
316 313 315 314 315 314 313 313 312 312 313 312 313 313 312 313 313 312 311 311 311 311 311 310 310 310 310 311 312 315 313 311 314 330 336 339 339 339 339 339 340 341 343 339
311 310 312 313 312 312 313 313 313 312 313 313 313 312 312 311 312 310 309 309 309 311 311 309 309 310 310 310 312 312 311 312 315 328 335 337 338 339 339 340 342 342 340 340
311 311 312 312 311 309 310 311 310 312 312 312 309 309 309 308 309 308 309 309 308 307 307 307 309 309 309 310 313 312 312 312 317 329 332 333 335 335 334 335 341 341 338 336
308 309 310 310 306 305 306 307 309 312 311 309 309 308 308 305 305 305 305 305 306 307 306 306 307 307 309 312 312 313 312 314 318 330 330 328 328 330 332 330 324 333 333 332

GFSCGP_925_thetae_084.txt.gz
Theta_e
316 317 317 317 317 317 318 318 317 317 318 318 317 317 317 318 318 318 320 322 322 322 323 320 321 322 320 324 328 330 329 331 333 332 332 336 339 346 344 345 344 342 342 339
316 317 317 316 316 316 317 317 316 315 316 316 316 317 317 317 318 319 319 320 321 322 322 323 321 320 323 325 325 327 329 330 329 329 328 329 330 328 333 340 345 344 343 341
316 317 317 316 315 316 316 316 315 315 316 316 317 318 318 317 318 319 319 319 320 321 321 323 323 322 323 324 324 323 322 325 327 327 324 324 326 327 327 327 329 336 346 346
316 316 316 315 315 314 314 315 315 316 316 316 316 318 318 318 319 319 319 319 320 319 320 322 323 324 323 322 321 321 323 321 321 327 327 325 326 327 326 328 329 331 337 345
316 316 316 316 315 315 315 315 315 315 316 316 316 317 317 318 318 318 320 320 318 318 319 320 320 319 320 320 319 321 322 321 320 321 325 328 328 329 327 327 325 328 336 337
316 316 316 316 316 315 315 315 315 315 315 317 316 317 318 318 319 319 319 318 318 318 319 320 319 320 320 319 319 319 321 323 323 322 323 324 327 329 328 326 331 332 331 333
318 318 317 317 316 316 315 315 317 318 319 319 318 319 321 321 317 318 319 318 317 315 317 318 320 322 321 320 320 320 320 322 325 325 324 324 324 326 329 329 330 329 326 331
318 318 317 317 317 317 317 317 318 320 323 321 319 321 319 319 319 317 317 318 316 315 316 318 319 322 320 319 320 320 320 322 323 324 324 324 324 325 326 327 327 326 326 325
319 318 318 318 317 317 318 319 317 318 320 323 321 317 317 319 320 318 316 316 316 316 318 317 318 318 318 318 319 320 320 320 322 321 321 323 323 323 325 326 327 329 333 333
316 317 316 316 316 317 317 317 317 318 323 323 317 316 317 319 319 317 315 315 316 317 317 317 319 319 317 316 316 320 320 322 320 322 321 320 320 324 324 325 327 326 327 328
316 317 317 316 317 317 317 319 318 317 319 322 321 317 320 319 319 318 318 316 317 317 316 316 318 318 317 316 317 319 321 321 321 319 319 320 319 319 322 324 325 327 328 329
317 318 318 319 317 316 317 318 319 323 322 322 320 321 319 318 319 319 319 316 316 318 318 317 318 318 317 317 317 317 319 319 319 318 317 317 319 320 323 322 324 326 329 330
317 318 320 318 317 317 320 318 318 319 321 322 324 321 317 320 319 318 318 317 318 318 318 317 317 319 319 317 318 317 317 318 318 318 318 317 316 317 320 322 321 324 327 330
315 316 317 319 315 316 318 318 318 318 322 323 320 317 316 318 320 318 317 317 317 319 319 318 319 318 319 318 318 318 318 318 318 318 318 317 317 316 316 321 324 324 325 326
315 318 317 316 314 314 313 314 314 318 319 322 318 315 316 317 318 319 317 317 318 316 318 319 318 320 321 320 320 319 318 318 318 318 318 318 317 316 317 318 319 321 324 325
316 320 317 315 313 313 312 312 311 311 313 317 313 314 314 316 316 315 316 317 318 318 318 319 319 319 319 320 320 319 319 319 319 318 318 317 316 315 315 317 317 318 318 325
311 311 313 313 311 312 316 316 315 313 315 314 316 318 319 319 318 319 318 318 319 318 318 318 318 319 321 319 318 319 320 319 318 319 318 317 316 315 314 314 315 317 318 320
310 310 312 315 313 317 312 314 315 316 316 317 318 319 319 319 318 317 317 318 319 317 317 317 319 320 319 318 318 317 316 319 319 319 319 317 316 314 313 313 314 315 315 316
313 313 316 317 317 313 312 318 318 318 317 319 320 318 317 316 316 317 316 316 316 317 317 317 316 316 316 316 315 316 317 316 318 318 317 317 316 314 313 313 313 314 315 314
316 316 318 317 317 316 320 318 317 317 323 318 317 316 316 315 316 315 317 316 316 316 316 316 314 315 315 316 316 316 316 316 319 317 316 316 316 315 314 313 313 312 312 313
319 317 315 317 318 316 318 318 317 318 321 317 315 315 315 316 315 316 316 316 315 314 314 312 312 314 314 314 313 313 312 312 314 315 314 314 314 314 313 312 312 312 312 313
319 318 320 320 320 320 316 317 318 317 315 314 315 314 313 315 315 315 315 315 314 314 313 312 312 312 312 312 311 311 312 311 313 312 311 311 311 311 310 311 311 310 312 315
318 317 321 318 319 318 316 315 314 313 313 312 311 311 311 311 311 313 314 313 312 312 310 309 311 311 310 310 310 310 310 311 311 311 311 311 311 310 309 311 310 310 315 318
313 313 315 316 314 313 311 311 310 309 309 308 307 310 309 310 310 310 310 310 309 310 309 308 308 309 309 309 309 309 310 310 311 312 312 314 319 314 310 311 313 314 322 324
314 314 313 312 311 309 308 307 306 306 306 308 306 304 304 305 306 306 307 307 308 307 306 307 307 307 307 306 307 308 310 311 312 315 319 320 315 313 311 311 313 321 326 332
312 312 312 313 308 307 306 305 305 307 307 306 304 304 303 302 303 303 304 304 304 305 304 304 304 304 305 307 309 310 310 312 316 320 328 325 320 319 318 321 321 321 331 336

GFSCGP_925_thetae_087.txt.gz
Theta_e
312 312 312 313 313 313 314 315 316 316 315 313 313 313 314 315 315 314 314 315 316 317 317 320 323 325 326 325 326 324 330 344 337 335 333 330 331 344 344 342 343 341 338 343
312 312 314 316 316 315 314 314 314 315 314 314 312 313 313 314 315 315 314 314 314 316 317 320 322 322 325 327 328 330 330 331 341 341 340 337 332 329 343 342 346 345 344 341
313 315 316 316 315 315 313 313 314 315 314 314 313 314 314 315 315 314 315 314 315 314 317 318 320 322 324 324 323 325 328 329 327 328 332 332 334 331 331 342 338 343 345 343
312 314 315 314 315 314 313 313 314 315 314 313 314 314 314 314 315 315 314 315 315 315 316 317 319 323 325 324 322 322 322 321 322 326 327 325 325 326 326 326 326 325 326 334
314 314 314 314 315 315 313 314 313 314 313 311 312 312 313 313 315 315 315 315 314 314 313 318 320 323 323 322 320 319 319 321 320 318 325 327 327 327 329 328 326 325 329 336
313 314 314 314 315 315 315 314 312 313 311 313 312 313 314 314 316 318 316 316 316 314 316 317 318 321 321 320 319 319 320 320 320 322 321 322 324 327 327 325 327 330 328 326
314 315 315 316 315 314 314 312 313 313 313 315 313 315 314 317 318 317 317 316 315 313 314 314 315 317 318 319 319 319 320 320 320 322 323 323 323 324 325 327 325 321 323 324
317 318 317 317 316 316 316 315 316 319 317 317 316 319 317 317 317 317 317 316 314 311 311 313 317 317 318 319 319 320 320 319 320 322 324 324 325 323 323 325 327 327 324 318
316 316 316 315 315 315 316 316 315 318 319 320 316 317 317 317 317 317 316 316 313 312 313 315 314 316 318 319 319 320 319 320 320 325 325 322 320 324 322 321 322 324 327 331
316 317 316 315 315 314 314 315 316 318 325 325 319 318 316 318 318 317 317 315 314 314 314 314 313 314 316 316 318 319 319 319 319 321 321 320 320 319 319 323 324 323 324 326
315 315 317 317 315 316 315 314 316 321 319 323 321 315 317 319 317 316 316 316 314 314 312 312 311 314 316 316 315 315 320 319 319 320 320 320 321 319 318 318 318 321 322 324
315 315 318 318 316 315 314 317 318 324 325 322 324 322 317 317 317 316 316 317 315 315 314 313 311 312 315 316 316 315 318 321 321 320 320 321 319 319 320 320 318 318 323 324
316 317 318 318 315 314 318 317 317 319 319 321 323 321 318 317 317 316 316 315 316 316 315 315 317 314 313 314 315 315 316 321 320 320 321 318 317 317 317 315 315 320 322 320
318 315 318 321 318 315 316 314 314 319 321 320 321 318 316 316 318 316 315 315 316 315 315 316 316 316 314 315 316 317 317 317 318 319 318 317 317 317 316 315 316 320 319 320
314 317 317 317 318 317 316 313 312 312 314 319 315 317 315 315 316 313 316 315 315 315 315 315 314 315 313 316 318 318 318 317 318 318 318 317 317 317 316 315 314 314 313 316
312 316 317 317 314 312 311 311 311 312 313 313 314 316 316 316 315 316 316 316 318 318 318 317 317 316 317 317 317 317 317 318 318 318 319 318 318 317 317 315 316 317 318 317
308 309 309 310 310 311 312 310 312 315 315 318 318 317 317 318 317 316 315 315 317 318 315 315 314 314 315 317 318 318 317 317 316 316 318 318 318 318 316 315 314 316 316 315
308 309 308 310 311 314 311 315 316 315 317 318 319 319 317 316 316 317 313 313 314 315 316 313 312 311 313 313 314 315 316 317 316 316 316 316 318 318 317 316 315 314 313 313
313 311 309 311 310 313 313 318 317 318 319 317 315 315 315 314 313 312 312 312 311 311 311 311 313 313 313 312 313 314 314 314 315 316 316 316 316 317 317 315 314 313 313 313
314 313 310 310 312 312 319 318 316 317 319 315 314 314 313 313 315 313 312 311 311 311 311 311 311 311 311 311 311 312 314 313 315 315 315 316 316 316 316 316 314 313 312 312
316 314 310 311 310 315 317 316 314 319 318 311 311 311 310 310 310 309 308 308 308 310 311 311 311 310 309 309 309 309 310 311 311 311 311 311 311 313 316 316 315 313 312 312
314 314 316 318 317 313 313 314 315 312 309 308 307 306 306 306 307 307 307 308 309 309 309 309 308 307 307 307 307 309 309 309 309 309 309 310 311 313 314 315 315 314 312 312
314 316 318 314 313 313 308 311 308 305 305 305 305 305 306 306 305 304 304 304 305 305 306 306 305 306 306 306 306 306 307 308 309 309 309 310 311 311 311 312 313 314 313 311
313 313 312 313 313 308 307 307 305 304 304 305 305 307 304 305 303 303 303 302 302 302 304 303 304 304 305 306 306 305 305 306 307 308 309 309 310 310 309 310 311 311 311 311
313 313 309 310 309 307 308 306 305 304 305 306 306 303 303 303 301 302 302 301 301 302 302 302 302 303 304 304 304 305 305 306 308 310 310 311 312 313 314 312 310 311 310 310
310 310 310 310 307 306 305 304 304 305 305 305 305 303 302 302 300 299 300 300 300 300 301 301 302 302 303 304 305 306 307 308 309 311 312 314 312 311 313 314 311 310 310 310

GFSCGP_925_thetae_090.txt.gz
Theta_e
310 309 309 310 309 311 311 311 311 313 314 313 311 310 311 311 312 312 312 311 312 314 315 317 319 319 322 326 328 329 335 342 342 343 342 340 334 336 339 336 338 337 340 340
310 309 311 312 313 314 313 312 312 312 313 313 311 311 311 312 312 313 313 312 311 312 314 316 320 325 325 328 330 330 329 338 343 342 342 336 333 334 339 343 342 344 345 344
310 311 313 313 313 314 313 312 312 312 313 312 312 311 312 312 313 313 312 311 311 311 311 315 319 323 325 326 327 327 326 330 339 339 338 336 335 335 333 335 338 343 345 343
309 310 312 313 313 313 312 312 313 313 313 311 312 313 311 311 311 312 312 310 310 310 312 312 318 318 323 326 327 327 327 326 326 332 335 331 329 331 331 331 331 335 334 333
312 312 312 313 313 313 313 313 312 313 311 309 311 310 311 310 312 312 312 311 312 312 311 311 317 320 323 322 321 320 319 319 319 319 320 323 325 325 326 326 325 328 331 328
312 312 312 312 313 313 313 313 311 310 308 311 309 310 312 311 311 312 315 314 314 313 313 311 318 322 321 320 319 319 319 318 317 316 317 321 323 323 324 324 325 326 326 326
313 312 312 313 313 312 312 310 314 314 314 315 310 311 312 311 313 315 315 314 313 311 316 317 320 320 319 318 319 319 319 319 319 320 320 319 319 321 322 323 324 323 324 326
314 316 315 316 315 313 313 312 314 320 317 317 314 315 314 314 314 315 316 314 313 313 312 314 319 318 318 317 318 318 318 318 319 320 320 321 322 323 323 323 323 324 325 325
315 316 315 315 315 314 314 314 314 317 320 319 319 318 315 315 315 315 314 313 315 315 314 314 314 316 317 316 316 318 318 318 319 319 320 322 323 323 321 321 320 321 321 322
314 315 315 315 315 315 314 314 316 315 326 327 323 320 318 315 316 316 315 313 312 313 313 311 313 315 316 316 317 318 319 319 319 319 320 322 323 323 321 320 319 322 323 323
313 313 316 316 316 316 315 315 318 319 318 326 325 318 314 316 315 315 316 316 315 313 313 313 312 315 315 313 318 318 318 319 319 319 320 322 323 321 320 320 319 318 317 319
314 315 317 316 315 315 315 316 316 316 320 323 321 321 315 316 317 315 315 316 315 314 312 313 312 314 314 314 313 315 317 317 318 319 319 322 322 319 319 319 319 318 320 319
315 315 317 317 314 313 315 317 316 315 316 314 313 315 315 314 315 315 316 315 313 313 313 311 313 313 312 313 313 313 313 317 318 317 318 319 319 319 319 320 318 319 316 315
313 315 316 319 318 316 318 317 315 316 317 315 316 316 315 314 316 315 315 314 313 312 313 312 313 314 313 314 314 314 314 312 316 318 319 318 319 319 320 319 317 317 316 316
311 315 316 315 316 316 315 316 315 314 313 314 312 313 313 313 316 316 315 314 314 313 313 314 314 312 311 313 314 315 317 317 315 317 319 319 319 319 319 318 316 316 315 316
308 311 315 312 312 313 312 309 308 308 309 314 314 315 315 316 316 316 316 316 316 317 316 315 314 314 313 314 315 316 316 316 317 317 316 316 315 316 317 316 316 316 315 315
306 308 308 309 308 310 310 310 311 313 316 316 318 316 316 317 315 313 314 313 314 314 314 314 312 311 311 312 313 313 313 313 315 316 316 316 316 317 317 316 316 315 315 315
306 306 306 307 308 312 309 315 315 317 317 316 315 314 314 313 312 312 312 310 311 310 310 310 309 308 310 312 312 312 312 312 313 314 315 315 315 315 315 317 316 316 316 315
304 306 311 312 306 310 314 318 317 318 319 314 313 313 311 311 310 311 310 308 307 307 307 307 308 309 310 310 310 310 310 311 311 312 312 313 314 314 314 315 315 315 314 315
312 308 308 304 311 310 318 316 314 314 317 311 309 309 308 306 307 306 306 305 306 305 306 306 308 309 309 309 309 309 308 309 310 311 312 312 313 314 314 315 315 315 314 313
312 307 305 309 310 312 314 313 314 317 313 307 305 305 305 305 305 305 305 305 304 304 303 303 303 304 306 306 306 306 306 306 306 307 308 309 310 313 313 313 313 314 314 313
311 316 311 314 317 315 310 310 311 310 305 304 304 304 305 304 305 305 304 303 303 301 301 302 303 303 303 304 304 305 305 306 306 306 308 309 309 310 310 310 310 310 311 314
313 314 312 314 309 310 307 308 306 304 303 303 304 305 305 305 306 303 302 303 301 301 302 302 300 301 302 303 303 303 304 305 306 307 308 308 308 308 308 308 309 310 311 312
309 310 311 310 309 306 306 306 306 304 304 303 305 305 304 304 304 302 301 302 300 299 299 300 300 301 302 302 302 302 303 304 305 305 306 306 307 307 308 309 310 310 311 312
310 310 309 307 306 306 307 305 305 304 304 304 305 303 304 304 300 300 300 300 300 299 300 300 300 301 301 302 302 303 303 304 305 306 307 307 308 308 309 309 310 310 310 312
308 306 302 303 304 306 306 305 305 304 304 303 304 304 303 300 299 299 299 298 298 299 299 300 300 301 302 302 303 304 305 306 307 308 308 310 311 312 312 312 312 309 310 309

GFSCGP_925_thetae_093.txt.gz
Theta_e
309 308 308 308 307 309 310 309 310 310 311 312 310 310 309 309 309 309 309 309 309 310 311 315 317 317 320 322 332 344 345 345 346 349 351 349 347 345 345 345 344 343 341 338
308 308 309 309 310 310 310 311 311 311 310 310 310 310 309 310 311 311 311 311 310 309 309 311 316 318 320 323 327 333 343 344 342 342 343 343 344 345 345 343 342 340 334 329
308 309 311 311 311 311 311 312 312 312 311 311 311 311 310 310 310 310 310 310 309 309 309 308 311 318 321 323 326 328 336 340 340 340 341 337 334 334 339 340 343 341 339 337
308 309 310 310 311 311 310 310 311 312 311 311 310 312 310 310 309 310 309 308 308 308 308 308 310 315 320 323 325 327 329 335 340 342 342 339 334 333 332 332 332 337 343 342
311 310 310 311 311 311 311 311 311 312 310 309 310 308 309 309 310 310 309 308 308 308 308 309 309 312 317 321 324 328 328 330 334 337 336 333 331 330 330 330 330 329 326 332
311 310 310 311 312 311 312 312 310 307 307 311 310 309 311 309 310 309 310 310 311 311 310 311 313 311 316 321 325 326 325 324 324 323 322 324 325 327 326 326 325 326 326 325
312 312 311 312 312 311 312 309 311 312 312 316 312 310 311 310 310 310 310 310 311 310 311 316 313 315 319 319 323 322 320 318 317 315 315 314 315 317 320 321 322 323 322 321
312 314 313 314 311 311 311 310 312 317 316 316 314 317 314 311 310 310 311 311 311 310 311 316 318 317 318 317 316 318 318 317 317 317 316 317 317 316 315 315 317 318 320 320
314 315 314 314 314 313 313 313 311 314 317 317 316 316 315 314 313 314 314 313 310 310 310 313 313 315 317 317 318 319 318 318 318 317 317 317 318 318 319 320 320 320 319 318
313 315 313 315 315 315 314 314 315 314 324 323 320 320 318 315 315 315 314 313 312 311 310 310 311 314 316 317 315 315 317 317 317 317 318 318 319 320 321 322 321 320 319 321
313 312 314 315 316 316 315 317 319 319 320 326 325 319 311 315 314 315 313 313 314 312 311 310 311 312 313 314 316 316 316 317 317 318 318 318 319 321 322 322 321 320 318 319
315 315 317 316 314 314 315 316 318 323 323 322 322 317 313 312 315 313 313 314 314 314 312 311 310 312 314 314 314 313 315 316 317 316 318 318 319 319 322 322 321 320 318 317
313 315 318 316 314 315 317 316 316 316 315 315 317 315 313 311 312 311 311 312 313 314 314 313 310 309 311 312 313 314 312 312 315 316 316 317 319 319 321 322 321 320 319 318
312 316 320 321 318 316 318 317 316 317 319 316 316 314 311 310 311 311 313 315 315 315 314 313 309 309 310 311 311 312 313 314 314 315 315 316 316 318 319 321 321 319 318 318
312 315 313 313 311 313 315 315 314 314 313 314 312 311 310 314 313 314 314 315 316 315 315 314 313 311 310 311 313 314 315 315 315 314 313 315 316 316 317 318 319 319 318 319
307 309 312 310 309 309 310 311 311 310 308 307 311 313 314 314 313 313 313 312 313 312 312 312 312 311 310 310 311 312 312 312 312 313 316 315 316 317 317 317 318 318 318 318
306 307 310 310 308 309 310 309 311 310 316 316 316 316 315 314 312 311 311 311 310 310 309 309 308 308 308 308 309 309 311 311 311 311 312 313 315 316 315 316 316 317 317 317
305 305 306 308 308 312 309 315 315 316 317 317 315 312 310 310 309 307 306 308 307 306 305 305 305 305 306 306 307 308 309 309 310 310 311 311 311 312 314 315 316 316 316 315
305 306 309 310 308 309 312 318 316 315 315 312 311 309 306 306 304 304 305 304 304 304 304 304 304 304 304 304 304 307 308 308 308 309 310 311 311 312 312 313 314 314 315 315
309 307 308 305 313 311 311 314 313 313 317 310 306 304 304 304 305 305 303 303 303 304 304 302 301 302 302 301 302 303 305 307 307 308 309 309 310 311 312 313 313 313 314 314
313 307 310 313 314 311 314 311 311 316 311 305 303 303 303 305 304 304 304 304 304 303 302 301 301 300 300 301 302 303 304 305 306 306 306 306 307 307 308 308 309 310 312 313
309 315 313 314 315 315 310 308 310 307 304 304 303 303 303 303 304 304 304 303 304 303 301 300 301 300 301 301 300 300 300 301 302 304 305 305 306 306 307 307 307 308 311 313
311 311 308 311 308 307 307 305 305 304 305 304 304 303 304 304 304 302 302 303 300 298 300 301 300 299 299 299 300 301 302 302 302 302 303 303 304 304 305 306 307 309 309 310
307 309 311 311 309 307 305 305 305 304 305 305 303 303 304 304 304 303 300 300 299 299 299 299 299 299 300 300 300 301 301 302 302 303 303 304 304 305 306 307 308 308 308 309
305 307 307 307 305 304 306 305 304 305 303 303 303 304 304 304 304 302 299 298 299 298 298 298 298 299 299 300 300 301 302 302 303 303 304 304 305 306 306 307 307 308 309 308
309 307 300 302 302 304 305 304 304 303 303 303 303 304 304 302 303 300 298 297 297 297 297 298 298 298 299 300 301 302 303 304 305 306 306 306 307 308 308 309 308 307 308 309

GFSCGP_925_thetae_099.txt.gz
Theta_e
311 314 314 313 312 312 312 312 313 314 314 313 315 315 316 316 316 315 316 317 317 318 318 316 316 315 313 315 316 317 334 342 346 345 345 345 345 344 344 343 339 342 339 333
312 313 313 312 311 311 312 313 314 314 314 314 315 316 315 315 315 316 316 317 317 318 317 318 317 317 316 316 316 317 318 335 343 344 345 346 346 346 345 343 337 335 333 335
314 313 311 311 312 312 313 314 314 314 315 314 314 315 315 315 314 315 315 316 317 317 317 318 318 317 316 317 314 315 318 320 337 344 346 343 345 344 344 344 344 339 338 339
312 313 312 312 312 312 314 313 313 314 315 315 313 316 316 316 316 316 316 317 316 316 317 317 316 316 317 316 316 315 316 320 328 341 343 343 344 345 345 345 346 347 345 344
313 312 312 312 313 312 313 312 313 314 315 315 315 316 316 315 315 316 317 317 317 315 314 315 315 315 316 316 316 315 315 318 325 338 342 343 344 345 345 346 346 346 345 344
313 311 312 313 312 312 313 314 315 312 313 316 316 316 317 317 317 317 316 315 317 317 317 317 315 315 316 318 319 318 318 317 320 332 338 343 344 343 338 339 342 342 342 343
315 315 313 312 314 314 314 315 317 317 318 318 317 317 317 317 316 316 316 318 317 317 316 317 316 316 317 320 321 321 320 321 322 326 332 338 342 340 338 337 338 336 335 334
315 316 314 313 314 315 315 316 317 323 321 320 317 318 318 317 315 316 317 317 315 315 315 316 317 317 317 318 321 321 321 322 323 324 327 333 337 335 334 332 332 332 331 331
317 316 315 315 315 314 316 316 316 317 318 319 319 318 317 317 317 317 317 315 314 314 315 315 316 316 317 316 317 319 320 321 322 323 327 332 333 333 332 331 329 328 326 325
317 318 316 315 315 316 316 316 318 319 322 324 320 320 320 319 318 317 316 315 314 314 314 315 316 316 316 316 315 317 318 319 320 322 325 327 326 325 320 317 316 316 316 319
315 317 317 316 317 318 318 319 320 319 321 325 324 321 319 319 316 315 313 313 314 315 316 316 317 316 315 315 315 315 316 318 319 319 320 320 319 318 317 318 317 316 317 320
314 317 320 318 316 316 316 318 318 327 327 324 325 323 316 316 314 314 314 315 315 314 316 317 316 315 314 313 313 314 314 314 315 319 320 318 319 317 317 320 317 322 324 318
314 319 320 318 316 317 318 318 318 320 318 324 325 321 315 315 315 314 314 315 314 313 315 316 315 315 313 312 312 311 311 312 314 314 317 318 320 319 319 319 320 318 321 324
313 316 317 319 317 319 320 319 318 318 323 320 321 318 315 312 312 314 315 314 313 310 311 311 314 314 312 312 310 310 310 309 310 311 314 315 317 316 316 317 318 318 317 322
313 317 315 314 315 315 313 312 313 314 315 316 313 312 311 311 314 315 313 312 311 309 309 309 312 311 309 309 308 308 307 308 308 309 310 312 314 316 315 315 315 319 320 321
313 313 313 313 311 309 309 309 309 309 310 310 311 312 312 314 312 312 311 310 309 309 308 308 309 308 308 306 306 306 306 306 306 307 308 309 310 313 314 316 316 317 319 321
312 312 311 311 309 309 312 312 310 310 310 311 314 315 315 315 314 311 309 308 308 307 306 307 307 306 306 305 305 305 305 304 305 306 306 306 308 310 311 313 315 317 319 320
311 310 312 312 310 312 313 316 314 314 315 316 317 316 316 312 309 307 308 307 306 306 305 305 305 305 305 305 304 304 304 304 304 305 305 304 305 307 309 310 312 315 317 319
308 310 312 313 313 312 311 316 316 315 315 313 314 314 311 309 308 309 309 307 305 305 305 305 304 305 305 304 303 303 304 304 304 303 303 303 304 305 307 308 310 311 313 315
309 309 312 312 314 316 315 315 312 313 316 311 310 311 310 308 309 309 308 306 305 305 304 304 305 304 303 303 303 304 303 303 303 302 303 303 304 304 305 307 309 310 311 313
311 311 312 311 315 314 313 312 310 316 315 310 309 309 308 308 308 307 306 305 305 305 304 304 303 303 302 302 302 302 301 301 302 302 302 303 303 304 305 306 307 308 310 311
317 315 313 313 315 316 312 311 314 312 309 308 308 307 307 306 305 303 303 304 304 304 304 302 302 303 301 301 300 300 301 301 301 301 301 302 302 303 303 304 304 305 307 309
315 314 314 315 315 312 310 310 309 307 308 307 307 305 305 305 304 304 304 304 303 304 302 301 302 300 300 299 300 301 300 300 301 301 301 302 303 303 304 304 305 305 306 307
310 310 312 311 311 310 309 308 307 307 306 305 305 305 305 305 304 304 304 303 304 302 300 299 300 299 299 299 299 299 299 299 300 300 301 301 302 302 303 303 304 304 305 307
307 307 309 311 310 308 308 308 306 305 305 304 304 304 303 304 304 304 303 303 303 301 299 298 299 298 298 298 298 298 299 299 299 300 300 301 301 302 302 303 303 304 304 305
308 311 313 312 308 307 308 306 305 305 304 304 304 303 303 303 303 303 302 302 301 299 296 297 297 297 297 297 297 297 298 298 299 300 301 301 302 302 303 304 304 304 304 304

GFSCGP_925_thetae_102.txt.gz
Theta_e
315 316 316 316 315 314 314 314 315 316 317 317 318 318 318 319 318 319 319 319 319 319 320 319 319 321 320 321 324 328 328 344 351 351 351 350 349 348 348 347 346 344 341 342
316 315 316 316 315 314 314 315 316 317 317 317 318 318 318 319 319 319 319 319 319 319 320 320 319 319 321 322 323 325 329 331 343 348 348 347 346 346 348 348 348 345 344 343
317 316 314 315 315 315 315 316 317 317 317 317 318 319 318 318 319 318 319 319 319 319 320 320 320 320 320 321 322 324 327 331 334 338 342 347 347 349 349 349 348 347 345 345
316 316 315 315 315 315 316 316 316 317 317 318 318 319 319 319 319 319 319 319 319 319 320 320 320 319 319 320 320 322 324 327 330 335 338 344 347 345 345 347 347 347 345 343
316 315 315 316 315 315 315 315 316 316 318 319 319 321 321 321 319 319 320 320 320 320 320 321 321 320 320 320 320 321 323 327 329 331 337 339 344 340 340 342 344 346 346 344
316 316 315 317 316 316 316 316 318 319 320 321 320 321 321 321 321 321 320 320 320 321 320 320 320 320 319 320 321 324 325 326 327 330 332 338 340 341 339 340 344 346 350 350
318 318 317 316 317 317 317 319 321 322 323 324 322 322 322 321 321 320 320 320 321 319 319 319 319 320 320 320 322 324 325 326 327 328 328 331 336 342 346 346 343 346 347 346
319 319 317 317 317 318 319 320 322 324 325 326 323 324 323 320 319 319 320 320 319 319 318 318 318 318 319 320 320 320 323 325 326 327 328 328 329 332 338 341 341 343 343 343
320 320 317 316 317 317 320 322 320 322 323 324 323 323 321 320 320 320 320 319 319 318 318 317 317 317 318 318 319 320 321 323 326 327 328 328 329 330 334 339 342 343 342 339
320 324 321 320 318 318 318 319 322 322 329 328 324 323 323 322 320 320 320 318 317 317 317 317 317 317 317 317 317 319 320 320 323 324 326 328 331 332 335 337 340 339 337 334
317 320 321 319 319 319 319 321 321 323 326 329 328 324 322 321 321 320 319 317 317 317 316 316 317 316 317 317 317 318 319 319 319 320 323 325 328 330 333 334 335 331 328 325
317 320 323 321 319 319 319 320 319 327 328 327 329 328 321 321 319 318 318 317 316 316 316 316 317 317 317 317 317 317 317 316 317 318 319 322 323 323 324 325 326 326 327 326
318 322 323 321 320 319 320 319 319 320 323 327 329 325 319 318 318 317 315 315 316 316 316 315 315 316 316 316 316 316 316 315 315 314 316 319 321 324 324 324 325 324 326 327
314 319 321 323 320 319 320 318 319 322 325 323 324 323 320 318 315 314 315 316 316 316 315 314 313 314 314 313 313 313 314 314 314 314 313 315 316 319 322 324 324 324 324 323
316 318 318 317 316 315 315 317 318 318 321 324 320 319 317 313 314 315 316 316 316 315 314 314 313 312 312 311 311 310 310 311 311 311 312 312 314 315 316 319 321 321 321 321
315 318 315 315 313 312 313 313 313 313 312 314 316 314 312 315 316 316 316 315 313 313 312 312 311 311 311 309 309 309 309 309 309 309 309 310 312 312 314 317 318 318 316 320
317 315 316 315 312 312 313 313 314 314 313 312 314 314 315 316 316 316 315 313 313 313 311 311 310 310 309 308 308 308 308 308 308 308 308 309 310 311 312 314 316 318 320 321
315 315 315 316 313 315 315 316 315 316 315 314 315 315 315 315 314 313 313 313 313 312 311 310 310 309 308 307 307 307 307 308 307 307 308 308 309 309 309 311 313 315 318 320
311 314 318 318 316 314 313 314 317 317 317 315 316 316 314 313 312 312 311 311 311 311 310 309 308 307 306 306 306 305 305 305 305 306 308 308 308 308 308 309 311 313 315 317
313 312 317 318 318 318 319 316 314 315 318 316 314 313 312 311 312 312 311 310 309 309 307 305 305 305 305 305 305 305 306 305 305 305 305 305 306 307 307 308 309 310 312 314
315 315 317 316 318 316 316 315 313 318 319 314 312 312 311 311 310 310 308 307 305 305 305 305 305 305 304 303 304 304 305 304 304 304 304 304 305 306 307 307 308 309 310 312
316 317 317 316 318 317 315 314 316 317 314 311 311 310 308 307 307 306 307 307 306 306 305 305 305 304 304 303 302 303 303 303 304 303 303 303 303 304 306 307 308 309 310 311
316 315 319 318 317 315 314 314 313 312 311 311 309 308 306 306 306 306 306 306 306 305 306 304 304 303 303 301 302 303 302 302 303 303 303 303 303 303 305 306 307 308 308 309
311 311 313 313 313 313 312 311 311 309 310 309 307 306 305 305 305 306 305 305 306 305 304 303 303 302 300 299 300 300 301 300 300 301 301 302 302 303 304 305 306 307 308 309
308 309 309 311 311 311 311 310 310 309 308 307 306 306 306 305 305 305 305 305 304 302 302 299 299 299 298 298 298 299 300 299 299 299 300 301 301 302 302 303 304 305 306 308
309 310 314 313 310 311 310 310 309 309 307 307 306 304 303 304 304 303 303 301 301 301 299 297 297 297 297 297 297 297 297 298 298 299 299 300 301 302 302 302 303 303 304 305

GFSCGP_925_thetae_105.txt.gz
Theta_e
319 319 319 319 318 318 318 317 318 319 318 318 319 320 320 320 320 321 321 321 321 321 322 321 320 321 322 323 324 327 330 334 349 352 352 352 352 351 351 351 350 351 351 350
319 319 319 319 318 318 317 317 318 318 319 319 320 320 320 320 321 321 321 321 322 322 322 322 321 321 321 322 324 326 327 331 336 341 349 349 349 347 348 348 349 350 350 350
320 320 319 318 318 318 318 318 319 319 319 320 320 321 321 320 321 321 321 321 321 321 322 322 322 321 321 322 322 323 326 329 333 334 339 349 349 348 345 344 347 350 350 349
320 320 319 318 317 317 319 318 318 317 319 319 320 321 322 322 322 322 321 322 322 321 321 321 322 322 322 322 321 321 323 327 329 333 334 335 343 344 341 341 341 346 351 351
319 318 317 317 318 318 317 318 318 318 320 320 320 321 322 323 323 323 323 322 322 322 323 323 323 323 322 322 322 322 323 325 329 332 334 334 336 335 337 340 340 343 347 351
318 318 318 318 319 318 318 318 319 320 321 324 323 324 324 324 324 324 324 324 323 323 323 322 322 322 322 322 322 323 325 327 330 331 332 335 339 340 339 337 339 341 345 348
317 318 318 318 318 319 319 320 323 324 324 325 324 325 326 325 324 324 324 323 324 323 322 321 321 321 320 322 322 323 324 326 328 329 330 331 333 337 342 342 338 335 340 345
322 322 319 319 319 319 320 321 321 325 327 326 325 327 328 326 324 323 322 322 323 322 321 321 320 320 320 320 321 321 322 322 324 327 329 331 331 332 331 334 336 339 335 338
322 323 321 320 319 319 321 322 321 327 327 328 325 325 325 325 325 323 322 322 322 322 321 321 320 319 319 319 320 320 320 322 321 323 327 330 332 333 332 332 334 337 340 340
321 325 322 322 322 322 321 321 324 326 336 332 326 327 327 327 326 324 323 322 322 321 320 320 320 319 319 319 319 319 320 320 320 321 323 325 328 331 333 335 336 337 341 342
320 322 323 321 322 322 322 323 323 323 326 332 331 327 324 325 325 325 323 321 320 319 320 319 319 318 317 317 318 318 319 318 319 320 321 322 325 328 330 334 335 338 341 340
319 324 326 323 321 320 322 323 322 331 330 328 330 333 324 324 324 323 322 320 319 319 318 318 317 316 316 316 317 318 318 318 318 318 318 320 323 326 326 329 332 334 337 337
320 323 327 322 322 321 321 322 322 323 327 330 332 328 322 322 322 321 320 319 317 317 318 317 317 316 315 316 316 316 315 316 317 318 318 317 319 323 327 328 326 328 329 330
317 319 320 325 322 323 324 322 321 322 329 326 324 322 321 320 323 321 319 317 317 318 317 317 317 316 315 314 314 315 314 313 313 314 316 316 317 318 320 323 324 324 325 327
317 320 318 317 317 317 318 318 317 318 319 323 323 321 318 319 319 317 317 317 317 317 317 316 315 315 314 313 313 312 312 312 312 312 313 314 315 317 317 319 318 319 317 324
318 319 319 319 317 316 317 316 316 316 316 316 318 318 317 317 316 318 318 317 317 316 315 315 315 314 314 313 312 311 311 311 311 311 312 312 312 313 315 316 320 316 318 318
317 319 321 322 316 317 317 315 317 315 315 316 316 315 315 316 317 317 317 316 315 315 315 315 315 314 313 312 311 311 311 311 311 311 311 311 311 311 312 315 315 319 317 316
315 316 320 319 316 322 317 317 316 316 316 316 316 316 317 317 316 315 314 314 314 314 314 313 313 312 311 310 309 309 309 309 308 308 308 310 310 310 311 312 314 315 319 320
315 316 319 321 319 319 317 316 317 318 317 317 317 317 316 315 314 314 314 313 313 313 312 311 309 308 308 308 307 307 308 307 308 307 307 307 308 308 311 311 313 314 315 319
316 316 319 318 321 319 323 317 316 316 318 318 316 316 315 314 315 314 312 311 310 309 308 308 307 306 307 307 307 307 307 306 306 306 306 307 307 308 309 311 312 312 313 315
320 319 317 320 321 318 318 317 315 319 321 316 314 314 314 313 312 311 310 309 308 308 308 306 306 306 306 306 306 307 306 306 304 305 306 306 306 307 307 308 311 312 312 312
319 319 320 318 322 321 317 316 318 317 315 314 314 313 312 311 310 310 309 308 308 307 307 306 306 307 305 306 305 306 305 304 304 304 305 306 306 306 306 306 306 309 311 313
317 317 321 318 320 317 316 317 313 313 313 313 313 311 310 310 309 309 308 307 306 307 306 304 304 303 302 303 304 304 304 302 302 304 304 304 304 305 305 305 306 306 309 310
313 314 316 314 315 314 315 312 312 311 311 312 311 310 310 309 308 307 306 306 306 305 304 301 302 300 302 300 301 301 300 300 301 302 303 303 303 303 304 305 305 306 306 308
311 310 311 311 311 314 313 312 311 311 311 310 309 309 308 307 306 306 306 306 305 302 301 299 298 298 298 298 297 298 299 298 299 300 301 301 300 300 302 303 304 305 305 307
311 312 314 316 314 313 312 311 311 311 309 309 308 308 307 306 306 305 305 305 303 301 298 296 296 296 296 295 295 296 296 296 297 298 299 299 300 300 301 302 303 303 304 306

GFSCGP_925_thetae_108.txt.gz
Theta_e
318 318 318 318 318 319 318 319 319 320 320 320 319 320 320 320 320 321 322 323 324 324 324 323 322 322 323 323 325 326 329 328 331 354 355 358 357 357 355 354 354 352 351 352
319 320 320 320 320 319 319 319 319 319 319 319 319 319 320 321 322 322 322 324 324 325 325 325 323 323 323 323 324 326 326 330 330 327 350 354 355 353 356 354 352 353 352 351
319 320 320 320 319 319 319 319 319 319 319 320 320 320 321 321 321 322 323 324 324 324 325 327 328 326 324 325 325 323 323 328 331 335 331 336 347 348 352 353 352 351 352 353
320 320 320 320 319 318 319 319 319 319 319 319 320 321 323 323 323 324 324 324 323 323 324 325 326 328 323 323 323 324 324 327 328 329 336 336 338 347 348 348 349 352 350 351
319 321 320 320 319 319 319 318 318 318 319 320 320 321 320 322 322 324 325 325 325 325 325 326 326 325 324 323 323 324 327 326 326 331 331 334 337 337 337 339 346 343 349 352
318 318 318 319 319 319 319 318 319 319 319 322 320 321 322 324 325 326 327 326 325 324 325 324 323 322 322 323 323 324 324 326 329 331 333 332 335 338 340 341 344 346 342 350
319 318 318 318 318 319 319 320 321 323 324 325 323 324 326 327 327 326 325 325 326 325 324 323 322 322 322 321 322 322 324 323 324 326 329 331 333 335 337 337 340 341 341 341
322 323 320 320 320 320 320 321 322 325 326 324 326 328 327 327 326 327 326 325 325 324 323 322 322 321 321 320 321 322 322 322 324 323 325 328 331 334 334 334 334 336 337 336
323 322 321 323 322 322 320 321 321 325 328 329 326 326 326 328 327 327 325 324 325 325 324 322 321 320 320 320 320 321 320 321 322 322 322 324 328 331 333 335 333 333 335 337
321 325 322 322 322 323 323 323 325 327 337 331 326 327 327 328 327 327 325 324 323 323 322 321 321 321 320 320 320 320 320 320 320 319 321 323 323 324 330 331 334 336 338 338
323 324 323 322 322 323 323 325 326 327 326 332 330 327 326 327 328 328 326 324 323 322 321 321 320 319 318 317 317 317 319 319 319 319 319 318 320 322 325 329 329 334 336 338
321 325 326 323 320 320 322 323 324 332 330 329 331 333 326 326 324 325 324 323 322 321 319 318 318 318 316 316 316 317 318 318 318 318 318 319 319 319 321 324 328 330 332 333
322 323 325 320 317 323 325 324 326 327 329 331 333 327 322 324 322 323 322 322 321 320 318 318 318 318 317 317 316 315 316 316 316 315 315 316 319 319 320 321 322 326 326 327
317 319 320 323 319 321 321 322 322 324 326 328 327 324 322 322 324 322 323 321 320 319 319 318 318 318 317 316 316 315 315 314 314 314 314 314 315 317 318 320 319 322 323 325
317 320 319 318 316 316 317 317 317 319 320 324 321 319 319 320 321 319 320 319 318 318 319 319 318 317 317 316 316 315 314 313 313 313 313 314 314 314 315 316 319 319 321 318
316 321 319 319 317 317 318 318 317 317 318 318 317 318 319 318 317 318 319 319 318 317 317 317 317 317 317 316 315 315 314 314 313 313 313 313 314 314 313 313 315 317 321 319
319 320 319 319 317 320 320 317 317 318 319 318 317 318 317 318 318 318 317 316 315 316 315 315 316 316 315 314 313 313 312 312 311 312 311 311 311 311 311 313 313 314 317 320
317 317 317 319 317 321 316 319 320 318 317 319 320 317 318 317 316 315 314 314 314 313 313 313 313 312 310 310 310 310 309 310 310 309 309 309 309 309 309 309 311 314 315 319
316 318 322 319 319 318 317 319 319 320 319 319 319 318 317 316 314 314 314 313 313 313 311 310 309 309 308 308 308 307 307 308 308 308 308 308 307 307 308 308 310 310 313 315
318 319 318 319 321 321 322 320 317 315 317 318 317 317 316 314 315 314 314 313 312 312 310 309 308 308 307 308 308 307 308 307 308 307 307 306 306 307 307 308 309 309 311 314
321 321 319 318 319 316 319 319 317 320 321 317 315 315 314 315 315 314 313 313 312 310 309 307 307 307 306 306 305 305 306 307 307 307 306 306 305 305 306 307 308 309 309 310
321 322 320 319 319 321 317 317 320 317 316 315 313 314 313 313 312 312 312 310 309 309 308 307 307 306 304 303 302 303 302 302 304 305 305 304 304 304 306 307 307 307 308 309
319 320 320 320 320 316 316 318 317 315 314 313 313 312 311 310 311 310 309 308 308 309 308 306 304 302 301 300 301 298 302 302 301 302 302 302 302 304 305 305 306 306 306 308
316 315 317 315 315 314 314 315 314 314 312 312 312 310 310 310 309 309 308 308 307 307 306 304 302 300 299 297 297 297 297 298 298 299 300 300 302 303 304 305 305 306 306 306
314 312 313 312 313 316 314 313 313 312 312 311 309 310 309 309 309 308 307 306 306 306 303 301 299 297 296 295 295 295 295 295 296 297 298 299 299 300 303 303 303 303 305 306
311 314 315 315 313 314 314 312 311 312 311 309 309 309 308 308 307 306 306 306 305 304 300 297 296 295 294 293 293 293 294 294 295 296 296 297 298 299 300 301 301 301 302 303

GFSCGP_925_thetae_111.txt.gz
Theta_e
316 314 313 314 314 315 315 316 316 316 317 317 315 316 316 316 316 317 316 317 317 317 318 321 323 321 322 324 324 323 322 322 330 334 353 352 355 354 354 353 352 352 348 347
315 315 316 317 317 317 316 316 316 317 318 317 315 316 317 317 317 317 317 317 317 318 319 319 322 322 325 324 323 324 324 324 325 328 329 346 352 352 352 353 353 351 351 348
315 316 318 319 318 319 317 317 318 318 318 317 316 316 317 319 319 318 317 317 318 318 319 319 319 323 324 325 328 326 325 325 326 330 328 331 331 332 346 351 350 351 349 349
317 317 319 319 319 318 317 317 317 318 318 317 317 316 316 319 318 318 318 317 316 318 319 320 321 321 324 324 324 327 328 332 328 327 332 334 335 338 337 337 341 345 349 344
318 319 317 318 319 319 317 318 317 318 316 316 316 315 315 318 318 318 318 319 318 316 317 322 321 322 322 323 324 323 324 326 330 331 330 330 330 329 331 332 333 336 343 344
317 317 317 317 318 318 319 318 317 317 315 316 316 316 316 317 318 320 324 322 321 322 320 319 320 321 322 323 323 323 323 323 323 324 325 328 333 333 332 331 333 334 333 338
317 318 317 319 317 317 317 316 318 318 318 318 317 319 317 321 324 326 324 322 321 320 319 318 317 317 320 321 321 322 321 321 322 323 322 323 327 330 332 332 332 333 334 335
320 322 321 321 322 322 321 319 319 323 322 324 324 325 324 323 326 323 323 321 320 319 318 317 317 317 319 321 321 321 321 321 321 321 322 321 323 328 329 329 329 332 333 332
323 324 322 321 321 322 323 322 322 325 325 325 324 323 322 325 325 325 324 324 322 320 317 317 317 318 319 320 321 320 320 320 321 321 320 320 321 321 322 323 325 332 333 334
321 323 321 321 320 321 322 321 327 328 333 331 325 324 327 328 327 326 325 323 322 319 318 317 316 318 319 317 316 318 319 320 321 320 320 319 318 318 319 320 321 322 327 330
322 324 324 321 321 321 320 320 324 324 326 332 326 323 326 326 324 324 322 322 321 319 318 318 316 317 316 316 315 316 316 320 320 320 319 320 319 318 318 318 318 320 321 325
321 322 324 322 318 318 317 319 325 329 331 327 328 327 322 323 321 321 320 320 320 319 316 315 314 316 316 316 316 315 315 316 317 316 315 315 315 318 319 319 318 319 319 319
318 320 320 317 314 321 323 321 323 323 325 329 331 326 322 323 322 321 320 319 321 319 317 314 313 314 315 316 316 316 316 315 314 315 314 314 314 314 314 315 317 317 318 317
317 318 318 317 317 316 318 318 317 323 323 324 326 324 321 320 323 320 319 318 318 316 316 315 314 313 314 315 315 315 315 315 314 314 313 313 313 313 313 313 313 313 315 317
314 316 317 317 317 317 317 316 315 315 319 322 320 321 320 318 317 318 317 317 317 317 316 314 314 313 313 314 313 313 313 313 313 312 312 313 313 312 312 312 312 313 313 312
317 316 318 318 317 316 317 317 318 318 318 316 316 317 316 316 315 315 315 316 317 313 312 312 311 311 310 311 310 310 311 311 309 311 311 311 311 311 312 311 311 310 311 313
316 317 318 318 315 315 316 316 318 319 320 319 320 320 317 316 315 315 313 312 312 311 310 310 309 308 308 308 309 309 309 309 309 309 309 309 309 310 310 310 309 309 309 309
317 316 316 318 314 318 314 316 319 320 321 321 320 319 320 319 313 311 311 310 309 309 310 308 306 307 308 308 308 307 307 307 307 307 307 307 308 308 308 308 308 307 307 308
314 315 319 316 314 316 315 320 321 321 320 319 318 316 315 313 311 311 311 309 308 308 307 307 308 307 308 308 307 306 306 306 306 307 307 307 307 307 307 307 306 306 306 306
317 316 317 314 318 318 319 320 318 317 317 317 316 314 313 312 313 312 309 308 308 306 306 305 306 306 306 306 305 303 303 303 303 303 305 307 307 307 307 306 306 306 306 306
319 319 319 319 319 316 319 318 318 323 320 315 314 312 311 312 310 308 307 307 306 305 305 305 305 305 305 304 303 302 301 301 300 302 302 303 305 307 306 306 305 305 305 306
319 320 317 317 318 318 317 317 319 317 315 314 312 311 311 308 307 307 307 306 305 305 305 305 304 304 303 302 301 301 300 299 299 298 299 301 303 304 305 305 304 304 305 307
317 317 320 319 318 317 316 316 315 313 314 312 310 311 308 307 307 307 307 305 304 303 303 304 303 302 301 300 298 299 297 296 296 297 297 299 300 302 302 302 303 303 305 306
315 315 318 316 315 315 315 314 312 312 312 310 309 308 307 306 306 306 305 304 303 303 304 303 302 301 299 297 296 296 295 295 295 295 295 296 297 298 299 300 301 303 304 305
312 313 313 312 313 314 314 313 312 312 311 310 307 307 307 306 306 305 303 302 303 302 302 301 299 297 296 295 294 293 293 293 293 294 294 295 296 297 299 300 300 302 304 304
309 312 313 313 312 313 312 312 311 311 310 308 308 307 306 306 305 303 303 302 301 300 299 298 296 295 294 292 291 291 292 292 293 293 294 294 295 296 297 297 298 299 302 304

GFSCGP_925_thetae_114.txt.gz
Theta_e
315 313 312 313 312 313 313 313 313 314 314 315 313 313 313 313 313 312 314 314 314 315 316 318 320 320 330 334 340 343 342 336 344 346 345 341 349 352 350 352 350 352 349 342
314 313 313 313 313 314 314 313 313 313 315 314 316 315 315 315 314 314 314 314 314 314 314 315 318 319 326 337 339 338 333 329 327 327 339 351 351 350 350 349 347 348 348 349
313 314 315 315 316 317 316 314 315 316 316 316 316 314 314 314 317 316 314 313 314 314 314 314 315 318 322 322 322 324 326 326 326 325 325 327 331 333 332 330 334 337 344 345
313 314 315 316 317 317 317 316 316 316 316 314 315 314 314 314 314 315 315 313 312 313 315 314 318 321 324 326 326 326 326 326 328 331 331 331 330 330 330 330 330 330 331 333
315 317 317 317 317 316 316 316 316 317 315 314 313 313 313 314 314 314 314 314 316 315 314 318 318 320 325 326 327 329 331 331 331 330 330 330 330 331 330 330 331 332 332 332
315 316 317 317 317 317 317 316 314 313 312 314 314 313 313 313 314 315 316 320 318 316 318 316 317 321 323 323 323 323 323 323 324 324 324 324 325 327 330 330 330 328 328 330
316 316 316 317 319 319 316 313 315 315 315 317 319 321 314 316 324 323 322 319 317 315 314 315 314 314 320 322 322 322 321 322 322 322 322 322 322 322 326 329 327 329 330 331
317 321 320 321 321 322 320 317 315 320 319 319 321 322 321 323 323 322 321 317 317 315 314 314 314 314 318 319 321 321 320 321 321 320 320 320 321 321 322 321 321 321 322 323
318 322 320 321 320 320 322 323 320 321 323 322 321 320 319 324 324 323 321 319 316 316 315 314 314 314 316 318 319 320 320 320 320 320 319 320 320 319 319 319 319 319 319 318
321 322 320 321 319 319 320 319 323 320 323 325 324 322 322 326 325 324 324 321 318 315 314 315 314 315 314 315 315 315 316 316 318 320 320 320 319 318 318 318 318 317 318 318
320 320 321 320 320 319 317 317 320 321 327 330 327 322 322 322 322 322 321 321 320 320 317 314 313 315 315 315 315 315 315 316 318 320 320 319 319 319 318 318 318 318 317 318
318 319 322 321 317 316 316 320 322 324 328 328 329 326 320 320 318 319 318 318 318 319 319 316 314 314 316 316 315 315 314 315 317 318 318 317 316 315 315 316 318 315 315 315
317 317 317 313 311 314 318 320 321 321 320 324 329 325 321 320 318 318 318 317 318 318 316 315 313 311 312 312 312 312 312 313 313 314 315 315 314 314 314 314 313 313 313 312
315 315 315 314 312 314 317 316 316 320 321 321 322 320 318 317 319 320 317 316 316 314 313 311 309 309 310 310 310 309 309 310 311 311 312 312 312 312 312 312 312 312 312 312
311 313 315 315 315 316 316 316 316 314 315 318 316 317 315 315 316 316 316 315 312 311 311 310 309 308 308 309 308 308 308 309 309 309 309 309 309 310 311 311 312 313 313 313
311 313 316 318 316 316 317 315 314 315 316 315 315 316 315 315 314 313 310 311 311 310 310 309 309 308 307 307 308 308 308 308 307 307 307 307 308 308 308 309 310 310 310 309
313 313 313 316 315 314 315 313 313 315 319 319 321 319 316 316 314 311 310 309 309 309 309 308 307 306 306 306 307 307 308 307 307 307 307 307 307 307 307 307 308 308 308 308
313 313 315 315 312 317 312 315 319 321 321 319 319 318 317 316 314 313 309 309 308 307 307 306 304 304 305 305 305 306 306 306 305 305 306 306 306 306 306 306 306 307 307 307
312 313 315 313 310 313 313 320 319 317 319 318 318 316 313 311 309 310 309 307 306 305 303 303 304 305 304 304 305 305 304 303 303 303 303 303 303 302 302 304 306 306 306 306
313 314 316 316 317 316 318 320 317 317 317 317 315 313 311 310 311 309 308 306 305 303 304 304 304 304 304 304 304 304 302 302 302 301 301 301 300 301 303 304 306 306 305 305
319 317 318 318 318 316 316 316 317 316 315 315 314 310 309 311 308 306 304 304 304 304 304 304 304 303 303 303 303 301 301 301 299 299 299 298 299 298 298 299 301 305 306 305
316 317 317 317 319 319 315 315 316 313 313 313 310 309 309 306 305 305 304 304 303 301 302 302 302 302 302 302 301 300 299 298 297 297 296 296 296 297 298 299 302 303 304 305
311 313 317 316 317 315 315 313 313 311 311 311 309 309 307 305 305 304 304 303 301 300 301 302 301 301 300 299 298 297 297 296 295 295 295 295 295 296 296 297 299 302 303 303
311 314 316 315 315 315 313 312 311 310 310 310 308 307 306 305 304 304 303 300 301 301 301 300 299 298 298 296 295 295 294 293 292 293 293 293 294 294 295 296 297 298 299 300
307 310 311 311 311 311 312 311 310 310 310 308 307 307 305 304 303 302 301 301 300 300 300 298 297 297 296 294 293 292 292 291 291 292 292 293 293 294 294 295 296 298 300 301
305 306 308 309 310 309 309 309 309 309 309 307 306 305 303 304 302 302 300 299 299 299 297 296 296 294 293 292 291 291 291 290 290 291 291 292 292 293 294 295 295 296 296 297

GFSCGP_925_thetae_117.txt.gz
Theta_e
313 313 313 313 312 313 314 313 313 313 313 314 312 312 313 312 312 309 310 311 312 312 313 315 317 318 328 328 338 343 348 347 347 346 344 337 344 347 344 352 351 349 348 348
312 313 313 312 313 313 313 313 313 312 312 311 313 313 312 314 314 310 310 311 311 312 313 313 315 316 326 332 336 341 344 345 346 343 342 339 338 340 349 349 342 339 342 346
312 314 314 314 314 315 314 313 313 313 315 314 314 313 313 314 314 313 314 312 312 312 311 311 312 316 323 331 337 340 343 347 342 335 341 348 349 344 339 334 332 331 331 332
312 312 314 314 315 314 314 314 316 315 314 313 313 313 312 313 313 313 312 311 310 310 311 311 311 313 321 326 334 339 341 335 328 325 328 331 327 327 330 329 329 330 329 327
314 315 315 315 315 314 314 315 315 315 313 313 313 311 310 312 313 312 314 313 313 315 314 311 311 316 320 323 328 332 330 328 328 330 331 330 329 330 329 329 329 328 328 329
314 315 316 315 316 317 317 315 311 310 310 313 313 312 311 313 314 319 319 317 316 315 314 314 317 321 322 325 327 329 330 331 330 329 327 326 325 325 326 329 329 327 327 327
315 316 315 316 316 318 314 311 313 314 313 314 317 317 315 317 323 322 319 316 314 314 315 316 317 317 320 321 323 324 325 323 323 323 322 322 321 321 322 324 324 322 322 321
316 320 320 319 320 321 319 313 313 317 316 316 319 319 319 322 321 318 317 315 314 313 311 311 312 315 318 320 320 321 321 321 321 321 320 320 320 320 320 321 321 320 319 318
317 321 320 319 319 319 321 321 316 319 319 322 319 318 318 322 322 322 321 318 317 314 312 312 312 313 316 318 319 318 319 319 320 320 320 319 319 319 319 319 318 318 318 317
320 321 320 320 318 317 318 319 322 319 324 323 320 321 319 325 323 322 321 321 319 318 317 312 310 313 313 317 317 316 316 316 316 317 318 319 319 319 318 318 317 317 318 318
318 318 319 318 318 318 316 316 317 317 320 321 324 321 317 321 321 320 318 318 319 320 322 319 315 314 315 313 313 312 312 313 314 316 318 319 319 319 318 318 318 318 318 318
318 317 321 320 315 315 315 319 317 315 321 326 329 325 319 318 316 315 314 314 314 314 315 316 315 313 312 311 311 311 311 312 312 313 314 317 317 317 317 318 318 318 317 317
316 315 315 309 310 313 316 319 319 316 315 321 319 320 318 315 315 314 315 314 313 316 314 310 309 310 310 310 310 309 309 309 310 310 310 311 312 312 312 312 313 316 315 314
314 314 313 311 308 313 316 315 315 315 317 315 319 318 315 315 314 313 313 314 311 310 310 309 307 306 308 308 308 308 308 307 308 308 308 308 309 309 309 309 309 310 311 312
309 313 315 314 314 315 316 316 315 313 313 315 315 314 313 311 311 313 311 310 310 310 310 309 307 306 306 306 307 307 307 307 307 308 308 307 307 307 307 307 307 307 309 310
308 312 315 317 315 315 315 314 314 313 313 313 313 314 312 314 310 309 308 308 308 308 308 307 307 306 305 305 305 305 305 305 306 307 306 306 307 307 307 307 307 306 306 307
311 311 311 314 314 313 313 312 311 311 313 314 317 315 316 315 314 312 310 309 308 307 306 305 305 304 304 304 304 304 304 304 305 305 305 305 305 305 305 306 306 306 306 306
310 309 308 312 311 315 310 311 316 317 320 319 318 317 315 315 313 310 309 308 306 305 305 303 302 302 304 304 303 304 304 304 304 304 303 303 303 303 303 303 304 304 304 304
310 311 316 312 309 311 312 319 318 316 316 317 317 316 315 311 308 309 308 306 305 304 302 303 304 303 303 303 304 303 303 303 302 302 302 302 301 300 300 301 300 300 300 303
311 313 316 316 316 317 312 318 317 316 316 316 315 314 312 308 310 308 307 305 304 304 304 302 303 303 302 302 302 302 301 301 301 301 301 300 298 299 299 298 300 300 299 302
310 312 317 317 318 315 312 315 316 315 311 314 314 313 310 309 307 304 303 303 303 303 303 302 302 300 302 302 301 300 300 300 300 298 298 298 296 296 296 296 297 296 298 299
313 316 316 316 319 318 315 314 316 311 311 312 312 309 307 305 304 303 303 302 302 300 301 301 300 301 300 299 298 298 299 297 296 296 296 295 294 295 295 295 295 296 298 300
311 310 308 310 310 313 314 314 311 311 310 310 309 307 305 305 304 303 302 301 300 299 299 301 300 299 298 297 297 297 296 295 294 294 293 293 292 293 293 294 294 295 295 296
309 311 312 314 311 312 312 313 311 309 309 310 308 306 306 304 303 302 301 300 299 299 299 299 298 297 296 296 295 294 294 293 292 292 292 292 292 291 292 293 294 295 296 297
305 306 308 309 308 309 310 311 309 309 309 307 306 305 304 302 302 301 301 299 298 299 298 297 296 296 295 295 293 292 292 291 291 291 291 291 291 291 292 293 293 294 295 296
302 304 304 305 305 308 308 308 308 308 307 306 305 303 301 301 301 300 299 298 298 297 296 295 295 294 294 293 292 291 290 290 290 289 290 290 291 291 292 293 293 294 293 294

GFSCGP_925_thetae_120.txt.gz
Theta_e
310 311 312 312 312 312 312 313 313 313 312 313 312 311 311 311 312 311 311 309 309 310 311 313 314 315 316 316 319 330 340 345 346 344 341 343 345 347 349 350 350 348 348 347
311 312 312 312 312 313 313 313 313 312 312 311 312 313 311 312 312 312 311 310 308 309 310 311 313 314 319 321 321 331 334 343 346 344 342 343 344 345 349 348 350 346 343 344
311 313 312 313 313 314 313 312 313 313 313 312 313 312 313 313 312 312 312 311 310 310 310 310 311 313 315 322 327 327 333 340 346 346 343 342 341 342 343 339 336 331 330 330
311 311 313 313 314 313 314 312 314 315 313 314 311 313 311 312 312 311 312 313 312 311 310 310 310 311 313 316 324 333 340 343 343 342 340 344 342 333 331 329 329 329 327 326
312 314 314 313 313 313 314 314 314 314 312 312 312 311 311 310 313 313 317 316 314 313 313 313 312 311 313 314 319 330 336 338 337 328 328 330 327 328 329 328 328 327 326 326
312 314 315 315 316 315 315 312 310 309 309 312 312 311 311 311 315 320 318 314 313 312 314 316 318 319 320 321 323 327 330 329 329 330 329 328 327 327 326 327 327 326 325 323
314 315 314 315 315 317 312 310 312 314 313 314 314 316 312 314 321 319 316 314 312 311 310 311 314 316 320 324 327 328 329 328 328 327 326 324 322 321 322 323 324 323 322 320
315 315 318 318 317 317 318 311 311 315 314 313 316 318 316 321 318 317 317 316 315 312 310 311 310 312 315 317 320 321 322 322 321 321 321 321 321 320 320 320 320 320 319 318
317 322 319 318 318 318 320 319 313 316 317 321 317 317 320 321 321 320 320 319 318 317 315 312 311 311 313 315 316 316 317 318 319 319 319 319 319 320 320 320 321 319 318 317
319 321 320 320 317 316 318 317 321 317 321 324 318 320 317 323 321 317 315 314 315 316 316 316 315 315 315 314 314 314 314 314 314 314 315 316 317 317 318 319 319 318 318 318
317 316 319 317 317 318 315 316 316 316 316 319 322 319 314 320 319 317 313 312 312 313 314 315 316 315 315 313 314 312 313 313 313 313 314 315 317 318 317 317 317 317 317 317
317 316 320 319 312 313 314 318 314 315 319 320 323 322 318 316 316 314 312 312 311 311 311 311 308 310 310 310 310 309 308 308 309 309 309 310 310 311 312 312 313 314 315 316
314 313 313 309 311 312 315 318 315 313 312 321 320 317 317 314 312 311 312 310 311 311 310 308 306 307 308 308 307 307 307 307 307 307 307 307 307 307 308 308 309 310 310 310
313 312 311 311 306 312 316 315 315 312 316 313 314 316 315 314 312 311 310 310 308 308 308 307 306 304 306 306 306 306 306 305 305 305 305 306 307 307 307 307 307 307 307 307
309 312 314 313 313 314 314 314 313 313 312 314 313 315 312 310 310 309 310 309 308 307 307 306 306 305 305 305 305 305 305 304 304 304 305 305 305 306 306 306 306 306 306 306
307 312 314 316 314 314 315 313 313 312 312 312 313 313 310 309 308 309 308 308 308 307 307 306 305 304 304 304 304 303 303 303 304 304 304 304 304 304 304 304 305 305 305 306
309 310 311 314 313 312 312 310 311 310 310 310 312 311 314 314 313 311 308 308 308 307 306 305 304 303 303 303 303 303 303 303 303 303 303 302 302 302 303 303 303 303 304 304
309 308 306 310 310 315 309 308 313 312 314 316 317 316 314 313 312 309 308 308 307 306 305 303 302 302 303 302 302 302 302 302 302 302 301 301 301 302 301 301 301 300 300 301
307 306 308 309 309 310 312 317 317 315 314 316 316 315 314 311 308 308 308 306 305 304 302 302 304 303 303 302 302 302 301 301 301 300 300 300 301 301 300 300 299 299 300 300
310 309 307 313 310 315 311 317 316 314 314 313 315 314 312 308 309 307 306 305 304 303 304 303 303 302 301 301 302 300 299 299 299 299 299 300 298 297 298 298 298 297 297 297
309 310 310 315 316 315 312 314 315 314 311 312 313 312 312 309 306 305 303 302 303 303 303 303 302 300 300 301 300 299 298 297 297 298 297 295 296 296 296 295 295 296 296 296
313 317 317 317 318 315 314 314 316 309 309 310 310 310 309 305 304 303 303 302 302 301 301 301 299 300 299 299 298 297 296 296 296 295 294 294 294 294 293 293 293 293 294 295
311 308 307 309 308 307 312 312 311 310 310 310 308 307 305 304 304 303 302 301 301 300 299 299 299 298 297 296 296 295 296 295 294 292 293 292 292 292 292 292 292 292 293 293
308 309 311 312 309 311 310 309 309 309 309 308 308 305 305 304 302 301 300 300 300 299 299 298 297 296 295 295 294 294 294 293 291 291 292 291 291 291 291 291 291 292 293 294
304 304 306 307 306 307 307 307 308 308 309 308 305 304 303 302 301 300 300 300 298 298 297 296 296 295 294 294 293 293 292 291 291 290 290 290 290 290 291 291 292 292 293 293
300 303 303 303 303 305 304 305 307 308 306 305 303 302 301 300 300 299 299 298 297 296 296 295 294 294 293 292 291 291 290 290 289 289 289 289 289 289 290 290 291 291 292 293

GFSCGP_925_thetae_126.txt.gz
Theta_e
312 313 314 316 318 317 317 316 317 317 317 317 318 318 319 320 320 321 321 322 323 324 323 321 322 322 323 324 326 329 336 343 350 350 351 352 353 353 351 349 349 350 351 352
312 313 314 315 318 317 317 317 317 317 317 319 318 318 319 320 320 321 322 323 326 327 327 328 327 325 325 326 327 327 333 341 350 347 349 349 351 352 351 348 348 351 351 351
313 314 315 316 317 318 318 318 318 318 318 318 318 319 320 319 321 321 324 326 327 328 329 331 331 330 328 326 328 332 331 339 348 347 349 352 352 352 351 349 352 353 352 352
314 316 318 318 318 318 319 318 318 318 318 318 319 318 321 320 320 321 326 327 328 329 331 332 332 331 330 329 327 326 335 341 344 348 347 349 349 350 349 351 353 351 348 347
317 317 318 318 318 318 318 317 317 318 320 320 320 319 321 320 320 323 326 327 328 329 330 331 333 332 332 332 331 331 335 341 343 346 347 348 349 348 349 348 347 342 340 337
317 317 317 318 317 317 318 318 320 320 320 322 320 320 320 321 320 327 326 326 326 327 327 328 329 330 332 334 337 338 338 340 342 344 346 349 349 347 344 342 340 336 334 334
318 318 318 318 318 318 319 320 321 321 321 320 321 321 320 326 326 326 326 325 325 325 325 325 326 327 328 331 333 335 337 337 337 337 337 339 341 339 338 336 332 330 328 328
318 319 319 319 320 320 320 321 319 321 321 321 321 320 326 326 325 325 326 326 326 326 326 325 324 323 323 323 324 325 326 327 328 328 328 329 331 328 328 330 327 326 325 325
319 321 321 321 320 320 321 322 322 322 322 322 320 326 326 326 326 325 324 323 323 323 323 324 325 323 322 322 324 324 324 324 323 324 325 326 327 327 326 330 330 325 326 325
320 323 321 321 322 322 323 321 322 322 325 326 321 323 323 329 328 325 323 323 322 322 322 322 323 324 323 322 322 321 321 320 319 320 320 320 321 321 323 325 325 326 327 328
321 323 325 323 322 322 323 322 322 325 325 327 326 324 325 327 327 326 324 322 322 322 322 321 321 320 320 320 319 318 317 317 317 316 316 316 316 316 316 318 319 321 323 324
322 323 326 324 322 321 323 324 324 328 326 325 325 328 326 326 327 326 324 321 321 321 321 319 319 318 317 316 316 315 315 315 314 313 313 314 314 315 315 316 316 316 316 317
323 323 327 325 323 321 323 323 323 325 329 330 333 328 324 325 325 324 324 322 320 319 318 318 317 317 316 315 314 314 314 313 313 312 312 312 312 313 313 313 313 313 313 314
321 326 326 326 324 325 325 323 323 325 332 327 325 324 324 323 321 320 320 318 318 318 317 317 317 316 315 315 314 314 313 312 311 311 311 311 311 311 311 311 311 311 310 310
324 327 323 320 318 318 319 319 319 320 321 320 318 317 317 316 316 317 318 317 318 318 317 316 316 316 315 314 313 313 311 311 310 310 309 309 309 309 309 309 309 309 309 309
322 324 321 320 317 316 317 316 315 315 316 316 316 316 315 316 318 318 319 318 317 317 316 316 316 315 314 313 312 311 311 310 309 309 309 308 308 308 307 307 307 307 307 308
322 322 321 320 318 317 315 315 315 315 315 315 315 316 318 318 319 319 318 318 318 317 317 316 315 314 313 313 312 311 310 309 308 308 307 307 306 306 306 306 306 306 307 308
322 322 320 317 316 314 317 315 315 316 316 316 317 317 317 320 319 318 317 317 317 316 315 315 314 313 312 311 310 310 309 308 307 307 306 306 305 305 304 305 305 306 306 305
319 320 322 319 318 316 315 319 318 319 319 319 319 319 319 319 318 318 317 316 315 315 314 313 312 311 310 309 309 308 308 307 306 305 305 304 304 304 304 304 303 302 302 300
318 318 320 320 322 318 322 320 319 317 316 320 319 319 318 317 319 317 316 315 315 313 312 312 311 310 309 309 308 307 306 305 304 304 303 303 303 302 301 301 300 295 296 296
319 321 323 319 322 319 318 318 317 319 323 319 317 317 317 318 318 316 315 315 313 312 311 310 309 309 308 307 305 305 304 303 303 303 302 301 300 299 298 295 294 295 295 295
321 322 322 320 319 320 318 318 318 321 318 317 315 316 316 316 315 314 314 313 313 311 310 309 308 307 306 304 303 303 302 302 301 299 298 297 297 293 293 293 293 293 294 295
323 320 324 321 319 319 317 318 317 315 314 314 314 314 315 315 314 313 313 312 311 309 308 308 306 305 303 302 302 302 301 298 297 296 296 293 292 292 292 292 292 292 293 294
319 318 318 319 317 316 315 315 313 313 313 313 314 314 313 313 312 311 310 310 309 308 307 305 303 303 302 301 300 298 296 295 295 293 291 291 291 291 291 291 291 292 293 293
315 316 316 316 315 312 311 312 312 312 313 313 312 311 310 310 309 309 309 308 307 305 304 302 301 301 301 299 296 295 294 292 290 290 290 290 290 290 290 290 290 291 292 292
311 312 314 313 313 313 313 313 312 313 311 310 309 309 308 308 307 306 306 304 303 302 301 301 300 299 296 295 294 293 289 289 288 288 288 288 288 289 289 290 290 292 292 292